<?xml version="1.0" encoding="UTF-8" standalone="no" ?><gpx xmlns="http://www.topografix.com/GPX/1/1" xmlns:gpxx="http://www.garmin.com/xmlschemas/GpxExtensions/v3" xmlns:wptx1="http://www.garmin.com/xmlschemas/WaypointExtension/v1" xmlns:gpxtpx="http://www.garmin.com/xmlschemas/TrackPointExtension/v1" creator="GuideVTT.com" version="1.1" xmlns:xsi="http://www.w3.org/2001/XMLSchema-instance" xsi:schemaLocation="http://www.topografix.com/GPX/1/1 http://www.topografix.com/GPX/1/1/gpx.xsd http://www.garmin.com/xmlschemas/GpxExtensions/v3 http://www8.garmin.com/xmlschemas/GpxExtensionsv3.xsd http://www.garmin.com/xmlschemas/WaypointExtension/v1 http://www8.garmin.com/xmlschemas/WaypointExtensionv1.xsd http://www.garmin.com/xmlschemas/TrackPointExtension/v1 http://www.garmin.com/xmlschemas/TrackPointExtensionv1.xsd">
<metadata><link href="http://www.garmin.com"><text>Garmin International</text></link><time>2013-06-22T15:13:50Z</time></metadata>
<trk><name>rp2017_22.gpx</name><extensions><gpxx:TrackExtension><gpxx:DisplayColor>Cyan</gpxx:DisplayColor></gpxx:TrackExtension></extensions><trkseg>
<trkpt lat="46.20675" lon="7.43961"><ele>1514</ele><time>2017-08-25T08:52:43Z</time></trkpt>
<trkpt lat="46.20674" lon="7.43961"><ele>1514</ele><time>2017-08-25T08:52:44Z</time></trkpt>
<trkpt lat="46.20675" lon="7.43969"><ele>1514.6</ele><time>2017-08-25T08:52:58Z</time></trkpt>
<trkpt lat="46.20671" lon="7.4397"><ele>1514.6</ele><time>2017-08-25T08:53:01Z</time></trkpt>
<trkpt lat="46.20666" lon="7.43968"><ele>1515.2</ele><time>2017-08-25T08:53:07Z</time></trkpt>
<trkpt lat="46.20663" lon="7.43967"><ele>1515.4</ele><time>2017-08-25T08:53:11Z</time></trkpt>
<trkpt lat="46.20663" lon="7.43966"><ele>1515.4</ele><time>2017-08-25T08:53:12Z</time></trkpt>
<trkpt lat="46.20653" lon="7.43961"><ele>1517.6</ele><time>2017-08-25T08:53:27Z</time></trkpt>
<trkpt lat="46.20651" lon="7.4396"><ele>1518.2</ele><time>2017-08-25T08:53:32Z</time></trkpt>
<trkpt lat="46.20648" lon="7.43958"><ele>1519.2</ele><time>2017-08-25T08:53:39Z</time></trkpt>
<trkpt lat="46.20643" lon="7.43955"><ele>1520.6</ele><time>2017-08-25T08:53:50Z</time></trkpt>
<trkpt lat="46.20642" lon="7.43955"><ele>1520.8</ele><time>2017-08-25T08:53:52Z</time></trkpt>
<trkpt lat="46.20639" lon="7.43954"><ele>1522</ele><time>2017-08-25T08:53:58Z</time></trkpt>
<trkpt lat="46.20637" lon="7.43953"><ele>1522.6</ele><time>2017-08-25T08:54:02Z</time></trkpt>
<trkpt lat="46.20627" lon="7.43949"><ele>1524.8</ele><time>2017-08-25T08:54:22Z</time></trkpt>
<trkpt lat="46.20625" lon="7.4395"><ele>1525.2</ele><time>2017-08-25T08:54:25Z</time></trkpt>
<trkpt lat="46.20622" lon="7.43949"><ele>1525.8</ele><time>2017-08-25T08:54:31Z</time></trkpt>
<trkpt lat="46.2062" lon="7.4395"><ele>1526.2</ele><time>2017-08-25T08:54:35Z</time></trkpt>
<trkpt lat="46.20615" lon="7.43951"><ele>1527.8</ele><time>2017-08-25T08:54:48Z</time></trkpt>
<trkpt lat="46.20605" lon="7.43954"><ele>1530.2</ele><time>2017-08-25T08:55:06Z</time></trkpt>
<trkpt lat="46.20599" lon="7.43955"><ele>1531.6</ele><time>2017-08-25T08:55:15Z</time></trkpt>
<trkpt lat="46.20596" lon="7.43954"><ele>1532.2</ele><time>2017-08-25T08:55:20Z</time></trkpt>
<trkpt lat="46.20595" lon="7.43954"><ele>1532.6</ele><time>2017-08-25T08:55:22Z</time></trkpt>
<trkpt lat="46.20594" lon="7.43954"><ele>1532.8</ele><time>2017-08-25T08:55:24Z</time></trkpt>
<trkpt lat="46.20593" lon="7.43954"><ele>1533.2</ele><time>2017-08-25T08:55:27Z</time></trkpt>
<trkpt lat="46.2059" lon="7.43955"><ele>1533.6</ele><time>2017-08-25T08:55:31Z</time></trkpt>
<trkpt lat="46.20587" lon="7.43957"><ele>1534.6</ele><time>2017-08-25T08:55:37Z</time></trkpt>
<trkpt lat="46.20579" lon="7.43959"><ele>1537.6</ele><time>2017-08-25T08:55:56Z</time></trkpt>
<trkpt lat="46.20573" lon="7.43963"><ele>1538.8</ele><time>2017-08-25T08:56:12Z</time></trkpt>
<trkpt lat="46.20568" lon="7.43969"><ele>1540.8</ele><time>2017-08-25T08:56:33Z</time></trkpt>
<trkpt lat="46.20565" lon="7.43974"><ele>1541.4</ele><time>2017-08-25T08:56:49Z</time></trkpt>
<trkpt lat="46.20563" lon="7.43977"><ele>1543</ele><time>2017-08-25T08:57:02Z</time></trkpt>
<trkpt lat="46.20562" lon="7.43992"><ele>1544.8</ele><time>2017-08-25T08:57:35Z</time></trkpt>
<trkpt lat="46.20564" lon="7.43997"><ele>1545.2</ele><time>2017-08-25T08:57:42Z</time></trkpt>
<trkpt lat="46.20567" lon="7.44008"><ele>1546.4</ele><time>2017-08-25T08:57:58Z</time></trkpt>
<trkpt lat="46.20571" lon="7.44014"><ele>1547.4</ele><time>2017-08-25T08:58:07Z</time></trkpt>
<trkpt lat="46.20574" lon="7.44019"><ele>1548.2</ele><time>2017-08-25T08:58:16Z</time></trkpt>
<trkpt lat="46.20575" lon="7.44021"><ele>1548.6</ele><time>2017-08-25T08:58:20Z</time></trkpt>
<trkpt lat="46.20576" lon="7.44025"><ele>1549</ele><time>2017-08-25T08:58:26Z</time></trkpt>
<trkpt lat="46.20577" lon="7.44027"><ele>1549.2</ele><time>2017-08-25T08:58:28Z</time></trkpt>
<trkpt lat="46.20577" lon="7.44028"><ele>1549.6</ele><time>2017-08-25T08:58:30Z</time></trkpt>
<trkpt lat="46.20569" lon="7.44032"><ele>1552.2</ele><time>2017-08-25T08:58:48Z</time></trkpt>
<trkpt lat="46.20567" lon="7.44033"><ele>1552.6</ele><time>2017-08-25T08:58:50Z</time></trkpt>
<trkpt lat="46.20565" lon="7.44029"><ele>1553.4</ele><time>2017-08-25T08:58:55Z</time></trkpt>
<trkpt lat="46.20565" lon="7.44026"><ele>1554</ele><time>2017-08-25T08:58:58Z</time></trkpt>
<trkpt lat="46.20546" lon="7.44017"><ele>1556.4</ele><time>2017-08-25T08:59:14Z</time></trkpt>
<trkpt lat="46.20545" lon="7.44016"><ele>1556.6</ele><time>2017-08-25T08:59:15Z</time></trkpt>
<trkpt lat="46.2054" lon="7.44014"><ele>1557.8</ele><time>2017-08-25T08:59:19Z</time></trkpt>
<trkpt lat="46.20524" lon="7.44003"><ele>1560.8</ele><time>2017-08-25T08:59:32Z</time></trkpt>
<trkpt lat="46.20516" lon="7.44"><ele>1562.2</ele><time>2017-08-25T08:59:37Z</time></trkpt>
<trkpt lat="46.20504" lon="7.43992"><ele>1564.4</ele><time>2017-08-25T08:59:46Z</time></trkpt>
<trkpt lat="46.20487" lon="7.43983"><ele>1567.4</ele><time>2017-08-25T08:59:58Z</time></trkpt>
<trkpt lat="46.20473" lon="7.43975"><ele>1569</ele><time>2017-08-25T09:00:08Z</time></trkpt>
<trkpt lat="46.2047" lon="7.43973"><ele>1569</ele><time>2017-08-25T09:00:10Z</time></trkpt>
<trkpt lat="46.2046" lon="7.43964"><ele>1570.2</ele><time>2017-08-25T09:00:18Z</time></trkpt>
<trkpt lat="46.20448" lon="7.43956"><ele>1572</ele><time>2017-08-25T09:00:27Z</time></trkpt>
<trkpt lat="46.20437" lon="7.43959"><ele>1573</ele><time>2017-08-25T09:00:35Z</time></trkpt>
<trkpt lat="46.20437" lon="7.43963"><ele>1573.4</ele><time>2017-08-25T09:00:37Z</time></trkpt>
<trkpt lat="46.20443" lon="7.43978"><ele>1575.2</ele><time>2017-08-25T09:00:44Z</time></trkpt>
<trkpt lat="46.20459" lon="7.43993"><ele>1577.8</ele><time>2017-08-25T09:00:56Z</time></trkpt>
<trkpt lat="46.20464" lon="7.43998"><ele>1578.6</ele><time>2017-08-25T09:01:00Z</time></trkpt>
<trkpt lat="46.20476" lon="7.4401"><ele>1581.6</ele><time>2017-08-25T09:01:08Z</time></trkpt>
<trkpt lat="46.20484" lon="7.44017"><ele>1583.6</ele><time>2017-08-25T09:01:13Z</time></trkpt>
<trkpt lat="46.205" lon="7.44033"><ele>1587.2</ele><time>2017-08-25T09:01:24Z</time></trkpt>
<trkpt lat="46.20512" lon="7.44045"><ele>1589.6</ele><time>2017-08-25T09:01:33Z</time></trkpt>
<trkpt lat="46.2052" lon="7.44053"><ele>1590.8</ele><time>2017-08-25T09:01:39Z</time></trkpt>
<trkpt lat="46.20531" lon="7.44065"><ele>1594.4</ele><time>2017-08-25T09:01:49Z</time></trkpt>
<trkpt lat="46.20546" lon="7.44082"><ele>1597.2</ele><time>2017-08-25T09:02:01Z</time></trkpt>
<trkpt lat="46.20549" lon="7.44085"><ele>1598</ele><time>2017-08-25T09:02:03Z</time></trkpt>
<trkpt lat="46.20553" lon="7.44095"><ele>1600.2</ele><time>2017-08-25T09:02:08Z</time></trkpt>
<trkpt lat="46.20557" lon="7.44102"><ele>1601.6</ele><time>2017-08-25T09:02:12Z</time></trkpt>
<trkpt lat="46.20569" lon="7.44124"><ele>1605.4</ele><time>2017-08-25T09:02:24Z</time></trkpt>
<trkpt lat="46.20577" lon="7.44146"><ele>1608.8</ele><time>2017-08-25T09:02:36Z</time></trkpt>
<trkpt lat="46.2058" lon="7.44171"><ele>1611</ele><time>2017-08-25T09:02:48Z</time></trkpt>
<trkpt lat="46.20581" lon="7.44198"><ele>1613.4</ele><time>2017-08-25T09:03:01Z</time></trkpt>
<trkpt lat="46.20583" lon="7.44212"><ele>1615.2</ele><time>2017-08-25T09:03:08Z</time></trkpt>
<trkpt lat="46.20585" lon="7.44248"><ele>1618.6</ele><time>2017-08-25T09:03:25Z</time></trkpt>
<trkpt lat="46.20588" lon="7.44255"><ele>1619</ele><time>2017-08-25T09:03:29Z</time></trkpt>
<trkpt lat="46.20597" lon="7.44279"><ele>1622.2</ele><time>2017-08-25T09:03:42Z</time></trkpt>
<trkpt lat="46.20607" lon="7.44301"><ele>1626.4</ele><time>2017-08-25T09:03:54Z</time></trkpt>
<trkpt lat="46.20614" lon="7.4431"><ele>1627.8</ele><time>2017-08-25T09:04:00Z</time></trkpt>
<trkpt lat="46.20618" lon="7.44317"><ele>1628.8</ele><time>2017-08-25T09:04:04Z</time></trkpt>
<trkpt lat="46.20627" lon="7.44328"><ele>1629.8</ele><time>2017-08-25T09:04:11Z</time></trkpt>
<trkpt lat="46.20637" lon="7.44337"><ele>1632.4</ele><time>2017-08-25T09:04:19Z</time></trkpt>
<trkpt lat="46.20643" lon="7.44343"><ele>1634.2</ele><time>2017-08-25T09:04:24Z</time></trkpt>
<trkpt lat="46.20652" lon="7.44351"><ele>1636.2</ele><time>2017-08-25T09:04:32Z</time></trkpt>
<trkpt lat="46.20665" lon="7.44363"><ele>1639.2</ele><time>2017-08-25T09:04:42Z</time></trkpt>
<trkpt lat="46.20668" lon="7.44366"><ele>1640</ele><time>2017-08-25T09:04:45Z</time></trkpt>
<trkpt lat="46.20684" lon="7.44382"><ele>1642</ele><time>2017-08-25T09:04:57Z</time></trkpt>
<trkpt lat="46.207" lon="7.44399"><ele>1645.4</ele><time>2017-08-25T09:05:09Z</time></trkpt>
<trkpt lat="46.20712" lon="7.4442"><ele>1646.6</ele><time>2017-08-25T09:05:21Z</time></trkpt>
<trkpt lat="46.20723" lon="7.44443"><ele>1647.6</ele><time>2017-08-25T09:05:33Z</time></trkpt>
<trkpt lat="46.20727" lon="7.44452"><ele>1648.6</ele><time>2017-08-25T09:05:38Z</time></trkpt>
<trkpt lat="46.20733" lon="7.44461"><ele>1649.2</ele><time>2017-08-25T09:05:44Z</time></trkpt>
<trkpt lat="46.20727" lon="7.44469"><ele>1649.6</ele><time>2017-08-25T09:05:50Z</time></trkpt>
<trkpt lat="46.20723" lon="7.44467"><ele>1650.4</ele><time>2017-08-25T09:05:53Z</time></trkpt>
<trkpt lat="46.20721" lon="7.44465"><ele>1650.8</ele><time>2017-08-25T09:05:55Z</time></trkpt>
<trkpt lat="46.20705" lon="7.4445"><ele>1653.2</ele><time>2017-08-25T09:06:07Z</time></trkpt>
<trkpt lat="46.20688" lon="7.44441"><ele>1655</ele><time>2017-08-25T09:06:19Z</time></trkpt>
<trkpt lat="46.20683" lon="7.4444"><ele>1655.6</ele><time>2017-08-25T09:06:22Z</time></trkpt>
<trkpt lat="46.20676" lon="7.44437"><ele>1656.6</ele><time>2017-08-25T09:06:27Z</time></trkpt>
<trkpt lat="46.2067" lon="7.44436"><ele>1657.2</ele><time>2017-08-25T09:06:31Z</time></trkpt>
<trkpt lat="46.20652" lon="7.44438"><ele>1658.2</ele><time>2017-08-25T09:06:42Z</time></trkpt>
<trkpt lat="46.20628" lon="7.44443"><ele>1658.2</ele><time>2017-08-25T09:06:57Z</time></trkpt>
<trkpt lat="46.20612" lon="7.44441"><ele>1658.4</ele><time>2017-08-25T09:07:07Z</time></trkpt>
<trkpt lat="46.20607" lon="7.44443"><ele>1658.2</ele><time>2017-08-25T09:07:10Z</time></trkpt>
<trkpt lat="46.20601" lon="7.44443"><ele>1658</ele><time>2017-08-25T09:07:14Z</time></trkpt>
<trkpt lat="46.20593" lon="7.44444"><ele>1657.6</ele><time>2017-08-25T09:07:19Z</time></trkpt>
<trkpt lat="46.20575" lon="7.44448"><ele>1658.8</ele><time>2017-08-25T09:07:30Z</time></trkpt>
<trkpt lat="46.20556" lon="7.44449"><ele>1660.4</ele><time>2017-08-25T09:07:42Z</time></trkpt>
<trkpt lat="46.20538" lon="7.44452"><ele>1663</ele><time>2017-08-25T09:07:53Z</time></trkpt>
<trkpt lat="46.20518" lon="7.44451"><ele>1664.8</ele><time>2017-08-25T09:08:07Z</time></trkpt>
<trkpt lat="46.20501" lon="7.44442"><ele>1667.2</ele><time>2017-08-25T09:08:17Z</time></trkpt>
<trkpt lat="46.20495" lon="7.44437"><ele>1667.2</ele><time>2017-08-25T09:08:21Z</time></trkpt>
<trkpt lat="46.20488" lon="7.44434"><ele>1667.6</ele><time>2017-08-25T09:08:26Z</time></trkpt>
<trkpt lat="46.2048" lon="7.44431"><ele>1668</ele><time>2017-08-25T09:08:31Z</time></trkpt>
<trkpt lat="46.20461" lon="7.44425"><ele>1668.8</ele><time>2017-08-25T09:08:42Z</time></trkpt>
<trkpt lat="46.20444" lon="7.44412"><ele>1671.2</ele><time>2017-08-25T09:08:54Z</time></trkpt>
<trkpt lat="46.20428" lon="7.44379"><ele>1676</ele><time>2017-08-25T09:09:10Z</time></trkpt>
<trkpt lat="46.20425" lon="7.44373"><ele>1676.6</ele><time>2017-08-25T09:09:13Z</time></trkpt>
<trkpt lat="46.2042" lon="7.44362"><ele>1678.2</ele><time>2017-08-25T09:09:19Z</time></trkpt>
<trkpt lat="46.20407" lon="7.44341"><ele>1681.6</ele><time>2017-08-25T09:09:31Z</time></trkpt>
<trkpt lat="46.20393" lon="7.44323"><ele>1684</ele><time>2017-08-25T09:09:42Z</time></trkpt>
<trkpt lat="46.20387" lon="7.44316"><ele>1685.4</ele><time>2017-08-25T09:09:47Z</time></trkpt>
<trkpt lat="46.20374" lon="7.44304"><ele>1687.2</ele><time>2017-08-25T09:09:56Z</time></trkpt>
<trkpt lat="46.20356" lon="7.44295"><ele>1689.6</ele><time>2017-08-25T09:10:07Z</time></trkpt>
<trkpt lat="46.2034" lon="7.44277"><ele>1694</ele><time>2017-08-25T09:10:19Z</time></trkpt>
<trkpt lat="46.20326" lon="7.44261"><ele>1697.2</ele><time>2017-08-25T09:10:31Z</time></trkpt>
<trkpt lat="46.20315" lon="7.44248"><ele>1698.4</ele><time>2017-08-25T09:10:39Z</time></trkpt>
<trkpt lat="46.20297" lon="7.44236"><ele>1699.8</ele><time>2017-08-25T09:10:49Z</time></trkpt>
<trkpt lat="46.2029" lon="7.44231"><ele>1700.4</ele><time>2017-08-25T09:10:53Z</time></trkpt>
<trkpt lat="46.20276" lon="7.44213"><ele>1700.2</ele><time>2017-08-25T09:11:04Z</time></trkpt>
<trkpt lat="46.20262" lon="7.44201"><ele>1700</ele><time>2017-08-25T09:11:13Z</time></trkpt>
<trkpt lat="46.20258" lon="7.44195"><ele>1698.6</ele><time>2017-08-25T09:11:16Z</time></trkpt>
<trkpt lat="46.20241" lon="7.44188"><ele>1694.6</ele><time>2017-08-25T09:11:24Z</time></trkpt>
<trkpt lat="46.20221" lon="7.44182"><ele>1691.6</ele><time>2017-08-25T09:11:30Z</time></trkpt>
<trkpt lat="46.20209" lon="7.44174"><ele>1689.6</ele><time>2017-08-25T09:11:33Z</time></trkpt>
<trkpt lat="46.20191" lon="7.4416"><ele>1687.2</ele><time>2017-08-25T09:11:37Z</time></trkpt>
<trkpt lat="46.20183" lon="7.4416"><ele>1686.4</ele><time>2017-08-25T09:11:39Z</time></trkpt>
<trkpt lat="46.20174" lon="7.4416"><ele>1685.2</ele><time>2017-08-25T09:11:41Z</time></trkpt>
<trkpt lat="46.20164" lon="7.44162"><ele>1683.8</ele><time>2017-08-25T09:11:43Z</time></trkpt>
<trkpt lat="46.20146" lon="7.44159"><ele>1680.8</ele><time>2017-08-25T09:11:47Z</time></trkpt>
<trkpt lat="46.20142" lon="7.44157"><ele>1680</ele><time>2017-08-25T09:11:48Z</time></trkpt>
<trkpt lat="46.20136" lon="7.44153"><ele>1678.6</ele><time>2017-08-25T09:11:50Z</time></trkpt>
<trkpt lat="46.20128" lon="7.44152"><ele>1677</ele><time>2017-08-25T09:11:52Z</time></trkpt>
<trkpt lat="46.2011" lon="7.44153"><ele>1674.2</ele><time>2017-08-25T09:11:56Z</time></trkpt>
<trkpt lat="46.2009" lon="7.44155"><ele>1670</ele><time>2017-08-25T09:12:00Z</time></trkpt>
<trkpt lat="46.20069" lon="7.44157"><ele>1666.2</ele><time>2017-08-25T09:12:04Z</time></trkpt>
<trkpt lat="46.20047" lon="7.44157"><ele>1665.4</ele><time>2017-08-25T09:12:08Z</time></trkpt>
<trkpt lat="46.20041" lon="7.44155"><ele>1665.6</ele><time>2017-08-25T09:12:09Z</time></trkpt>
<trkpt lat="46.20029" lon="7.4415"><ele>1663.4</ele><time>2017-08-25T09:12:11Z</time></trkpt>
<trkpt lat="46.20015" lon="7.44147"><ele>1661.8</ele><time>2017-08-25T09:12:13Z</time></trkpt>
<trkpt lat="46.2" lon="7.44149"><ele>1660.4</ele><time>2017-08-25T09:12:15Z</time></trkpt>
<trkpt lat="46.19986" lon="7.44157"><ele>1659</ele><time>2017-08-25T09:12:17Z</time></trkpt>
<trkpt lat="46.19966" lon="7.44174"><ele>1653.2</ele><time>2017-08-25T09:12:20Z</time></trkpt>
<trkpt lat="46.19953" lon="7.44192"><ele>1650.6</ele><time>2017-08-25T09:12:22Z</time></trkpt>
<trkpt lat="46.19946" lon="7.44201"><ele>1649.8</ele><time>2017-08-25T09:12:23Z</time></trkpt>
<trkpt lat="46.19929" lon="7.44219"><ele>1647.4</ele><time>2017-08-25T09:12:25Z</time></trkpt>
<trkpt lat="46.19913" lon="7.44235"><ele>1645.4</ele><time>2017-08-25T09:12:27Z</time></trkpt>
<trkpt lat="46.19898" lon="7.44252"><ele>1642.8</ele><time>2017-08-25T09:12:29Z</time></trkpt>
<trkpt lat="46.19885" lon="7.44275"><ele>1640.4</ele><time>2017-08-25T09:12:31Z</time></trkpt>
<trkpt lat="46.19874" lon="7.44301"><ele>1637</ele><time>2017-08-25T09:12:33Z</time></trkpt>
<trkpt lat="46.19862" lon="7.44326"><ele>1633.4</ele><time>2017-08-25T09:12:35Z</time></trkpt>
<trkpt lat="46.19852" lon="7.44345"><ele>1631.6</ele><time>2017-08-25T09:12:37Z</time></trkpt>
<trkpt lat="46.19833" lon="7.44363"><ele>1628.2</ele><time>2017-08-25T09:12:40Z</time></trkpt>
<trkpt lat="46.19827" lon="7.44385"><ele>1622</ele><time>2017-08-25T09:12:42Z</time></trkpt>
<trkpt lat="46.19824" lon="7.44412"><ele>1618.6</ele><time>2017-08-25T09:12:44Z</time></trkpt>
<trkpt lat="46.1982" lon="7.4444"><ele>1615.2</ele><time>2017-08-25T09:12:46Z</time></trkpt>
<trkpt lat="46.19816" lon="7.44455"><ele>1613.6</ele><time>2017-08-25T09:12:47Z</time></trkpt>
<trkpt lat="46.19808" lon="7.44483"><ele>1610.8</ele><time>2017-08-25T09:12:49Z</time></trkpt>
<trkpt lat="46.19804" lon="7.44497"><ele>1609.6</ele><time>2017-08-25T09:12:50Z</time></trkpt>
<trkpt lat="46.19802" lon="7.44526"><ele>1607.6</ele><time>2017-08-25T09:12:52Z</time></trkpt>
<trkpt lat="46.19801" lon="7.44552"><ele>1606.4</ele><time>2017-08-25T09:12:54Z</time></trkpt>
<trkpt lat="46.19803" lon="7.44577"><ele>1605.4</ele><time>2017-08-25T09:12:56Z</time></trkpt>
<trkpt lat="46.19806" lon="7.44598"><ele>1605</ele><time>2017-08-25T09:12:58Z</time></trkpt>
<trkpt lat="46.19809" lon="7.44607"><ele>1605</ele><time>2017-08-25T09:12:59Z</time></trkpt>
<trkpt lat="46.19812" lon="7.44614"><ele>1605</ele><time>2017-08-25T09:13:00Z</time></trkpt>
<trkpt lat="46.19823" lon="7.4464"><ele>1604</ele><time>2017-08-25T09:13:04Z</time></trkpt>
<trkpt lat="46.19832" lon="7.44666"><ele>1602.2</ele><time>2017-08-25T09:13:09Z</time></trkpt>
<trkpt lat="46.19834" lon="7.44671"><ele>1601.8</ele><time>2017-08-25T09:13:10Z</time></trkpt>
<trkpt lat="46.19839" lon="7.44687"><ele>1601.4</ele><time>2017-08-25T09:13:14Z</time></trkpt>
<trkpt lat="46.19842" lon="7.44712"><ele>1601.6</ele><time>2017-08-25T09:13:20Z</time></trkpt>
<trkpt lat="46.19842" lon="7.44716"><ele>1602.6</ele><time>2017-08-25T09:13:21Z</time></trkpt>
<trkpt lat="46.19842" lon="7.44725"><ele>1603.8</ele><time>2017-08-25T09:13:23Z</time></trkpt>
<trkpt lat="46.19845" lon="7.44747"><ele>1604.4</ele><time>2017-08-25T09:13:28Z</time></trkpt>
<trkpt lat="46.19845" lon="7.44757"><ele>1606.4</ele><time>2017-08-25T09:13:30Z</time></trkpt>
<trkpt lat="46.19832" lon="7.44798"><ele>1617</ele><time>2017-08-25T09:13:38Z</time></trkpt>
<trkpt lat="46.19824" lon="7.44813"><ele>1620</ele><time>2017-08-25T09:13:41Z</time></trkpt>
<trkpt lat="46.19812" lon="7.44834"><ele>1621.6</ele><time>2017-08-25T09:13:45Z</time></trkpt>
<trkpt lat="46.19802" lon="7.44857"><ele>1623.4</ele><time>2017-08-25T09:13:49Z</time></trkpt>
<trkpt lat="46.19792" lon="7.44882"><ele>1625.2</ele><time>2017-08-25T09:13:53Z</time></trkpt>
<trkpt lat="46.1979" lon="7.44888"><ele>1626.4</ele><time>2017-08-25T09:13:54Z</time></trkpt>
<trkpt lat="46.19785" lon="7.44901"><ele>1627.4</ele><time>2017-08-25T09:13:56Z</time></trkpt>
<trkpt lat="46.1978" lon="7.44914"><ele>1628</ele><time>2017-08-25T09:13:58Z</time></trkpt>
<trkpt lat="46.19772" lon="7.44931"><ele>1623.4</ele><time>2017-08-25T09:14:01Z</time></trkpt>
<trkpt lat="46.19766" lon="7.44941"><ele>1622.4</ele><time>2017-08-25T09:14:03Z</time></trkpt>
<trkpt lat="46.1975" lon="7.44959"><ele>1622.8</ele><time>2017-08-25T09:14:08Z</time></trkpt>
<trkpt lat="46.1972" lon="7.44979"><ele>1623.2</ele><time>2017-08-25T09:14:20Z</time></trkpt>
<trkpt lat="46.19712" lon="7.44983"><ele>1622.8</ele><time>2017-08-25T09:14:23Z</time></trkpt>
<trkpt lat="46.19702" lon="7.44992"><ele>1622.8</ele><time>2017-08-25T09:14:28Z</time></trkpt>
<trkpt lat="46.197" lon="7.44995"><ele>1622.8</ele><time>2017-08-25T09:14:30Z</time></trkpt>
<trkpt lat="46.1969" lon="7.45005"><ele>1623.4</ele><time>2017-08-25T09:14:35Z</time></trkpt>
<trkpt lat="46.19676" lon="7.45022"><ele>1629</ele><time>2017-08-25T09:14:43Z</time></trkpt>
<trkpt lat="46.19664" lon="7.45046"><ele>1626.6</ele><time>2017-08-25T09:14:51Z</time></trkpt>
<trkpt lat="46.19656" lon="7.45069"><ele>1625.6</ele><time>2017-08-25T09:14:58Z</time></trkpt>
<trkpt lat="46.19648" lon="7.45097"><ele>1627.2</ele><time>2017-08-25T09:15:06Z</time></trkpt>
<trkpt lat="46.19639" lon="7.45132"><ele>1629.2</ele><time>2017-08-25T09:15:16Z</time></trkpt>
<trkpt lat="46.19632" lon="7.45158"><ele>1630.2</ele><time>2017-08-25T09:15:23Z</time></trkpt>
<trkpt lat="46.19626" lon="7.45183"><ele>1629.4</ele><time>2017-08-25T09:15:30Z</time></trkpt>
<trkpt lat="46.19624" lon="7.45193"><ele>1628</ele><time>2017-08-25T09:15:33Z</time></trkpt>
<trkpt lat="46.19616" lon="7.4522"><ele>1627.4</ele><time>2017-08-25T09:15:40Z</time></trkpt>
<trkpt lat="46.1961" lon="7.45248"><ele>1628.4</ele><time>2017-08-25T09:15:47Z</time></trkpt>
<trkpt lat="46.19606" lon="7.45277"><ele>1631</ele><time>2017-08-25T09:15:54Z</time></trkpt>
<trkpt lat="46.19603" lon="7.45304"><ele>1631.8</ele><time>2017-08-25T09:16:01Z</time></trkpt>
<trkpt lat="46.19602" lon="7.4533"><ele>1630.4</ele><time>2017-08-25T09:16:08Z</time></trkpt>
<trkpt lat="46.19601" lon="7.45377"><ele>1635</ele><time>2017-08-25T09:16:19Z</time></trkpt>
<trkpt lat="46.19604" lon="7.45399"><ele>1636</ele><time>2017-08-25T09:16:24Z</time></trkpt>
<trkpt lat="46.19606" lon="7.45414"><ele>1636.2</ele><time>2017-08-25T09:16:27Z</time></trkpt>
<trkpt lat="46.19613" lon="7.45442"><ele>1635.2</ele><time>2017-08-25T09:16:33Z</time></trkpt>
<trkpt lat="46.19618" lon="7.45472"><ele>1632.2</ele><time>2017-08-25T09:16:39Z</time></trkpt>
<trkpt lat="46.19625" lon="7.455"><ele>1629.6</ele><time>2017-08-25T09:16:45Z</time></trkpt>
<trkpt lat="46.19627" lon="7.45527"><ele>1629.2</ele><time>2017-08-25T09:16:50Z</time></trkpt>
<trkpt lat="46.19625" lon="7.45554"><ele>1628.8</ele><time>2017-08-25T09:16:55Z</time></trkpt>
<trkpt lat="46.19621" lon="7.45583"><ele>1631.6</ele><time>2017-08-25T09:17:00Z</time></trkpt>
<trkpt lat="46.19619" lon="7.4561"><ele>1634</ele><time>2017-08-25T09:17:05Z</time></trkpt>
<trkpt lat="46.19615" lon="7.45626"><ele>1635.4</ele><time>2017-08-25T09:17:08Z</time></trkpt>
<trkpt lat="46.19609" lon="7.45652"><ele>1635.4</ele><time>2017-08-25T09:17:13Z</time></trkpt>
<trkpt lat="46.19609" lon="7.45674"><ele>1636.6</ele><time>2017-08-25T09:17:17Z</time></trkpt>
<trkpt lat="46.19612" lon="7.45702"><ele>1637.4</ele><time>2017-08-25T09:17:22Z</time></trkpt>
<trkpt lat="46.19614" lon="7.45707"><ele>1638.8</ele><time>2017-08-25T09:17:23Z</time></trkpt>
<trkpt lat="46.19621" lon="7.45732"><ele>1643</ele><time>2017-08-25T09:17:28Z</time></trkpt>
<trkpt lat="46.19624" lon="7.45758"><ele>1643.6</ele><time>2017-08-25T09:17:33Z</time></trkpt>
<trkpt lat="46.19629" lon="7.45799"><ele>1654.4</ele><time>2017-08-25T09:17:44Z</time></trkpt>
<trkpt lat="46.19637" lon="7.45823"><ele>1664.4</ele><time>2017-08-25T09:17:53Z</time></trkpt>
<trkpt lat="46.19645" lon="7.45847"><ele>1669.6</ele><time>2017-08-25T09:18:02Z</time></trkpt>
<trkpt lat="46.19643" lon="7.45863"><ele>1671.4</ele><time>2017-08-25T09:18:07Z</time></trkpt>
<trkpt lat="46.1964" lon="7.4589"><ele>1673.4</ele><time>2017-08-25T09:18:15Z</time></trkpt>
<trkpt lat="46.19643" lon="7.45918"><ele>1677.8</ele><time>2017-08-25T09:18:23Z</time></trkpt>
<trkpt lat="46.19647" lon="7.45946"><ele>1679.2</ele><time>2017-08-25T09:18:31Z</time></trkpt>
<trkpt lat="46.1965" lon="7.45974"><ele>1680.4</ele><time>2017-08-25T09:18:39Z</time></trkpt>
<trkpt lat="46.19654" lon="7.46012"><ele>1683</ele><time>2017-08-25T09:18:50Z</time></trkpt>
<trkpt lat="46.19655" lon="7.46041"><ele>1685</ele><time>2017-08-25T09:18:59Z</time></trkpt>
<trkpt lat="46.19658" lon="7.46059"><ele>1685.8</ele><time>2017-08-25T09:19:05Z</time></trkpt>
<trkpt lat="46.19665" lon="7.46086"><ele>1686.4</ele><time>2017-08-25T09:19:14Z</time></trkpt>
<trkpt lat="46.19669" lon="7.46111"><ele>1688.8</ele><time>2017-08-25T09:19:22Z</time></trkpt>
<trkpt lat="46.19673" lon="7.46137"><ele>1688.8</ele><time>2017-08-25T09:19:30Z</time></trkpt>
<trkpt lat="46.19672" lon="7.4616"><ele>1690.6</ele><time>2017-08-25T09:19:37Z</time></trkpt>
<trkpt lat="46.19671" lon="7.46186"><ele>1692.2</ele><time>2017-08-25T09:19:45Z</time></trkpt>
<trkpt lat="46.19669" lon="7.46212"><ele>1694</ele><time>2017-08-25T09:19:54Z</time></trkpt>
<trkpt lat="46.19669" lon="7.46239"><ele>1696.8</ele><time>2017-08-25T09:20:04Z</time></trkpt>
<trkpt lat="46.19665" lon="7.46265"><ele>1695.8</ele><time>2017-08-25T09:20:13Z</time></trkpt>
<trkpt lat="46.19655" lon="7.46289"><ele>1696</ele><time>2017-08-25T09:20:23Z</time></trkpt>
<trkpt lat="46.19645" lon="7.46303"><ele>1694.6</ele><time>2017-08-25T09:20:30Z</time></trkpt>
<trkpt lat="46.19632" lon="7.46322"><ele>1691.6</ele><time>2017-08-25T09:20:40Z</time></trkpt>
<trkpt lat="46.19618" lon="7.46341"><ele>1692.4</ele><time>2017-08-25T09:20:49Z</time></trkpt>
<trkpt lat="46.19614" lon="7.46349"><ele>1692.4</ele><time>2017-08-25T09:20:53Z</time></trkpt>
<trkpt lat="46.19609" lon="7.46369"><ele>1689.6</ele><time>2017-08-25T09:21:02Z</time></trkpt>
<trkpt lat="46.19603" lon="7.46398"><ele>1688</ele><time>2017-08-25T09:21:15Z</time></trkpt>
<trkpt lat="46.19599" lon="7.46425"><ele>1688.4</ele><time>2017-08-25T09:21:27Z</time></trkpt>
<trkpt lat="46.19587" lon="7.46443"><ele>1689.2</ele><time>2017-08-25T09:21:38Z</time></trkpt>
<trkpt lat="46.19572" lon="7.46427"><ele>1690</ele><time>2017-08-25T09:21:48Z</time></trkpt>
<trkpt lat="46.19562" lon="7.46403"><ele>1691.6</ele><time>2017-08-25T09:21:57Z</time></trkpt>
<trkpt lat="46.19551" lon="7.4638"><ele>1694</ele><time>2017-08-25T09:22:06Z</time></trkpt>
<trkpt lat="46.19538" lon="7.46361"><ele>1696</ele><time>2017-08-25T09:22:14Z</time></trkpt>
<trkpt lat="46.19524" lon="7.46344"><ele>1698.2</ele><time>2017-08-25T09:22:22Z</time></trkpt>
<trkpt lat="46.19508" lon="7.46325"><ele>1702.2</ele><time>2017-08-25T09:22:31Z</time></trkpt>
<trkpt lat="46.19494" lon="7.46304"><ele>1707.8</ele><time>2017-08-25T09:22:40Z</time></trkpt>
<trkpt lat="46.19478" lon="7.46292"><ele>1706.2</ele><time>2017-08-25T09:22:48Z</time></trkpt>
<trkpt lat="46.1946" lon="7.46287"><ele>1706.4</ele><time>2017-08-25T09:22:56Z</time></trkpt>
<trkpt lat="46.19443" lon="7.46283"><ele>1707</ele><time>2017-08-25T09:23:04Z</time></trkpt>
<trkpt lat="46.19425" lon="7.46275"><ele>1706.6</ele><time>2017-08-25T09:23:13Z</time></trkpt>
<trkpt lat="46.19405" lon="7.46263"><ele>1706.6</ele><time>2017-08-25T09:23:23Z</time></trkpt>
<trkpt lat="46.19387" lon="7.4625"><ele>1707</ele><time>2017-08-25T09:23:32Z</time></trkpt>
<trkpt lat="46.19373" lon="7.46231"><ele>1712</ele><time>2017-08-25T09:23:40Z</time></trkpt>
<trkpt lat="46.19358" lon="7.46217"><ele>1712.2</ele><time>2017-08-25T09:23:48Z</time></trkpt>
<trkpt lat="46.19341" lon="7.46207"><ele>1711</ele><time>2017-08-25T09:23:56Z</time></trkpt>
<trkpt lat="46.1933" lon="7.46202"><ele>1709.8</ele><time>2017-08-25T09:24:01Z</time></trkpt>
<trkpt lat="46.19313" lon="7.46187"><ele>1709.8</ele><time>2017-08-25T09:24:12Z</time></trkpt>
<trkpt lat="46.19298" lon="7.4617"><ele>1711</ele><time>2017-08-25T09:24:21Z</time></trkpt>
<trkpt lat="46.19281" lon="7.46156"><ele>1711.8</ele><time>2017-08-25T09:24:30Z</time></trkpt>
<trkpt lat="46.19264" lon="7.46152"><ele>1716.2</ele><time>2017-08-25T09:24:39Z</time></trkpt>
<trkpt lat="46.19244" lon="7.46159"><ele>1723</ele><time>2017-08-25T09:24:49Z</time></trkpt>
<trkpt lat="46.19233" lon="7.46183"><ele>1720.4</ele><time>2017-08-25T09:24:58Z</time></trkpt>
<trkpt lat="46.19214" lon="7.46218"><ele>1719.8</ele><time>2017-08-25T09:25:13Z</time></trkpt>
<trkpt lat="46.192" lon="7.46234"><ele>1723</ele><time>2017-08-25T09:25:22Z</time></trkpt>
<trkpt lat="46.19187" lon="7.46249"><ele>1725.6</ele><time>2017-08-25T09:25:30Z</time></trkpt>
<trkpt lat="46.19172" lon="7.46266"><ele>1724.6</ele><time>2017-08-25T09:25:38Z</time></trkpt>
<trkpt lat="46.19161" lon="7.46287"><ele>1717.4</ele><time>2017-08-25T09:25:46Z</time></trkpt>
<trkpt lat="46.19151" lon="7.46312"><ele>1710.8</ele><time>2017-08-25T09:25:54Z</time></trkpt>
<trkpt lat="46.1914" lon="7.46336"><ele>1709</ele><time>2017-08-25T09:26:02Z</time></trkpt>
<trkpt lat="46.19128" lon="7.46354"><ele>1709</ele><time>2017-08-25T09:26:10Z</time></trkpt>
<trkpt lat="46.1912" lon="7.46352"><ele>1709.4</ele><time>2017-08-25T09:26:13Z</time></trkpt>
<trkpt lat="46.19108" lon="7.46332"><ele>1709.6</ele><time>2017-08-25T09:26:23Z</time></trkpt>
<trkpt lat="46.19103" lon="7.46321"><ele>1709.2</ele><time>2017-08-25T09:26:28Z</time></trkpt>
<trkpt lat="46.19095" lon="7.46307"><ele>1708.8</ele><time>2017-08-25T09:26:34Z</time></trkpt>
<trkpt lat="46.19082" lon="7.46286"><ele>1710</ele><time>2017-08-25T09:26:43Z</time></trkpt>
<trkpt lat="46.19066" lon="7.46275"><ele>1712.4</ele><time>2017-08-25T09:26:50Z</time></trkpt>
<trkpt lat="46.19054" lon="7.46238"><ele>1718.8</ele><time>2017-08-25T09:27:02Z</time></trkpt>
<trkpt lat="46.19045" lon="7.46216"><ele>1720.6</ele><time>2017-08-25T09:27:09Z</time></trkpt>
<trkpt lat="46.19031" lon="7.46196"><ele>1721.2</ele><time>2017-08-25T09:27:16Z</time></trkpt>
<trkpt lat="46.19017" lon="7.46179"><ele>1722</ele><time>2017-08-25T09:27:23Z</time></trkpt>
<trkpt lat="46.19001" lon="7.46165"><ele>1724</ele><time>2017-08-25T09:27:30Z</time></trkpt>
<trkpt lat="46.18982" lon="7.46159"><ele>1726.4</ele><time>2017-08-25T09:27:38Z</time></trkpt>
<trkpt lat="46.18962" lon="7.46134"><ele>1729.6</ele><time>2017-08-25T09:27:49Z</time></trkpt>
<trkpt lat="46.18953" lon="7.46109"><ele>1734.4</ele><time>2017-08-25T09:27:57Z</time></trkpt>
<trkpt lat="46.18943" lon="7.46085"><ele>1735.4</ele><time>2017-08-25T09:28:04Z</time></trkpt>
<trkpt lat="46.18936" lon="7.46057"><ele>1736.2</ele><time>2017-08-25T09:28:11Z</time></trkpt>
<trkpt lat="46.18925" lon="7.46033"><ele>1738.8</ele><time>2017-08-25T09:28:18Z</time></trkpt>
<trkpt lat="46.18916" lon="7.46009"><ele>1743</ele><time>2017-08-25T09:28:25Z</time></trkpt>
<trkpt lat="46.18906" lon="7.45986"><ele>1747.8</ele><time>2017-08-25T09:28:32Z</time></trkpt>
<trkpt lat="46.18895" lon="7.45966"><ele>1746.8</ele><time>2017-08-25T09:28:39Z</time></trkpt>
<trkpt lat="46.18874" lon="7.4595"><ele>1741.4</ele><time>2017-08-25T09:28:48Z</time></trkpt>
<trkpt lat="46.18868" lon="7.45948"><ele>1740</ele><time>2017-08-25T09:28:51Z</time></trkpt>
<trkpt lat="46.18858" lon="7.45923"><ele>1741.4</ele><time>2017-08-25T09:28:59Z</time></trkpt>
<trkpt lat="46.18854" lon="7.45911"><ele>1741.6</ele><time>2017-08-25T09:29:01Z</time></trkpt>
<trkpt lat="46.18848" lon="7.45899"><ele>1740.8</ele><time>2017-08-25T09:29:03Z</time></trkpt>
<trkpt lat="46.1884" lon="7.4589"><ele>1739.8</ele><time>2017-08-25T09:29:05Z</time></trkpt>
<trkpt lat="46.1883" lon="7.45889"><ele>1739.6</ele><time>2017-08-25T09:29:07Z</time></trkpt>
<trkpt lat="46.18812" lon="7.45891"><ele>1738.8</ele><time>2017-08-25T09:29:10Z</time></trkpt>
<trkpt lat="46.18791" lon="7.45891"><ele>1737.8</ele><time>2017-08-25T09:29:13Z</time></trkpt>
<trkpt lat="46.18777" lon="7.45893"><ele>1737.6</ele><time>2017-08-25T09:29:15Z</time></trkpt>
<trkpt lat="46.18755" lon="7.45901"><ele>1736.4</ele><time>2017-08-25T09:29:18Z</time></trkpt>
<trkpt lat="46.18747" lon="7.45903"><ele>1736.2</ele><time>2017-08-25T09:29:19Z</time></trkpt>
<trkpt lat="46.18726" lon="7.45903"><ele>1733</ele><time>2017-08-25T09:29:23Z</time></trkpt>
<trkpt lat="46.18719" lon="7.459"><ele>1732.4</ele><time>2017-08-25T09:29:25Z</time></trkpt>
<trkpt lat="46.18701" lon="7.45893"><ele>1729.6</ele><time>2017-08-25T09:29:30Z</time></trkpt>
<trkpt lat="46.18674" lon="7.45875"><ele>1728.4</ele><time>2017-08-25T09:29:38Z</time></trkpt>
<trkpt lat="46.18653" lon="7.45871"><ele>1726.4</ele><time>2017-08-25T09:29:42Z</time></trkpt>
<trkpt lat="46.18635" lon="7.45866"><ele>1724</ele><time>2017-08-25T09:29:45Z</time></trkpt>
<trkpt lat="46.1862" lon="7.45849"><ele>1722.8</ele><time>2017-08-25T09:29:48Z</time></trkpt>
<trkpt lat="46.18617" lon="7.45831"><ele>1722.4</ele><time>2017-08-25T09:29:50Z</time></trkpt>
<trkpt lat="46.18617" lon="7.45811"><ele>1722</ele><time>2017-08-25T09:29:52Z</time></trkpt>
<trkpt lat="46.18616" lon="7.45791"><ele>1720.6</ele><time>2017-08-25T09:29:54Z</time></trkpt>
<trkpt lat="46.18611" lon="7.45756"><ele>1718.6</ele><time>2017-08-25T09:29:57Z</time></trkpt>
<trkpt lat="46.18611" lon="7.45732"><ele>1716.4</ele><time>2017-08-25T09:29:59Z</time></trkpt>
<trkpt lat="46.18621" lon="7.45696"><ele>1713.8</ele><time>2017-08-25T09:30:02Z</time></trkpt>
<trkpt lat="46.18628" lon="7.45661"><ele>1712.4</ele><time>2017-08-25T09:30:05Z</time></trkpt>
<trkpt lat="46.18627" lon="7.45629"><ele>1711.4</ele><time>2017-08-25T09:30:08Z</time></trkpt>
<trkpt lat="46.18619" lon="7.45602"><ele>1710</ele><time>2017-08-25T09:30:11Z</time></trkpt>
<trkpt lat="46.18613" lon="7.45586"><ele>1709</ele><time>2017-08-25T09:30:13Z</time></trkpt>
<trkpt lat="46.18605" lon="7.45561"><ele>1707.6</ele><time>2017-08-25T09:30:16Z</time></trkpt>
<trkpt lat="46.18604" lon="7.45552"><ele>1707.2</ele><time>2017-08-25T09:30:17Z</time></trkpt>
<trkpt lat="46.18601" lon="7.45536"><ele>1706.4</ele><time>2017-08-25T09:30:19Z</time></trkpt>
<trkpt lat="46.18598" lon="7.45529"><ele>1706.2</ele><time>2017-08-25T09:30:20Z</time></trkpt>
<trkpt lat="46.18593" lon="7.45516"><ele>1706.2</ele><time>2017-08-25T09:30:22Z</time></trkpt>
<trkpt lat="46.18589" lon="7.45504"><ele>1706</ele><time>2017-08-25T09:30:24Z</time></trkpt>
<trkpt lat="46.18588" lon="7.45497"><ele>1705.8</ele><time>2017-08-25T09:30:25Z</time></trkpt>
<trkpt lat="46.18586" lon="7.4547"><ele>1705.2</ele><time>2017-08-25T09:30:29Z</time></trkpt>
<trkpt lat="46.18586" lon="7.4545"><ele>1704.2</ele><time>2017-08-25T09:30:32Z</time></trkpt>
<trkpt lat="46.18587" lon="7.45419"><ele>1704</ele><time>2017-08-25T09:30:37Z</time></trkpt>
<trkpt lat="46.18587" lon="7.45393"><ele>1704.2</ele><time>2017-08-25T09:30:42Z</time></trkpt>
<trkpt lat="46.18585" lon="7.45384"><ele>1704.4</ele><time>2017-08-25T09:30:44Z</time></trkpt>
<trkpt lat="46.18576" lon="7.45346"><ele>1705.4</ele><time>2017-08-25T09:30:52Z</time></trkpt>
<trkpt lat="46.18575" lon="7.4532"><ele>1706.4</ele><time>2017-08-25T09:30:57Z</time></trkpt>
<trkpt lat="46.18575" lon="7.4531"><ele>1706.8</ele><time>2017-08-25T09:30:59Z</time></trkpt>
<trkpt lat="46.18576" lon="7.45292"><ele>1708.4</ele><time>2017-08-25T09:31:03Z</time></trkpt>
<trkpt lat="46.18575" lon="7.45269"><ele>1709.4</ele><time>2017-08-25T09:31:08Z</time></trkpt>
<trkpt lat="46.18566" lon="7.45243"><ele>1711.6</ele><time>2017-08-25T09:31:14Z</time></trkpt>
<trkpt lat="46.18554" lon="7.45221"><ele>1715.4</ele><time>2017-08-25T09:31:19Z</time></trkpt>
<trkpt lat="46.18542" lon="7.45201"><ele>1719.2</ele><time>2017-08-25T09:31:24Z</time></trkpt>
<trkpt lat="46.18535" lon="7.45175"><ele>1724.8</ele><time>2017-08-25T09:31:30Z</time></trkpt>
<trkpt lat="46.1853" lon="7.45147"><ele>1731.6</ele><time>2017-08-25T09:31:37Z</time></trkpt>
<trkpt lat="46.18523" lon="7.45121"><ele>1732.6</ele><time>2017-08-25T09:31:44Z</time></trkpt>
<trkpt lat="46.18514" lon="7.45091"><ele>1734.4</ele><time>2017-08-25T09:31:52Z</time></trkpt>
<trkpt lat="46.18506" lon="7.45067"><ele>1737.6</ele><time>2017-08-25T09:31:58Z</time></trkpt>
<trkpt lat="46.18493" lon="7.45048"><ele>1736.6</ele><time>2017-08-25T09:32:04Z</time></trkpt>
<trkpt lat="46.18476" lon="7.45033"><ele>1733.4</ele><time>2017-08-25T09:32:10Z</time></trkpt>
<trkpt lat="46.1846" lon="7.45018"><ele>1732</ele><time>2017-08-25T09:32:15Z</time></trkpt>
<trkpt lat="46.18446" lon="7.45"><ele>1731.8</ele><time>2017-08-25T09:32:20Z</time></trkpt>
<trkpt lat="46.18434" lon="7.44976"><ele>1731.2</ele><time>2017-08-25T09:32:26Z</time></trkpt>
<trkpt lat="46.1842" lon="7.44954"><ele>1731.4</ele><time>2017-08-25T09:32:32Z</time></trkpt>
<trkpt lat="46.18404" lon="7.44938"><ele>1729.4</ele><time>2017-08-25T09:32:38Z</time></trkpt>
<trkpt lat="46.18389" lon="7.44916"><ele>1730.8</ele><time>2017-08-25T09:32:44Z</time></trkpt>
<trkpt lat="46.18367" lon="7.44896"><ele>1731.8</ele><time>2017-08-25T09:32:52Z</time></trkpt>
<trkpt lat="46.18347" lon="7.44887"><ele>1731.6</ele><time>2017-08-25T09:32:58Z</time></trkpt>
<trkpt lat="46.18328" lon="7.44876"><ele>1731</ele><time>2017-08-25T09:33:04Z</time></trkpt>
<trkpt lat="46.18314" lon="7.44859"><ele>1729.6</ele><time>2017-08-25T09:33:09Z</time></trkpt>
<trkpt lat="46.18308" lon="7.4483"><ele>1730.4</ele><time>2017-08-25T09:33:15Z</time></trkpt>
<trkpt lat="46.18298" lon="7.44805"><ele>1733</ele><time>2017-08-25T09:33:21Z</time></trkpt>
<trkpt lat="46.18282" lon="7.44785"><ele>1732.2</ele><time>2017-08-25T09:33:27Z</time></trkpt>
<trkpt lat="46.18263" lon="7.44774"><ele>1732.4</ele><time>2017-08-25T09:33:33Z</time></trkpt>
<trkpt lat="46.18253" lon="7.44769"><ele>1731.8</ele><time>2017-08-25T09:33:36Z</time></trkpt>
<trkpt lat="46.18227" lon="7.44758"><ele>1731.2</ele><time>2017-08-25T09:33:44Z</time></trkpt>
<trkpt lat="46.18207" lon="7.44753"><ele>1732.4</ele><time>2017-08-25T09:33:51Z</time></trkpt>
<trkpt lat="46.18189" lon="7.44755"><ele>1731.8</ele><time>2017-08-25T09:33:57Z</time></trkpt>
<trkpt lat="46.1818" lon="7.44754"><ele>1731.6</ele><time>2017-08-25T09:34:00Z</time></trkpt>
<trkpt lat="46.1816" lon="7.44753"><ele>1732.6</ele><time>2017-08-25T09:34:06Z</time></trkpt>
<trkpt lat="46.18141" lon="7.44752"><ele>1734.2</ele><time>2017-08-25T09:34:12Z</time></trkpt>
<trkpt lat="46.18121" lon="7.44751"><ele>1738.6</ele><time>2017-08-25T09:34:19Z</time></trkpt>
<trkpt lat="46.18103" lon="7.4476"><ele>1740.2</ele><time>2017-08-25T09:34:25Z</time></trkpt>
<trkpt lat="46.18089" lon="7.44779"><ele>1740.6</ele><time>2017-08-25T09:34:30Z</time></trkpt>
<trkpt lat="46.18067" lon="7.44797"><ele>1742</ele><time>2017-08-25T09:34:39Z</time></trkpt>
<trkpt lat="46.18047" lon="7.44808"><ele>1743.6</ele><time>2017-08-25T09:34:46Z</time></trkpt>
<trkpt lat="46.1803" lon="7.44818"><ele>1745.2</ele><time>2017-08-25T09:34:52Z</time></trkpt>
<trkpt lat="46.18013" lon="7.44826"><ele>1746.8</ele><time>2017-08-25T09:34:59Z</time></trkpt>
<trkpt lat="46.17993" lon="7.44837"><ele>1749.6</ele><time>2017-08-25T09:35:06Z</time></trkpt>
<trkpt lat="46.17978" lon="7.44857"><ele>1748</ele><time>2017-08-25T09:35:12Z</time></trkpt>
<trkpt lat="46.17965" lon="7.44875"><ele>1746</ele><time>2017-08-25T09:35:17Z</time></trkpt>
<trkpt lat="46.17945" lon="7.44884"><ele>1744.8</ele><time>2017-08-25T09:35:22Z</time></trkpt>
<trkpt lat="46.17923" lon="7.44889"><ele>1743.2</ele><time>2017-08-25T09:35:27Z</time></trkpt>
<trkpt lat="46.17904" lon="7.44892"><ele>1743.2</ele><time>2017-08-25T09:35:31Z</time></trkpt>
<trkpt lat="46.17889" lon="7.44895"><ele>1743</ele><time>2017-08-25T09:35:34Z</time></trkpt>
<trkpt lat="46.17867" lon="7.44898"><ele>1742.8</ele><time>2017-08-25T09:35:38Z</time></trkpt>
<trkpt lat="46.17856" lon="7.44902"><ele>1744</ele><time>2017-08-25T09:35:40Z</time></trkpt>
<trkpt lat="46.17851" lon="7.44906"><ele>1744.8</ele><time>2017-08-25T09:35:41Z</time></trkpt>
<trkpt lat="46.17839" lon="7.44922"><ele>1745</ele><time>2017-08-25T09:35:44Z</time></trkpt>
<trkpt lat="46.17835" lon="7.44928"><ele>1744.6</ele><time>2017-08-25T09:35:45Z</time></trkpt>
<trkpt lat="46.17828" lon="7.44941"><ele>1743.6</ele><time>2017-08-25T09:35:47Z</time></trkpt>
<trkpt lat="46.1782" lon="7.44954"><ele>1743.2</ele><time>2017-08-25T09:35:49Z</time></trkpt>
<trkpt lat="46.17815" lon="7.4496"><ele>1743</ele><time>2017-08-25T09:35:50Z</time></trkpt>
<trkpt lat="46.17806" lon="7.44972"><ele>1742.4</ele><time>2017-08-25T09:35:52Z</time></trkpt>
<trkpt lat="46.1779" lon="7.44987"><ele>1741.8</ele><time>2017-08-25T09:35:55Z</time></trkpt>
<trkpt lat="46.17773" lon="7.45"><ele>1740.6</ele><time>2017-08-25T09:35:58Z</time></trkpt>
<trkpt lat="46.17761" lon="7.45006"><ele>1739.6</ele><time>2017-08-25T09:36:00Z</time></trkpt>
<trkpt lat="46.17749" lon="7.45011"><ele>1738.6</ele><time>2017-08-25T09:36:02Z</time></trkpt>
<trkpt lat="46.1773" lon="7.45016"><ele>1737.4</ele><time>2017-08-25T09:36:05Z</time></trkpt>
<trkpt lat="46.17712" lon="7.45022"><ele>1735.8</ele><time>2017-08-25T09:36:08Z</time></trkpt>
<trkpt lat="46.17694" lon="7.4503"><ele>1734.4</ele><time>2017-08-25T09:36:11Z</time></trkpt>
<trkpt lat="46.17676" lon="7.45037"><ele>1733.4</ele><time>2017-08-25T09:36:14Z</time></trkpt>
<trkpt lat="46.1767" lon="7.45041"><ele>1733.4</ele><time>2017-08-25T09:36:15Z</time></trkpt>
<trkpt lat="46.17653" lon="7.45056"><ele>1732.6</ele><time>2017-08-25T09:36:18Z</time></trkpt>
<trkpt lat="46.17642" lon="7.45068"><ele>1731.8</ele><time>2017-08-25T09:36:20Z</time></trkpt>
<trkpt lat="46.17626" lon="7.45088"><ele>1730.6</ele><time>2017-08-25T09:36:23Z</time></trkpt>
<trkpt lat="46.17609" lon="7.45107"><ele>1728.4</ele><time>2017-08-25T09:36:26Z</time></trkpt>
<trkpt lat="46.17593" lon="7.45127"><ele>1726.4</ele><time>2017-08-25T09:36:29Z</time></trkpt>
<trkpt lat="46.17577" lon="7.45146"><ele>1725.4</ele><time>2017-08-25T09:36:32Z</time></trkpt>
<trkpt lat="46.17561" lon="7.45166"><ele>1725</ele><time>2017-08-25T09:36:35Z</time></trkpt>
<trkpt lat="46.17547" lon="7.45189"><ele>1724.4</ele><time>2017-08-25T09:36:38Z</time></trkpt>
<trkpt lat="46.17535" lon="7.45211"><ele>1724.4</ele><time>2017-08-25T09:36:41Z</time></trkpt>
<trkpt lat="46.17531" lon="7.45218"><ele>1724.4</ele><time>2017-08-25T09:36:42Z</time></trkpt>
<trkpt lat="46.17519" lon="7.45236"><ele>1725</ele><time>2017-08-25T09:36:45Z</time></trkpt>
<trkpt lat="46.17515" lon="7.45242"><ele>1725.6</ele><time>2017-08-25T09:36:46Z</time></trkpt>
<trkpt lat="46.17501" lon="7.45262"><ele>1726.4</ele><time>2017-08-25T09:36:50Z</time></trkpt>
<trkpt lat="46.17491" lon="7.45273"><ele>1727</ele><time>2017-08-25T09:36:54Z</time></trkpt>
<trkpt lat="46.17485" lon="7.45281"><ele>1727</ele><time>2017-08-25T09:36:59Z</time></trkpt>
<trkpt lat="46.17483" lon="7.45288"><ele>1726.6</ele><time>2017-08-25T09:37:03Z</time></trkpt>
<trkpt lat="46.17477" lon="7.45298"><ele>1727</ele><time>2017-08-25T09:37:09Z</time></trkpt>
<trkpt lat="46.17476" lon="7.453"><ele>1727</ele><time>2017-08-25T09:37:10Z</time></trkpt>
<trkpt lat="46.17472" lon="7.4531"><ele>1727.6</ele><time>2017-08-25T09:37:16Z</time></trkpt>
<trkpt lat="46.1747" lon="7.45313"><ele>1727.8</ele><time>2017-08-25T09:37:18Z</time></trkpt>
<trkpt lat="46.17469" lon="7.45314"><ele>1727.8</ele><time>2017-08-25T09:37:19Z</time></trkpt>
<trkpt lat="46.17459" lon="7.45322"><ele>1729.8</ele><time>2017-08-25T09:37:29Z</time></trkpt>
<trkpt lat="46.17459" lon="7.45323"><ele>1730</ele><time>2017-08-25T09:37:30Z</time></trkpt>
<trkpt lat="46.17458" lon="7.45324"><ele>1730</ele><time>2017-08-25T09:37:31Z</time></trkpt>
<trkpt lat="46.17457" lon="7.45325"><ele>1730.4</ele><time>2017-08-25T09:37:32Z</time></trkpt>
<trkpt lat="46.17455" lon="7.45333"><ele>1732.6</ele><time>2017-08-25T09:37:38Z</time></trkpt>
<trkpt lat="46.17454" lon="7.45335"><ele>1732.6</ele><time>2017-08-25T09:37:39Z</time></trkpt>
<trkpt lat="46.17451" lon="7.45339"><ele>1733.4</ele><time>2017-08-25T09:37:43Z</time></trkpt>
<trkpt lat="46.17449" lon="7.45341"><ele>1733.6</ele><time>2017-08-25T09:37:45Z</time></trkpt>
<trkpt lat="46.17448" lon="7.45345"><ele>1733.6</ele><time>2017-08-25T09:37:47Z</time></trkpt>
<trkpt lat="46.17447" lon="7.45347"><ele>1733.6</ele><time>2017-08-25T09:37:48Z</time></trkpt>
<trkpt lat="46.17439" lon="7.45358"><ele>1734</ele><time>2017-08-25T09:37:57Z</time></trkpt>
<trkpt lat="46.17433" lon="7.4537"><ele>1735</ele><time>2017-08-25T09:38:05Z</time></trkpt>
<trkpt lat="46.1743" lon="7.4538"><ele>1735.6</ele><time>2017-08-25T09:38:11Z</time></trkpt>
<trkpt lat="46.17416" lon="7.45397"><ele>1737.8</ele><time>2017-08-25T09:38:25Z</time></trkpt>
<trkpt lat="46.17405" lon="7.4542"><ele>1740.4</ele><time>2017-08-25T09:38:36Z</time></trkpt>
<trkpt lat="46.17396" lon="7.45443"><ele>1744</ele><time>2017-08-25T09:38:47Z</time></trkpt>
<trkpt lat="46.17395" lon="7.45447"><ele>1744.4</ele><time>2017-08-25T09:38:49Z</time></trkpt>
<trkpt lat="46.17383" lon="7.45478"><ele>1748.4</ele><time>2017-08-25T09:39:06Z</time></trkpt>
<trkpt lat="46.17373" lon="7.45501"><ele>1751</ele><time>2017-08-25T09:39:19Z</time></trkpt>
<trkpt lat="46.17359" lon="7.45521"><ele>1752.8</ele><time>2017-08-25T09:39:32Z</time></trkpt>
<trkpt lat="46.17344" lon="7.45536"><ele>1756.4</ele><time>2017-08-25T09:39:45Z</time></trkpt>
<trkpt lat="46.17329" lon="7.45552"><ele>1758.6</ele><time>2017-08-25T09:39:57Z</time></trkpt>
<trkpt lat="46.17308" lon="7.45572"><ele>1761.6</ele><time>2017-08-25T09:40:13Z</time></trkpt>
<trkpt lat="46.17293" lon="7.45588"><ele>1763.8</ele><time>2017-08-25T09:40:25Z</time></trkpt>
<trkpt lat="46.17282" lon="7.45606"><ele>1767.4</ele><time>2017-08-25T09:40:40Z</time></trkpt>
<trkpt lat="46.17274" lon="7.45616"><ele>1770.4</ele><time>2017-08-25T09:40:51Z</time></trkpt>
<trkpt lat="46.17261" lon="7.45634"><ele>1775.2</ele><time>2017-08-25T09:41:06Z</time></trkpt>
<trkpt lat="46.17258" lon="7.45645"><ele>1777.2</ele><time>2017-08-25T09:41:14Z</time></trkpt>
<trkpt lat="46.17258" lon="7.45647"><ele>1777.6</ele><time>2017-08-25T09:41:15Z</time></trkpt>
<trkpt lat="46.17259" lon="7.45658"><ele>1779.4</ele><time>2017-08-25T09:41:22Z</time></trkpt>
<trkpt lat="46.17254" lon="7.45684"><ele>1781.6</ele><time>2017-08-25T09:41:36Z</time></trkpt>
<trkpt lat="46.17253" lon="7.45686"><ele>1781.6</ele><time>2017-08-25T09:41:37Z</time></trkpt>
<trkpt lat="46.17242" lon="7.45708"><ele>1783.2</ele><time>2017-08-25T09:41:53Z</time></trkpt>
<trkpt lat="46.17236" lon="7.45732"><ele>1785.4</ele><time>2017-08-25T09:42:07Z</time></trkpt>
<trkpt lat="46.1723" lon="7.45747"><ele>1787.4</ele><time>2017-08-25T09:42:17Z</time></trkpt>
<trkpt lat="46.17221" lon="7.45769"><ele>1787.6</ele><time>2017-08-25T09:42:35Z</time></trkpt>
<trkpt lat="46.17214" lon="7.45792"><ele>1788</ele><time>2017-08-25T09:42:50Z</time></trkpt>
<trkpt lat="46.17206" lon="7.45814"><ele>1789</ele><time>2017-08-25T09:43:05Z</time></trkpt>
<trkpt lat="46.17205" lon="7.45825"><ele>1789.6</ele><time>2017-08-25T09:43:10Z</time></trkpt>
<trkpt lat="46.17204" lon="7.45829"><ele>1789.8</ele><time>2017-08-25T09:43:12Z</time></trkpt>
<trkpt lat="46.17196" lon="7.45847"><ele>1790</ele><time>2017-08-25T09:43:23Z</time></trkpt>
<trkpt lat="46.17187" lon="7.45861"><ele>1790.6</ele><time>2017-08-25T09:43:33Z</time></trkpt>
<trkpt lat="46.17187" lon="7.45867"><ele>1791.2</ele><time>2017-08-25T09:43:36Z</time></trkpt>
<trkpt lat="46.17187" lon="7.45876"><ele>1792</ele><time>2017-08-25T09:43:41Z</time></trkpt>
<trkpt lat="46.17186" lon="7.45883"><ele>1792.8</ele><time>2017-08-25T09:43:46Z</time></trkpt>
<trkpt lat="46.17185" lon="7.45894"><ele>1793.2</ele><time>2017-08-25T09:43:52Z</time></trkpt>
<trkpt lat="46.17182" lon="7.45909"><ele>1795.4</ele><time>2017-08-25T09:44:01Z</time></trkpt>
<trkpt lat="46.17177" lon="7.45945"><ele>1800</ele><time>2017-08-25T09:44:17Z</time></trkpt>
<trkpt lat="46.17175" lon="7.45948"><ele>1800.6</ele><time>2017-08-25T09:44:19Z</time></trkpt>
<trkpt lat="46.17174" lon="7.45951"><ele>1801.2</ele><time>2017-08-25T09:44:21Z</time></trkpt>
<trkpt lat="46.17174" lon="7.45957"><ele>1802</ele><time>2017-08-25T09:44:24Z</time></trkpt>
<trkpt lat="46.17175" lon="7.45961"><ele>1802.6</ele><time>2017-08-25T09:44:26Z</time></trkpt>
<trkpt lat="46.17178" lon="7.45966"><ele>1803.2</ele><time>2017-08-25T09:44:30Z</time></trkpt>
<trkpt lat="46.17183" lon="7.45964"><ele>1804</ele><time>2017-08-25T09:44:35Z</time></trkpt>
<trkpt lat="46.17196" lon="7.45934"><ele>1806.4</ele><time>2017-08-25T09:44:52Z</time></trkpt>
<trkpt lat="46.17202" lon="7.45924"><ele>1808</ele><time>2017-08-25T09:44:58Z</time></trkpt>
<trkpt lat="46.17218" lon="7.45909"><ele>1811.6</ele><time>2017-08-25T09:45:12Z</time></trkpt>
<trkpt lat="46.17227" lon="7.45909"><ele>1812.8</ele><time>2017-08-25T09:45:18Z</time></trkpt>
<trkpt lat="46.17226" lon="7.45932"><ele>1816.4</ele><time>2017-08-25T09:45:31Z</time></trkpt>
<trkpt lat="46.17225" lon="7.45936"><ele>1816.8</ele><time>2017-08-25T09:45:33Z</time></trkpt>
<trkpt lat="46.17221" lon="7.45948"><ele>1818</ele><time>2017-08-25T09:45:40Z</time></trkpt>
<trkpt lat="46.17219" lon="7.45955"><ele>1819</ele><time>2017-08-25T09:45:45Z</time></trkpt>
<trkpt lat="46.17216" lon="7.45966"><ele>1820.2</ele><time>2017-08-25T09:45:54Z</time></trkpt>
<trkpt lat="46.17206" lon="7.45988"><ele>1822</ele><time>2017-08-25T09:46:10Z</time></trkpt>
<trkpt lat="46.17204" lon="7.46"><ele>1823.6</ele><time>2017-08-25T09:46:18Z</time></trkpt>
<trkpt lat="46.17204" lon="7.46012"><ele>1824.8</ele><time>2017-08-25T09:46:24Z</time></trkpt>
<trkpt lat="46.172" lon="7.46037"><ele>1825.6</ele><time>2017-08-25T09:46:41Z</time></trkpt>
<trkpt lat="46.17196" lon="7.46063"><ele>1827</ele><time>2017-08-25T09:47:01Z</time></trkpt>
<trkpt lat="46.17195" lon="7.46075"><ele>1828</ele><time>2017-08-25T09:47:08Z</time></trkpt>
<trkpt lat="46.17196" lon="7.46085"><ele>1829.4</ele><time>2017-08-25T09:47:14Z</time></trkpt>
<trkpt lat="46.17198" lon="7.46096"><ele>1831</ele><time>2017-08-25T09:47:21Z</time></trkpt>
<trkpt lat="46.172" lon="7.46107"><ele>1832.2</ele><time>2017-08-25T09:47:29Z</time></trkpt>
<trkpt lat="46.17202" lon="7.46133"><ele>1835.8</ele><time>2017-08-25T09:47:48Z</time></trkpt>
<trkpt lat="46.17199" lon="7.4615"><ele>1837.8</ele><time>2017-08-25T09:47:59Z</time></trkpt>
<trkpt lat="46.17186" lon="7.4617"><ele>1841</ele><time>2017-08-25T09:48:18Z</time></trkpt>
<trkpt lat="46.17179" lon="7.46174"><ele>1842.8</ele><time>2017-08-25T09:48:25Z</time></trkpt>
<trkpt lat="46.17177" lon="7.46176"><ele>1843.4</ele><time>2017-08-25T09:48:28Z</time></trkpt>
<trkpt lat="46.17171" lon="7.46181"><ele>1845</ele><time>2017-08-25T09:48:34Z</time></trkpt>
<trkpt lat="46.17167" lon="7.46194"><ele>1848.4</ele><time>2017-08-25T09:48:43Z</time></trkpt>
<trkpt lat="46.17173" lon="7.46192"><ele>1850.2</ele><time>2017-08-25T09:48:50Z</time></trkpt>
<trkpt lat="46.17175" lon="7.46187"><ele>1851.2</ele><time>2017-08-25T09:48:55Z</time></trkpt>
<trkpt lat="46.17176" lon="7.46187"><ele>1851.8</ele><time>2017-08-25T09:49:00Z</time></trkpt>
<trkpt lat="46.17174" lon="7.46188"><ele>1854.2</ele><time>2017-08-25T09:49:24Z</time></trkpt>
<trkpt lat="46.17175" lon="7.46188"><ele>1854.4</ele><time>2017-08-25T09:49:26Z</time></trkpt>
<trkpt lat="46.17175" lon="7.46188"><ele>1854.6</ele><time>2017-08-25T09:49:28Z</time></trkpt>
<trkpt lat="46.17175" lon="7.46189"><ele>1854.6</ele><time>2017-08-25T09:49:32Z</time></trkpt>
<trkpt lat="46.17176" lon="7.46189"><ele>1854.6</ele><time>2017-08-25T09:49:36Z</time></trkpt>
<trkpt lat="46.17175" lon="7.46189"><ele>1854.8</ele><time>2017-08-25T09:49:45Z</time></trkpt>
<trkpt lat="46.17173" lon="7.4619"><ele>1855.8</ele><time>2017-08-25T09:50:21Z</time></trkpt>
<trkpt lat="46.17175" lon="7.46191"><ele>1855.6</ele><time>2017-08-25T09:50:25Z</time></trkpt>
<trkpt lat="46.17176" lon="7.46188"><ele>1856</ele><time>2017-08-25T09:50:37Z</time></trkpt>
<trkpt lat="46.17176" lon="7.46187"><ele>1856</ele><time>2017-08-25T09:50:39Z</time></trkpt>
<trkpt lat="46.17175" lon="7.46189"><ele>1856.2</ele><time>2017-08-25T09:50:47Z</time></trkpt>
<trkpt lat="46.17162" lon="7.46192"><ele>1856.4</ele><time>2017-08-25T09:51:08Z</time></trkpt>
<trkpt lat="46.17161" lon="7.46191"><ele>1856.4</ele><time>2017-08-25T09:51:10Z</time></trkpt>
<trkpt lat="46.1716" lon="7.46192"><ele>1856.4</ele><time>2017-08-25T09:51:15Z</time></trkpt>
<trkpt lat="46.1716" lon="7.46191"><ele>1856.4</ele><time>2017-08-25T09:51:16Z</time></trkpt>
<trkpt lat="46.1716" lon="7.46192"><ele>1856.4</ele><time>2017-08-25T09:51:17Z</time></trkpt>
<trkpt lat="46.1716" lon="7.46192"><ele>1856</ele><time>2017-08-25T09:51:30Z</time></trkpt>
<trkpt lat="46.1716" lon="7.46192"><ele>1856</ele><time>2017-08-25T09:51:32Z</time></trkpt>
<trkpt lat="46.1716" lon="7.46192"><ele>1855.8</ele><time>2017-08-25T09:51:34Z</time></trkpt>
<trkpt lat="46.17161" lon="7.46192"><ele>1855.4</ele><time>2017-08-25T09:51:46Z</time></trkpt>
<trkpt lat="46.17164" lon="7.46194"><ele>1855</ele><time>2017-08-25T09:51:50Z</time></trkpt>
<trkpt lat="46.17165" lon="7.46195"><ele>1854.8</ele><time>2017-08-25T09:51:52Z</time></trkpt>
<trkpt lat="46.1717" lon="7.46194"><ele>1854.4</ele><time>2017-08-25T09:51:59Z</time></trkpt>
<trkpt lat="46.17174" lon="7.46191"><ele>1855</ele><time>2017-08-25T09:52:07Z</time></trkpt>
<trkpt lat="46.17178" lon="7.46187"><ele>1856</ele><time>2017-08-25T09:52:34Z</time></trkpt>
<trkpt lat="46.17178" lon="7.46187"><ele>1856</ele><time>2017-08-25T09:52:38Z</time></trkpt>
<trkpt lat="46.17177" lon="7.46187"><ele>1856.4</ele><time>2017-08-25T09:52:52Z</time></trkpt>
<trkpt lat="46.17178" lon="7.46187"><ele>1856.4</ele><time>2017-08-25T09:52:57Z</time></trkpt>
<trkpt lat="46.17176" lon="7.46188"><ele>1856.8</ele><time>2017-08-25T09:53:12Z</time></trkpt>
<trkpt lat="46.17176" lon="7.46187"><ele>1856.8</ele><time>2017-08-25T09:53:17Z</time></trkpt>
<trkpt lat="46.17177" lon="7.46188"><ele>1856.8</ele><time>2017-08-25T09:53:18Z</time></trkpt>
<trkpt lat="46.17176" lon="7.46189"><ele>1856.8</ele><time>2017-08-25T09:53:21Z</time></trkpt>
<trkpt lat="46.17177" lon="7.46188"><ele>1856.8</ele><time>2017-08-25T09:53:31Z</time></trkpt>
<trkpt lat="46.17177" lon="7.46188"><ele>1857</ele><time>2017-08-25T09:53:34Z</time></trkpt>
<trkpt lat="46.17177" lon="7.46188"><ele>1857</ele><time>2017-08-25T09:53:35Z</time></trkpt>
<trkpt lat="46.17177" lon="7.46188"><ele>1857</ele><time>2017-08-25T09:53:44Z</time></trkpt>
<trkpt lat="46.17177" lon="7.46188"><ele>1857</ele><time>2017-08-25T09:53:46Z</time></trkpt>
<trkpt lat="46.17178" lon="7.46188"><ele>1856.8</ele><time>2017-08-25T09:53:57Z</time></trkpt>
<trkpt lat="46.17177" lon="7.46188"><ele>1856.8</ele><time>2017-08-25T09:54:09Z</time></trkpt>
<trkpt lat="46.17177" lon="7.46187"><ele>1857</ele><time>2017-08-25T09:54:24Z</time></trkpt>
<trkpt lat="46.17177" lon="7.46187"><ele>1857</ele><time>2017-08-25T09:54:25Z</time></trkpt>
<trkpt lat="46.17177" lon="7.46187"><ele>1857</ele><time>2017-08-25T09:54:26Z</time></trkpt>
<trkpt lat="46.17175" lon="7.46187"><ele>1857.2</ele><time>2017-08-25T09:54:44Z</time></trkpt>
<trkpt lat="46.17177" lon="7.46191"><ele>1856.8</ele><time>2017-08-25T09:54:59Z</time></trkpt>
<trkpt lat="46.17177" lon="7.46191"><ele>1856.8</ele><time>2017-08-25T09:55:06Z</time></trkpt>
<trkpt lat="46.17178" lon="7.4619"><ele>1856.6</ele><time>2017-08-25T09:55:10Z</time></trkpt>
<trkpt lat="46.17179" lon="7.4619"><ele>1856.6</ele><time>2017-08-25T09:55:14Z</time></trkpt>
<trkpt lat="46.17178" lon="7.46189"><ele>1856.6</ele><time>2017-08-25T09:55:17Z</time></trkpt>
<trkpt lat="46.17179" lon="7.46189"><ele>1856.4</ele><time>2017-08-25T09:55:19Z</time></trkpt>
<trkpt lat="46.17177" lon="7.46187"><ele>1857</ele><time>2017-08-25T09:55:36Z</time></trkpt>
<trkpt lat="46.17177" lon="7.46188"><ele>1856.8</ele><time>2017-08-25T09:55:41Z</time></trkpt>
<trkpt lat="46.17177" lon="7.46188"><ele>1856.8</ele><time>2017-08-25T09:55:54Z</time></trkpt>
<trkpt lat="46.17177" lon="7.46188"><ele>1856.8</ele><time>2017-08-25T09:56:04Z</time></trkpt>
<trkpt lat="46.17177" lon="7.46188"><ele>1856.6</ele><time>2017-08-25T09:56:17Z</time></trkpt>
<trkpt lat="46.17177" lon="7.46188"><ele>1856.4</ele><time>2017-08-25T09:56:20Z</time></trkpt>
<trkpt lat="46.17177" lon="7.46189"><ele>1856.2</ele><time>2017-08-25T09:56:27Z</time></trkpt>
<trkpt lat="46.17177" lon="7.46188"><ele>1855</ele><time>2017-08-25T09:56:51Z</time></trkpt>
<trkpt lat="46.17177" lon="7.46188"><ele>1854.8</ele><time>2017-08-25T09:56:58Z</time></trkpt>
<trkpt lat="46.17176" lon="7.46191"><ele>1854.6</ele><time>2017-08-25T09:57:09Z</time></trkpt>
<trkpt lat="46.17176" lon="7.46191"><ele>1854.6</ele><time>2017-08-25T09:57:16Z</time></trkpt>
<trkpt lat="46.17175" lon="7.46191"><ele>1854.6</ele><time>2017-08-25T09:57:19Z</time></trkpt>
<trkpt lat="46.17176" lon="7.46191"><ele>1854.8</ele><time>2017-08-25T09:57:21Z</time></trkpt>
<trkpt lat="46.17176" lon="7.46191"><ele>1854.8</ele><time>2017-08-25T09:57:22Z</time></trkpt>
<trkpt lat="46.17176" lon="7.46191"><ele>1854.6</ele><time>2017-08-25T09:57:26Z</time></trkpt>
<trkpt lat="46.17175" lon="7.46191"><ele>1854.4</ele><time>2017-08-25T09:57:31Z</time></trkpt>
<trkpt lat="46.17175" lon="7.46191"><ele>1854.4</ele><time>2017-08-25T09:57:33Z</time></trkpt>
<trkpt lat="46.17176" lon="7.46191"><ele>1854.8</ele><time>2017-08-25T09:57:45Z</time></trkpt>
<trkpt lat="46.17175" lon="7.4619"><ele>1854.8</ele><time>2017-08-25T09:57:49Z</time></trkpt>
<trkpt lat="46.17175" lon="7.4619"><ele>1854.8</ele><time>2017-08-25T09:57:54Z</time></trkpt>
<trkpt lat="46.17175" lon="7.46191"><ele>1854.8</ele><time>2017-08-25T09:57:58Z</time></trkpt>
<trkpt lat="46.17175" lon="7.46188"><ele>1855</ele><time>2017-08-25T09:58:03Z</time></trkpt>
<trkpt lat="46.17175" lon="7.4619"><ele>1855</ele><time>2017-08-25T09:58:05Z</time></trkpt>
<trkpt lat="46.17179" lon="7.46193"><ele>1855</ele><time>2017-08-25T09:58:10Z</time></trkpt>
<trkpt lat="46.17197" lon="7.46183"><ele>1855.4</ele><time>2017-08-25T09:58:24Z</time></trkpt>
<trkpt lat="46.172" lon="7.46181"><ele>1855.4</ele><time>2017-08-25T09:58:26Z</time></trkpt>
<trkpt lat="46.17203" lon="7.46179"><ele>1855.4</ele><time>2017-08-25T09:58:28Z</time></trkpt>
<trkpt lat="46.17209" lon="7.4617"><ele>1855.8</ele><time>2017-08-25T09:58:33Z</time></trkpt>
<trkpt lat="46.17215" lon="7.46153"><ele>1856.8</ele><time>2017-08-25T09:58:42Z</time></trkpt>
<trkpt lat="46.17216" lon="7.4615"><ele>1857</ele><time>2017-08-25T09:58:44Z</time></trkpt>
<trkpt lat="46.17223" lon="7.46132"><ele>1858.4</ele><time>2017-08-25T09:58:55Z</time></trkpt>
<trkpt lat="46.1723" lon="7.46112"><ele>1862.2</ele><time>2017-08-25T09:59:10Z</time></trkpt>
<trkpt lat="46.17233" lon="7.46105"><ele>1863.2</ele><time>2017-08-25T09:59:15Z</time></trkpt>
<trkpt lat="46.17234" lon="7.46103"><ele>1863.2</ele><time>2017-08-25T09:59:16Z</time></trkpt>
<trkpt lat="46.17235" lon="7.46102"><ele>1863.4</ele><time>2017-08-25T09:59:17Z</time></trkpt>
<trkpt lat="46.17238" lon="7.46098"><ele>1863.8</ele><time>2017-08-25T09:59:20Z</time></trkpt>
<trkpt lat="46.17243" lon="7.46093"><ele>1865.2</ele><time>2017-08-25T09:59:26Z</time></trkpt>
<trkpt lat="46.17247" lon="7.46084"><ele>1867</ele><time>2017-08-25T09:59:32Z</time></trkpt>
<trkpt lat="46.17247" lon="7.46082"><ele>1867</ele><time>2017-08-25T09:59:33Z</time></trkpt>
<trkpt lat="46.17254" lon="7.46074"><ele>1868.4</ele><time>2017-08-25T09:59:40Z</time></trkpt>
<trkpt lat="46.17258" lon="7.4607"><ele>1869</ele><time>2017-08-25T09:59:44Z</time></trkpt>
<trkpt lat="46.17262" lon="7.46067"><ele>1869.6</ele><time>2017-08-25T09:59:48Z</time></trkpt>
<trkpt lat="46.17269" lon="7.46059"><ele>1870.6</ele><time>2017-08-25T09:59:56Z</time></trkpt>
<trkpt lat="46.17274" lon="7.4605"><ele>1872</ele><time>2017-08-25T10:00:04Z</time></trkpt>
<trkpt lat="46.17278" lon="7.46046"><ele>1873.2</ele><time>2017-08-25T10:00:10Z</time></trkpt>
<trkpt lat="46.17279" lon="7.46043"><ele>1873.6</ele><time>2017-08-25T10:00:12Z</time></trkpt>
<trkpt lat="46.17282" lon="7.46038"><ele>1874.6</ele><time>2017-08-25T10:00:17Z</time></trkpt>
<trkpt lat="46.17288" lon="7.46035"><ele>1876.2</ele><time>2017-08-25T10:00:23Z</time></trkpt>
<trkpt lat="46.1729" lon="7.46033"><ele>1876.8</ele><time>2017-08-25T10:00:26Z</time></trkpt>
<trkpt lat="46.173" lon="7.46021"><ele>1880.2</ele><time>2017-08-25T10:00:41Z</time></trkpt>
<trkpt lat="46.17302" lon="7.46019"><ele>1880.6</ele><time>2017-08-25T10:00:43Z</time></trkpt>
<trkpt lat="46.17304" lon="7.46015"><ele>1881.6</ele><time>2017-08-25T10:00:46Z</time></trkpt>
<trkpt lat="46.1731" lon="7.46008"><ele>1884.2</ele><time>2017-08-25T10:00:57Z</time></trkpt>
<trkpt lat="46.17312" lon="7.46005"><ele>1885</ele><time>2017-08-25T10:01:00Z</time></trkpt>
<trkpt lat="46.17313" lon="7.46002"><ele>1885.6</ele><time>2017-08-25T10:01:03Z</time></trkpt>
<trkpt lat="46.17315" lon="7.45999"><ele>1886.2</ele><time>2017-08-25T10:01:06Z</time></trkpt>
<trkpt lat="46.17316" lon="7.45996"><ele>1886.8</ele><time>2017-08-25T10:01:09Z</time></trkpt>
<trkpt lat="46.17317" lon="7.45994"><ele>1887</ele><time>2017-08-25T10:01:10Z</time></trkpt>
<trkpt lat="46.17317" lon="7.45993"><ele>1887.2</ele><time>2017-08-25T10:01:11Z</time></trkpt>
<trkpt lat="46.17318" lon="7.45991"><ele>1887.4</ele><time>2017-08-25T10:01:13Z</time></trkpt>
<trkpt lat="46.1732" lon="7.45989"><ele>1887.8</ele><time>2017-08-25T10:01:15Z</time></trkpt>
<trkpt lat="46.17322" lon="7.45986"><ele>1888.2</ele><time>2017-08-25T10:01:18Z</time></trkpt>
<trkpt lat="46.17338" lon="7.45975"><ele>1890.8</ele><time>2017-08-25T10:01:37Z</time></trkpt>
<trkpt lat="46.17351" lon="7.45956"><ele>1893.8</ele><time>2017-08-25T10:01:58Z</time></trkpt>
<trkpt lat="46.17365" lon="7.45937"><ele>1898.4</ele><time>2017-08-25T10:02:23Z</time></trkpt>
<trkpt lat="46.17371" lon="7.45935"><ele>1899.4</ele><time>2017-08-25T10:02:29Z</time></trkpt>
<trkpt lat="46.17384" lon="7.45947"><ele>1901.4</ele><time>2017-08-25T10:02:44Z</time></trkpt>
<trkpt lat="46.17383" lon="7.45952"><ele>1901.8</ele><time>2017-08-25T10:02:47Z</time></trkpt>
<trkpt lat="46.17378" lon="7.45965"><ele>1903.2</ele><time>2017-08-25T10:02:56Z</time></trkpt>
<trkpt lat="46.17373" lon="7.45992"><ele>1904.2</ele><time>2017-08-25T10:03:12Z</time></trkpt>
<trkpt lat="46.17374" lon="7.46003"><ele>1904</ele><time>2017-08-25T10:03:19Z</time></trkpt>
<trkpt lat="46.1737" lon="7.46012"><ele>1903.6</ele><time>2017-08-25T10:03:27Z</time></trkpt>
<trkpt lat="46.17365" lon="7.46022"><ele>1904.6</ele><time>2017-08-25T10:03:35Z</time></trkpt>
<trkpt lat="46.17373" lon="7.46027"><ele>1905.2</ele><time>2017-08-25T10:03:45Z</time></trkpt>
<trkpt lat="46.17376" lon="7.46022"><ele>1905.8</ele><time>2017-08-25T10:03:49Z</time></trkpt>
<trkpt lat="46.17387" lon="7.46011"><ele>1906</ele><time>2017-08-25T10:04:01Z</time></trkpt>
<trkpt lat="46.17388" lon="7.46002"><ele>1904.2</ele><time>2017-08-25T10:04:21Z</time></trkpt>
<trkpt lat="46.17401" lon="7.45985"><ele>1904.8</ele><time>2017-08-25T10:04:38Z</time></trkpt>
<trkpt lat="46.17404" lon="7.45981"><ele>1905.2</ele><time>2017-08-25T10:04:42Z</time></trkpt>
<trkpt lat="46.17414" lon="7.45975"><ele>1906.4</ele><time>2017-08-25T10:04:52Z</time></trkpt>
<trkpt lat="46.17427" lon="7.45967"><ele>1907.6</ele><time>2017-08-25T10:05:04Z</time></trkpt>
<trkpt lat="46.17445" lon="7.45958"><ele>1910.2</ele><time>2017-08-25T10:05:19Z</time></trkpt>
<trkpt lat="46.17467" lon="7.45948"><ele>1911.8</ele><time>2017-08-25T10:05:37Z</time></trkpt>
<trkpt lat="46.17485" lon="7.45938"><ele>1913.4</ele><time>2017-08-25T10:05:51Z</time></trkpt>
<trkpt lat="46.175" lon="7.4593"><ele>1915.8</ele><time>2017-08-25T10:06:05Z</time></trkpt>
<trkpt lat="46.17501" lon="7.45929"><ele>1916</ele><time>2017-08-25T10:06:06Z</time></trkpt>
<trkpt lat="46.17504" lon="7.45926"><ele>1916.2</ele><time>2017-08-25T10:06:09Z</time></trkpt>
<trkpt lat="46.17523" lon="7.45923"><ele>1918.6</ele><time>2017-08-25T10:06:25Z</time></trkpt>
<trkpt lat="46.17541" lon="7.45917"><ele>1920.2</ele><time>2017-08-25T10:06:37Z</time></trkpt>
<trkpt lat="46.17545" lon="7.45915"><ele>1920.8</ele><time>2017-08-25T10:06:40Z</time></trkpt>
<trkpt lat="46.17564" lon="7.45907"><ele>1922.6</ele><time>2017-08-25T10:06:54Z</time></trkpt>
<trkpt lat="46.17581" lon="7.45898"><ele>1925.2</ele><time>2017-08-25T10:07:09Z</time></trkpt>
<trkpt lat="46.17599" lon="7.45892"><ele>1929</ele><time>2017-08-25T10:07:23Z</time></trkpt>
<trkpt lat="46.17605" lon="7.45889"><ele>1929.4</ele><time>2017-08-25T10:07:27Z</time></trkpt>
<trkpt lat="46.17616" lon="7.45885"><ele>1931.4</ele><time>2017-08-25T10:07:35Z</time></trkpt>
<trkpt lat="46.17633" lon="7.45881"><ele>1937.4</ele><time>2017-08-25T10:07:50Z</time></trkpt>
<trkpt lat="46.17654" lon="7.45869"><ele>1940.2</ele><time>2017-08-25T10:08:10Z</time></trkpt>
<trkpt lat="46.17671" lon="7.45851"><ele>1949.6</ele><time>2017-08-25T10:08:24Z</time></trkpt>
<trkpt lat="46.17684" lon="7.45831"><ele>1959.8</ele><time>2017-08-25T10:08:35Z</time></trkpt>
<trkpt lat="46.17688" lon="7.45829"><ele>1961.2</ele><time>2017-08-25T10:08:38Z</time></trkpt>
<trkpt lat="46.17699" lon="7.45833"><ele>1958.2</ele><time>2017-08-25T10:08:50Z</time></trkpt>
<trkpt lat="46.177" lon="7.45835"><ele>1957.6</ele><time>2017-08-25T10:08:51Z</time></trkpt>
<trkpt lat="46.17702" lon="7.45842"><ele>1955.4</ele><time>2017-08-25T10:08:58Z</time></trkpt>
<trkpt lat="46.17703" lon="7.45843"><ele>1955.6</ele><time>2017-08-25T10:09:00Z</time></trkpt>
<trkpt lat="46.17703" lon="7.45844"><ele>1955.6</ele><time>2017-08-25T10:09:08Z</time></trkpt>
<trkpt lat="46.17722" lon="7.45846"><ele>1953.8</ele><time>2017-08-25T10:09:24Z</time></trkpt>
<trkpt lat="46.17741" lon="7.45847"><ele>1952.4</ele><time>2017-08-25T10:09:38Z</time></trkpt>
<trkpt lat="46.17754" lon="7.45847"><ele>1950.2</ele><time>2017-08-25T10:09:47Z</time></trkpt>
<trkpt lat="46.17772" lon="7.45843"><ele>1950.8</ele><time>2017-08-25T10:10:00Z</time></trkpt>
<trkpt lat="46.1778" lon="7.4584"><ele>1951.8</ele><time>2017-08-25T10:10:06Z</time></trkpt>
<trkpt lat="46.17781" lon="7.45839"><ele>1952.4</ele><time>2017-08-25T10:10:07Z</time></trkpt>
<trkpt lat="46.17787" lon="7.45837"><ele>1953.2</ele><time>2017-08-25T10:10:12Z</time></trkpt>
<trkpt lat="46.178" lon="7.45834"><ele>1953.6</ele><time>2017-08-25T10:10:21Z</time></trkpt>
<trkpt lat="46.17817" lon="7.45822"><ele>1958.4</ele><time>2017-08-25T10:10:35Z</time></trkpt>
<trkpt lat="46.17829" lon="7.45782"><ele>1991</ele><time>2017-08-25T10:10:49Z</time></trkpt>
<trkpt lat="46.17838" lon="7.45765"><ele>2001.8</ele><time>2017-08-25T10:10:58Z</time></trkpt>
<trkpt lat="46.1786" lon="7.45782"><ele>1993.8</ele><time>2017-08-25T10:11:17Z</time></trkpt>
<trkpt lat="46.17868" lon="7.45788"><ele>1987.6</ele><time>2017-08-25T10:11:24Z</time></trkpt>
<trkpt lat="46.17885" lon="7.45784"><ele>1988.6</ele><time>2017-08-25T10:11:39Z</time></trkpt>
<trkpt lat="46.17904" lon="7.45781"><ele>1985.4</ele><time>2017-08-25T10:11:52Z</time></trkpt>
<trkpt lat="46.17923" lon="7.45779"><ele>1982.8</ele><time>2017-08-25T10:12:05Z</time></trkpt>
<trkpt lat="46.17934" lon="7.45776"><ele>1981.6</ele><time>2017-08-25T10:12:13Z</time></trkpt>
<trkpt lat="46.1794" lon="7.45773"><ele>1980.8</ele><time>2017-08-25T10:12:17Z</time></trkpt>
<trkpt lat="46.17962" lon="7.45761"><ele>1976</ele><time>2017-08-25T10:12:35Z</time></trkpt>
<trkpt lat="46.17964" lon="7.45759"><ele>1975.8</ele><time>2017-08-25T10:12:37Z</time></trkpt>
<trkpt lat="46.17981" lon="7.45751"><ele>1975.2</ele><time>2017-08-25T10:12:54Z</time></trkpt>
<trkpt lat="46.17987" lon="7.45749"><ele>1975</ele><time>2017-08-25T10:12:58Z</time></trkpt>
<trkpt lat="46.18003" lon="7.45737"><ele>1976.6</ele><time>2017-08-25T10:13:13Z</time></trkpt>
<trkpt lat="46.18008" lon="7.4573"><ele>1979.2</ele><time>2017-08-25T10:13:19Z</time></trkpt>
<trkpt lat="46.18024" lon="7.45716"><ele>1985.6</ele><time>2017-08-25T10:13:37Z</time></trkpt>
<trkpt lat="46.18035" lon="7.4571"><ele>1986.6</ele><time>2017-08-25T10:13:47Z</time></trkpt>
<trkpt lat="46.1805" lon="7.45708"><ele>1985.8</ele><time>2017-08-25T10:14:01Z</time></trkpt>
<trkpt lat="46.18062" lon="7.457"><ele>1986</ele><time>2017-08-25T10:14:13Z</time></trkpt>
<trkpt lat="46.18067" lon="7.45696"><ele>1986.6</ele><time>2017-08-25T10:14:18Z</time></trkpt>
<trkpt lat="46.18073" lon="7.45696"><ele>1987</ele><time>2017-08-25T10:14:23Z</time></trkpt>
<trkpt lat="46.18088" lon="7.45708"><ele>1988.4</ele><time>2017-08-25T10:14:37Z</time></trkpt>
<trkpt lat="46.18098" lon="7.45714"><ele>1989.6</ele><time>2017-08-25T10:14:46Z</time></trkpt>
<trkpt lat="46.18113" lon="7.45723"><ele>1991.6</ele><time>2017-08-25T10:14:57Z</time></trkpt>
<trkpt lat="46.18126" lon="7.45732"><ele>1993</ele><time>2017-08-25T10:15:07Z</time></trkpt>
<trkpt lat="46.18131" lon="7.45736"><ele>1993.8</ele><time>2017-08-25T10:15:11Z</time></trkpt>
<trkpt lat="46.18148" lon="7.45746"><ele>1995.6</ele><time>2017-08-25T10:15:24Z</time></trkpt>
<trkpt lat="46.18152" lon="7.4575"><ele>1996</ele><time>2017-08-25T10:15:28Z</time></trkpt>
<trkpt lat="46.18142" lon="7.45757"><ele>1997.4</ele><time>2017-08-25T10:15:39Z</time></trkpt>
<trkpt lat="46.18141" lon="7.45757"><ele>1997.6</ele><time>2017-08-25T10:15:40Z</time></trkpt>
<trkpt lat="46.18138" lon="7.45757"><ele>1998</ele><time>2017-08-25T10:15:44Z</time></trkpt>
<trkpt lat="46.18119" lon="7.45761"><ele>2000.2</ele><time>2017-08-25T10:16:02Z</time></trkpt>
<trkpt lat="46.18115" lon="7.45763"><ele>2000.8</ele><time>2017-08-25T10:16:06Z</time></trkpt>
<trkpt lat="46.18108" lon="7.45764"><ele>2001.4</ele><time>2017-08-25T10:16:12Z</time></trkpt>
<trkpt lat="46.18104" lon="7.45765"><ele>2001.8</ele><time>2017-08-25T10:16:16Z</time></trkpt>
<trkpt lat="46.18091" lon="7.4577"><ele>2003.8</ele><time>2017-08-25T10:16:30Z</time></trkpt>
<trkpt lat="46.18085" lon="7.45776"><ele>2005</ele><time>2017-08-25T10:16:38Z</time></trkpt>
<trkpt lat="46.18089" lon="7.45786"><ele>2006</ele><time>2017-08-25T10:16:45Z</time></trkpt>
<trkpt lat="46.18093" lon="7.45787"><ele>2006</ele><time>2017-08-25T10:16:49Z</time></trkpt>
<trkpt lat="46.18094" lon="7.45786"><ele>2005.8</ele><time>2017-08-25T10:16:51Z</time></trkpt>
<trkpt lat="46.18112" lon="7.45793"><ele>2003</ele><time>2017-08-25T10:17:10Z</time></trkpt>
<trkpt lat="46.18117" lon="7.45799"><ele>2003.4</ele><time>2017-08-25T10:17:16Z</time></trkpt>
<trkpt lat="46.18137" lon="7.45805"><ele>2009.2</ele><time>2017-08-25T10:17:41Z</time></trkpt>
<trkpt lat="46.18152" lon="7.45817"><ele>2014.6</ele><time>2017-08-25T10:18:02Z</time></trkpt>
<trkpt lat="46.18163" lon="7.45822"><ele>2016.8</ele><time>2017-08-25T10:18:15Z</time></trkpt>
<trkpt lat="46.18175" lon="7.45831"><ele>2019.2</ele><time>2017-08-25T10:18:31Z</time></trkpt>
<trkpt lat="46.18182" lon="7.45838"><ele>2021</ele><time>2017-08-25T10:18:39Z</time></trkpt>
<trkpt lat="46.18183" lon="7.45841"><ele>2021.4</ele><time>2017-08-25T10:18:41Z</time></trkpt>
<trkpt lat="46.18192" lon="7.45853"><ele>2024.4</ele><time>2017-08-25T10:18:53Z</time></trkpt>
<trkpt lat="46.18197" lon="7.45859"><ele>2025.6</ele><time>2017-08-25T10:18:59Z</time></trkpt>
<trkpt lat="46.18197" lon="7.45868"><ele>2026.8</ele><time>2017-08-25T10:19:05Z</time></trkpt>
<trkpt lat="46.18193" lon="7.45871"><ele>2027.8</ele><time>2017-08-25T10:19:10Z</time></trkpt>
<trkpt lat="46.18189" lon="7.45868"><ele>2028.4</ele><time>2017-08-25T10:19:13Z</time></trkpt>
<trkpt lat="46.18186" lon="7.45864"><ele>2028.6</ele><time>2017-08-25T10:19:17Z</time></trkpt>
<trkpt lat="46.18185" lon="7.45862"><ele>2028.4</ele><time>2017-08-25T10:19:19Z</time></trkpt>
<trkpt lat="46.18173" lon="7.45863"><ele>2030.8</ele><time>2017-08-25T10:19:33Z</time></trkpt>
<trkpt lat="46.18168" lon="7.45864"><ele>2032.4</ele><time>2017-08-25T10:19:38Z</time></trkpt>
<trkpt lat="46.1815" lon="7.45872"><ele>2036.8</ele><time>2017-08-25T10:19:55Z</time></trkpt>
<trkpt lat="46.18129" lon="7.45882"><ele>2041.6</ele><time>2017-08-25T10:20:18Z</time></trkpt>
<trkpt lat="46.18111" lon="7.45887"><ele>2044.8</ele><time>2017-08-25T10:20:34Z</time></trkpt>
<trkpt lat="46.181" lon="7.45887"><ele>2046.4</ele><time>2017-08-25T10:20:43Z</time></trkpt>
<trkpt lat="46.18102" lon="7.45892"><ele>2047.8</ele><time>2017-08-25T10:20:50Z</time></trkpt>
<trkpt lat="46.18107" lon="7.45895"><ele>2049.2</ele><time>2017-08-25T10:20:55Z</time></trkpt>
<trkpt lat="46.18125" lon="7.45892"><ele>2054.2</ele><time>2017-08-25T10:21:17Z</time></trkpt>
<trkpt lat="46.18133" lon="7.45897"><ele>2055.6</ele><time>2017-08-25T10:21:26Z</time></trkpt>
<trkpt lat="46.18143" lon="7.45902"><ele>2056.2</ele><time>2017-08-25T10:21:35Z</time></trkpt>
<trkpt lat="46.18159" lon="7.45916"><ele>2056</ele><time>2017-08-25T10:21:50Z</time></trkpt>
<trkpt lat="46.1817" lon="7.45936"><ele>2056.4</ele><time>2017-08-25T10:22:06Z</time></trkpt>
<trkpt lat="46.18171" lon="7.45949"><ele>2056.4</ele><time>2017-08-25T10:22:14Z</time></trkpt>
<trkpt lat="46.18175" lon="7.45975"><ele>2057.8</ele><time>2017-08-25T10:22:31Z</time></trkpt>
<trkpt lat="46.1818" lon="7.46006"><ele>2060.2</ele><time>2017-08-25T10:22:53Z</time></trkpt>
<trkpt lat="46.18175" lon="7.46012"><ele>2060.8</ele><time>2017-08-25T10:22:59Z</time></trkpt>
<trkpt lat="46.18169" lon="7.46007"><ele>2061.4</ele><time>2017-08-25T10:23:08Z</time></trkpt>
<trkpt lat="46.18158" lon="7.45987"><ele>2063</ele><time>2017-08-25T10:23:26Z</time></trkpt>
<trkpt lat="46.18149" lon="7.45991"><ele>2063.8</ele><time>2017-08-25T10:23:35Z</time></trkpt>
<trkpt lat="46.18131" lon="7.45991"><ele>2066.6</ele><time>2017-08-25T10:23:57Z</time></trkpt>
<trkpt lat="46.1812" lon="7.45989"><ele>2067.8</ele><time>2017-08-25T10:24:09Z</time></trkpt>
<trkpt lat="46.181" lon="7.4599"><ele>2070.6</ele><time>2017-08-25T10:24:30Z</time></trkpt>
<trkpt lat="46.18086" lon="7.4599"><ele>2073.2</ele><time>2017-08-25T10:24:46Z</time></trkpt>
<trkpt lat="46.18067" lon="7.45993"><ele>2075.8</ele><time>2017-08-25T10:25:02Z</time></trkpt>
<trkpt lat="46.18052" lon="7.46003"><ele>2079.2</ele><time>2017-08-25T10:25:19Z</time></trkpt>
<trkpt lat="46.18037" lon="7.46017"><ele>2083.2</ele><time>2017-08-25T10:25:40Z</time></trkpt>
<trkpt lat="46.18028" lon="7.46019"><ele>2085</ele><time>2017-08-25T10:25:48Z</time></trkpt>
<trkpt lat="46.18021" lon="7.46022"><ele>2086.2</ele><time>2017-08-25T10:25:54Z</time></trkpt>
<trkpt lat="46.18017" lon="7.46024"><ele>2087.2</ele><time>2017-08-25T10:25:59Z</time></trkpt>
<trkpt lat="46.18012" lon="7.46028"><ele>2088.2</ele><time>2017-08-25T10:26:05Z</time></trkpt>
<trkpt lat="46.17989" lon="7.46035"><ele>2090.8</ele><time>2017-08-25T10:26:26Z</time></trkpt>
<trkpt lat="46.17976" lon="7.46044"><ele>2091.2</ele><time>2017-08-25T10:26:37Z</time></trkpt>
<trkpt lat="46.17971" lon="7.46049"><ele>2091.6</ele><time>2017-08-25T10:26:43Z</time></trkpt>
<trkpt lat="46.17968" lon="7.46052"><ele>2091.6</ele><time>2017-08-25T10:26:46Z</time></trkpt>
<trkpt lat="46.17961" lon="7.4606"><ele>2092.2</ele><time>2017-08-25T10:26:56Z</time></trkpt>
<trkpt lat="46.17949" lon="7.46079"><ele>2092.6</ele><time>2017-08-25T10:27:11Z</time></trkpt>
<trkpt lat="46.17947" lon="7.46083"><ele>2092.8</ele><time>2017-08-25T10:27:14Z</time></trkpt>
<trkpt lat="46.17944" lon="7.46089"><ele>2093</ele><time>2017-08-25T10:27:18Z</time></trkpt>
<trkpt lat="46.17925" lon="7.46103"><ele>2093.4</ele><time>2017-08-25T10:27:34Z</time></trkpt>
<trkpt lat="46.17909" lon="7.46118"><ele>2095.6</ele><time>2017-08-25T10:27:50Z</time></trkpt>
<trkpt lat="46.17895" lon="7.46135"><ele>2097.2</ele><time>2017-08-25T10:28:06Z</time></trkpt>
<trkpt lat="46.17885" lon="7.46148"><ele>2099</ele><time>2017-08-25T10:28:18Z</time></trkpt>
<trkpt lat="46.1788" lon="7.46159"><ele>2099.4</ele><time>2017-08-25T10:28:27Z</time></trkpt>
<trkpt lat="46.17879" lon="7.46163"><ele>2099.8</ele><time>2017-08-25T10:28:30Z</time></trkpt>
<trkpt lat="46.17868" lon="7.46193"><ele>2103.2</ele><time>2017-08-25T10:28:49Z</time></trkpt>
<trkpt lat="46.17854" lon="7.4621"><ele>2105.4</ele><time>2017-08-25T10:29:03Z</time></trkpt>
<trkpt lat="46.17846" lon="7.46233"><ele>2107.6</ele><time>2017-08-25T10:29:18Z</time></trkpt>
<trkpt lat="46.17832" lon="7.46252"><ele>2110.2</ele><time>2017-08-25T10:29:34Z</time></trkpt>
<trkpt lat="46.17818" lon="7.46268"><ele>2111.8</ele><time>2017-08-25T10:29:50Z</time></trkpt>
<trkpt lat="46.17813" lon="7.46272"><ele>2112.4</ele><time>2017-08-25T10:29:56Z</time></trkpt>
<trkpt lat="46.17801" lon="7.46282"><ele>2111.8</ele><time>2017-08-25T10:30:06Z</time></trkpt>
<trkpt lat="46.17798" lon="7.46284"><ele>2112.2</ele><time>2017-08-25T10:30:09Z</time></trkpt>
<trkpt lat="46.17781" lon="7.46295"><ele>2113.6</ele><time>2017-08-25T10:30:24Z</time></trkpt>
<trkpt lat="46.17777" lon="7.46297"><ele>2114</ele><time>2017-08-25T10:30:28Z</time></trkpt>
<trkpt lat="46.17766" lon="7.46303"><ele>2116.2</ele><time>2017-08-25T10:30:36Z</time></trkpt>
<trkpt lat="46.17752" lon="7.46313"><ele>2117.6</ele><time>2017-08-25T10:30:48Z</time></trkpt>
<trkpt lat="46.17735" lon="7.46325"><ele>2120.8</ele><time>2017-08-25T10:31:02Z</time></trkpt>
<trkpt lat="46.1772" lon="7.4634"><ele>2124.2</ele><time>2017-08-25T10:31:15Z</time></trkpt>
<trkpt lat="46.17701" lon="7.46364"><ele>2127.4</ele><time>2017-08-25T10:31:31Z</time></trkpt>
<trkpt lat="46.17693" lon="7.46377"><ele>2128</ele><time>2017-08-25T10:31:38Z</time></trkpt>
<trkpt lat="46.17678" lon="7.46394"><ele>2128.2</ele><time>2017-08-25T10:31:48Z</time></trkpt>
<trkpt lat="46.17662" lon="7.46409"><ele>2129.2</ele><time>2017-08-25T10:31:56Z</time></trkpt>
<trkpt lat="46.1765" lon="7.46431"><ele>2128.6</ele><time>2017-08-25T10:32:04Z</time></trkpt>
<trkpt lat="46.1764" lon="7.46455"><ele>2130.2</ele><time>2017-08-25T10:32:14Z</time></trkpt>
<trkpt lat="46.17638" lon="7.46463"><ele>2130.4</ele><time>2017-08-25T10:32:17Z</time></trkpt>
<trkpt lat="46.1763" lon="7.46488"><ele>2131.6</ele><time>2017-08-25T10:32:27Z</time></trkpt>
<trkpt lat="46.17616" lon="7.46514"><ele>2132.8</ele><time>2017-08-25T10:32:39Z</time></trkpt>
<trkpt lat="46.17607" lon="7.46531"><ele>2133.6</ele><time>2017-08-25T10:32:47Z</time></trkpt>
<trkpt lat="46.17604" lon="7.46537"><ele>2133.8</ele><time>2017-08-25T10:32:50Z</time></trkpt>
<trkpt lat="46.17598" lon="7.46562"><ele>2134.8</ele><time>2017-08-25T10:33:00Z</time></trkpt>
<trkpt lat="46.1759" lon="7.46586"><ele>2136.8</ele><time>2017-08-25T10:33:11Z</time></trkpt>
<trkpt lat="46.17585" lon="7.46613"><ele>2139</ele><time>2017-08-25T10:33:24Z</time></trkpt>
<trkpt lat="46.17578" lon="7.46638"><ele>2140.8</ele><time>2017-08-25T10:33:37Z</time></trkpt>
<trkpt lat="46.17572" lon="7.46664"><ele>2142</ele><time>2017-08-25T10:33:48Z</time></trkpt>
<trkpt lat="46.17566" lon="7.4669"><ele>2143.2</ele><time>2017-08-25T10:33:58Z</time></trkpt>
<trkpt lat="46.17557" lon="7.46715"><ele>2144.8</ele><time>2017-08-25T10:34:08Z</time></trkpt>
<trkpt lat="46.17548" lon="7.46739"><ele>2146.8</ele><time>2017-08-25T10:34:18Z</time></trkpt>
<trkpt lat="46.1754" lon="7.46767"><ele>2149.4</ele><time>2017-08-25T10:34:30Z</time></trkpt>
<trkpt lat="46.17534" lon="7.46782"><ele>2150.8</ele><time>2017-08-25T10:34:37Z</time></trkpt>
<trkpt lat="46.17525" lon="7.46806"><ele>2153.2</ele><time>2017-08-25T10:34:48Z</time></trkpt>
<trkpt lat="46.17518" lon="7.46825"><ele>2154.2</ele><time>2017-08-25T10:34:56Z</time></trkpt>
<trkpt lat="46.17508" lon="7.46848"><ele>2155.2</ele><time>2017-08-25T10:35:05Z</time></trkpt>
<trkpt lat="46.17494" lon="7.46866"><ele>2156.6</ele><time>2017-08-25T10:35:14Z</time></trkpt>
<trkpt lat="46.1748" lon="7.46885"><ele>2158.6</ele><time>2017-08-25T10:35:26Z</time></trkpt>
<trkpt lat="46.17475" lon="7.46912"><ele>2161.2</ele><time>2017-08-25T10:35:40Z</time></trkpt>
<trkpt lat="46.17471" lon="7.46942"><ele>2164</ele><time>2017-08-25T10:35:55Z</time></trkpt>
<trkpt lat="46.17459" lon="7.46964"><ele>2167.4</ele><time>2017-08-25T10:36:08Z</time></trkpt>
<trkpt lat="46.17447" lon="7.46983"><ele>2170.8</ele><time>2017-08-25T10:36:21Z</time></trkpt>
<trkpt lat="46.1744" lon="7.46995"><ele>2172</ele><time>2017-08-25T10:36:29Z</time></trkpt>
<trkpt lat="46.17439" lon="7.46998"><ele>2172.4</ele><time>2017-08-25T10:36:31Z</time></trkpt>
<trkpt lat="46.17431" lon="7.47017"><ele>2174.2</ele><time>2017-08-25T10:36:42Z</time></trkpt>
<trkpt lat="46.17436" lon="7.47018"><ele>2174.8</ele><time>2017-08-25T10:37:04Z</time></trkpt>
<trkpt lat="46.17436" lon="7.47018"><ele>2174.8</ele><time>2017-08-25T10:37:09Z</time></trkpt>
<trkpt lat="46.17436" lon="7.47018"><ele>2174.8</ele><time>2017-08-25T10:37:10Z</time></trkpt>
<trkpt lat="46.17436" lon="7.47018"><ele>2174.8</ele><time>2017-08-25T10:37:16Z</time></trkpt>
<trkpt lat="46.17437" lon="7.47019"><ele>2174.6</ele><time>2017-08-25T10:37:20Z</time></trkpt>
<trkpt lat="46.17438" lon="7.47018"><ele>2174.6</ele><time>2017-08-25T10:37:26Z</time></trkpt>
<trkpt lat="46.17437" lon="7.47018"><ele>2174.6</ele><time>2017-08-25T10:37:28Z</time></trkpt>
<trkpt lat="46.17437" lon="7.47018"><ele>2174.4</ele><time>2017-08-25T10:37:32Z</time></trkpt>
<trkpt lat="46.17437" lon="7.47017"><ele>2174.4</ele><time>2017-08-25T10:37:42Z</time></trkpt>
<trkpt lat="46.17437" lon="7.47017"><ele>2174.4</ele><time>2017-08-25T10:37:44Z</time></trkpt>
<trkpt lat="46.17436" lon="7.47022"><ele>2174.2</ele><time>2017-08-25T10:37:54Z</time></trkpt>
<trkpt lat="46.17436" lon="7.47022"><ele>2174.2</ele><time>2017-08-25T10:38:03Z</time></trkpt>
<trkpt lat="46.17436" lon="7.47022"><ele>2174.2</ele><time>2017-08-25T10:38:04Z</time></trkpt>
<trkpt lat="46.17437" lon="7.47023"><ele>2174.4</ele><time>2017-08-25T10:38:10Z</time></trkpt>
<trkpt lat="46.17439" lon="7.47018"><ele>2174.4</ele><time>2017-08-25T10:38:19Z</time></trkpt>
<trkpt lat="46.17439" lon="7.47017"><ele>2174.4</ele><time>2017-08-25T10:38:24Z</time></trkpt>
<trkpt lat="46.17445" lon="7.47009"><ele>2174.6</ele><time>2017-08-25T10:38:33Z</time></trkpt>
<trkpt lat="46.17449" lon="7.47009"><ele>2175</ele><time>2017-08-25T10:38:40Z</time></trkpt>
<trkpt lat="46.17454" lon="7.4701"><ele>2175.6</ele><time>2017-08-25T10:38:52Z</time></trkpt>
<trkpt lat="46.17455" lon="7.47009"><ele>2175.8</ele><time>2017-08-25T10:38:54Z</time></trkpt>
<trkpt lat="46.17459" lon="7.47009"><ele>2176.6</ele><time>2017-08-25T10:39:05Z</time></trkpt>
<trkpt lat="46.1746" lon="7.47009"><ele>2177.2</ele><time>2017-08-25T10:39:08Z</time></trkpt>
<trkpt lat="46.17462" lon="7.47009"><ele>2177.8</ele><time>2017-08-25T10:39:14Z</time></trkpt>
<trkpt lat="46.17466" lon="7.4701"><ele>2178.4</ele><time>2017-08-25T10:39:22Z</time></trkpt>
<trkpt lat="46.17473" lon="7.47005"><ele>2181.2</ele><time>2017-08-25T10:39:41Z</time></trkpt>
<trkpt lat="46.1749" lon="7.46994"><ele>2186.6</ele><time>2017-08-25T10:40:18Z</time></trkpt>
<trkpt lat="46.17505" lon="7.46991"><ele>2190.6</ele><time>2017-08-25T10:40:41Z</time></trkpt>
<trkpt lat="46.17509" lon="7.46993"><ele>2191.8</ele><time>2017-08-25T10:40:49Z</time></trkpt>
<trkpt lat="46.1752" lon="7.46997"><ele>2195.8</ele><time>2017-08-25T10:41:20Z</time></trkpt>
<trkpt lat="46.17535" lon="7.46986"><ele>2199.4</ele><time>2017-08-25T10:42:14Z</time></trkpt>
<trkpt lat="46.1754" lon="7.46983"><ele>2200.6</ele><time>2017-08-25T10:42:31Z</time></trkpt>
<trkpt lat="46.17556" lon="7.4697"><ele>2207.6</ele><time>2017-08-25T10:43:17Z</time></trkpt>
<trkpt lat="46.17571" lon="7.46954"><ele>2215.4</ele><time>2017-08-25T10:43:58Z</time></trkpt>
<trkpt lat="46.17574" lon="7.46951"><ele>2216</ele><time>2017-08-25T10:44:04Z</time></trkpt>
<trkpt lat="46.17576" lon="7.4695"><ele>2216.4</ele><time>2017-08-25T10:44:07Z</time></trkpt>
<trkpt lat="46.17576" lon="7.4695"><ele>2216.4</ele><time>2017-08-25T10:44:08Z</time></trkpt>
<trkpt lat="46.17579" lon="7.46949"><ele>2216.6</ele><time>2017-08-25T10:44:22Z</time></trkpt>
<trkpt lat="46.17584" lon="7.46943"><ele>2218.2</ele><time>2017-08-25T10:44:48Z</time></trkpt>
<trkpt lat="46.17588" lon="7.46942"><ele>2220.8</ele><time>2017-08-25T10:44:57Z</time></trkpt>
<trkpt lat="46.17587" lon="7.46942"><ele>2220.8</ele><time>2017-08-25T10:44:59Z</time></trkpt>
<trkpt lat="46.17587" lon="7.46942"><ele>2220.6</ele><time>2017-08-25T10:45:04Z</time></trkpt>
<trkpt lat="46.17588" lon="7.46943"><ele>2220</ele><time>2017-08-25T10:45:17Z</time></trkpt>
<trkpt lat="46.17587" lon="7.46943"><ele>2220.2</ele><time>2017-08-25T10:45:29Z</time></trkpt>
<trkpt lat="46.17597" lon="7.46939"><ele>2221.2</ele><time>2017-08-25T10:46:03Z</time></trkpt>
<trkpt lat="46.17603" lon="7.46933"><ele>2224.6</ele><time>2017-08-25T10:46:19Z</time></trkpt>
<trkpt lat="46.17609" lon="7.46926"><ele>2227.4</ele><time>2017-08-25T10:46:36Z</time></trkpt>
<trkpt lat="46.1761" lon="7.46923"><ele>2228.2</ele><time>2017-08-25T10:46:41Z</time></trkpt>
<trkpt lat="46.17616" lon="7.46919"><ele>2230.4</ele><time>2017-08-25T10:46:56Z</time></trkpt>
<trkpt lat="46.17627" lon="7.46913"><ele>2234</ele><time>2017-08-25T10:47:19Z</time></trkpt>
<trkpt lat="46.17646" lon="7.46907"><ele>2238</ele><time>2017-08-25T10:48:00Z</time></trkpt>
<trkpt lat="46.17649" lon="7.469"><ele>2238.4</ele><time>2017-08-25T10:48:09Z</time></trkpt>
<trkpt lat="46.17649" lon="7.469"><ele>2237.8</ele><time>2017-08-25T10:48:25Z</time></trkpt>
<trkpt lat="46.17662" lon="7.46878"><ele>2236</ele><time>2017-08-25T10:48:34Z</time></trkpt>
<trkpt lat="46.17678" lon="7.4686"><ele>2235.6</ele><time>2017-08-25T10:48:40Z</time></trkpt>
<trkpt lat="46.17685" lon="7.46855"><ele>2236</ele><time>2017-08-25T10:48:45Z</time></trkpt>
<trkpt lat="46.17698" lon="7.46845"><ele>2235.8</ele><time>2017-08-25T10:48:54Z</time></trkpt>
<trkpt lat="46.17711" lon="7.46838"><ele>2234.6</ele><time>2017-08-25T10:48:59Z</time></trkpt>
<trkpt lat="46.17728" lon="7.46828"><ele>2235.8</ele><time>2017-08-25T10:49:11Z</time></trkpt>
<trkpt lat="46.17746" lon="7.46819"><ele>2235.8</ele><time>2017-08-25T10:49:22Z</time></trkpt>
<trkpt lat="46.17763" lon="7.46815"><ele>2235.6</ele><time>2017-08-25T10:49:32Z</time></trkpt>
<trkpt lat="46.1777" lon="7.46805"><ele>2236.8</ele><time>2017-08-25T10:49:38Z</time></trkpt>
<trkpt lat="46.17791" lon="7.46784"><ele>2237</ele><time>2017-08-25T10:49:52Z</time></trkpt>
<trkpt lat="46.17809" lon="7.46783"><ele>2236.6</ele><time>2017-08-25T10:50:03Z</time></trkpt>
<trkpt lat="46.17827" lon="7.46773"><ele>2236</ele><time>2017-08-25T10:50:14Z</time></trkpt>
<trkpt lat="46.17839" lon="7.46764"><ele>2235.6</ele><time>2017-08-25T10:50:20Z</time></trkpt>
<trkpt lat="46.17846" lon="7.46758"><ele>2235.4</ele><time>2017-08-25T10:50:25Z</time></trkpt>
<trkpt lat="46.17853" lon="7.46751"><ele>2235.4</ele><time>2017-08-25T10:50:30Z</time></trkpt>
<trkpt lat="46.17855" lon="7.46747"><ele>2235.6</ele><time>2017-08-25T10:50:32Z</time></trkpt>
<trkpt lat="46.17857" lon="7.46738"><ele>2236</ele><time>2017-08-25T10:50:37Z</time></trkpt>
<trkpt lat="46.17872" lon="7.46722"><ele>2237.2</ele><time>2017-08-25T10:50:53Z</time></trkpt>
<trkpt lat="46.17876" lon="7.46729"><ele>2237.6</ele><time>2017-08-25T10:51:12Z</time></trkpt>
<trkpt lat="46.17878" lon="7.4673"><ele>2237.4</ele><time>2017-08-25T10:51:23Z</time></trkpt>
<trkpt lat="46.17877" lon="7.46731"><ele>2237.8</ele><time>2017-08-25T10:51:35Z</time></trkpt>
<trkpt lat="46.17877" lon="7.4673"><ele>2238</ele><time>2017-08-25T10:51:49Z</time></trkpt>
<trkpt lat="46.17877" lon="7.4673"><ele>2238</ele><time>2017-08-25T10:52:01Z</time></trkpt>
<trkpt lat="46.17877" lon="7.4673"><ele>2237.8</ele><time>2017-08-25T10:52:17Z</time></trkpt>
<trkpt lat="46.17877" lon="7.4673"><ele>2237.8</ele><time>2017-08-25T10:52:19Z</time></trkpt>
<trkpt lat="46.17872" lon="7.46727"><ele>2237.6</ele><time>2017-08-25T10:52:25Z</time></trkpt>
<trkpt lat="46.17882" lon="7.46709"><ele>2237.6</ele><time>2017-08-25T10:52:37Z</time></trkpt>
<trkpt lat="46.17884" lon="7.46708"><ele>2237.6</ele><time>2017-08-25T10:52:42Z</time></trkpt>
<trkpt lat="46.17891" lon="7.46699"><ele>2238.2</ele><time>2017-08-25T10:52:57Z</time></trkpt>
<trkpt lat="46.17896" lon="7.46697"><ele>2238.6</ele><time>2017-08-25T10:53:07Z</time></trkpt>
<trkpt lat="46.17896" lon="7.46696"><ele>2238.6</ele><time>2017-08-25T10:53:08Z</time></trkpt>
<trkpt lat="46.17906" lon="7.46686"><ele>2240</ele><time>2017-08-25T10:53:25Z</time></trkpt>
<trkpt lat="46.17906" lon="7.46684"><ele>2240.4</ele><time>2017-08-25T10:53:28Z</time></trkpt>
<trkpt lat="46.17907" lon="7.46682"><ele>2240.6</ele><time>2017-08-25T10:53:30Z</time></trkpt>
<trkpt lat="46.1791" lon="7.46673"><ele>2241.4</ele><time>2017-08-25T10:53:39Z</time></trkpt>
<trkpt lat="46.17924" lon="7.46672"><ele>2244.4</ele><time>2017-08-25T10:54:11Z</time></trkpt>
<trkpt lat="46.17931" lon="7.46676"><ele>2246.8</ele><time>2017-08-25T10:54:36Z</time></trkpt>
<trkpt lat="46.17946" lon="7.46692"><ele>2246.8</ele><time>2017-08-25T10:55:08Z</time></trkpt>
<trkpt lat="46.17965" lon="7.4671"><ele>2246.8</ele><time>2017-08-25T10:55:18Z</time></trkpt>
<trkpt lat="46.17973" lon="7.46708"><ele>2247.6</ele><time>2017-08-25T10:55:24Z</time></trkpt>
<trkpt lat="46.17977" lon="7.46712"><ele>2248</ele><time>2017-08-25T10:55:28Z</time></trkpt>
<trkpt lat="46.1799" lon="7.4673"><ele>2249.4</ele><time>2017-08-25T10:55:43Z</time></trkpt>
<trkpt lat="46.17993" lon="7.46734"><ele>2249.6</ele><time>2017-08-25T10:55:46Z</time></trkpt>
<trkpt lat="46.17997" lon="7.4674"><ele>2250</ele><time>2017-08-25T10:55:50Z</time></trkpt>
<trkpt lat="46.18001" lon="7.46745"><ele>2250.2</ele><time>2017-08-25T10:55:54Z</time></trkpt>
<trkpt lat="46.18009" lon="7.46755"><ele>2251.2</ele><time>2017-08-25T10:56:03Z</time></trkpt>
<trkpt lat="46.18022" lon="7.46771"><ele>2252.2</ele><time>2017-08-25T10:56:15Z</time></trkpt>
<trkpt lat="46.18033" lon="7.46792"><ele>2252.2</ele><time>2017-08-25T10:56:23Z</time></trkpt>
<trkpt lat="46.18044" lon="7.46802"><ele>2251.2</ele><time>2017-08-25T10:56:29Z</time></trkpt>
<trkpt lat="46.18062" lon="7.46805"><ele>2251.6</ele><time>2017-08-25T10:56:38Z</time></trkpt>
<trkpt lat="46.18068" lon="7.4681"><ele>2251.6</ele><time>2017-08-25T10:56:42Z</time></trkpt>
<trkpt lat="46.18072" lon="7.46814"><ele>2252.4</ele><time>2017-08-25T10:56:45Z</time></trkpt>
<trkpt lat="46.18083" lon="7.46823"><ele>2254.4</ele><time>2017-08-25T10:56:55Z</time></trkpt>
<trkpt lat="46.18091" lon="7.46829"><ele>2255.8</ele><time>2017-08-25T10:57:03Z</time></trkpt>
<trkpt lat="46.18094" lon="7.46832"><ele>2256.4</ele><time>2017-08-25T10:57:06Z</time></trkpt>
<trkpt lat="46.18101" lon="7.46835"><ele>2256.4</ele><time>2017-08-25T10:57:11Z</time></trkpt>
<trkpt lat="46.18118" lon="7.46842"><ele>2257.2</ele><time>2017-08-25T10:57:25Z</time></trkpt>
<trkpt lat="46.18123" lon="7.46845"><ele>2257.4</ele><time>2017-08-25T10:57:29Z</time></trkpt>
<trkpt lat="46.18128" lon="7.46848"><ele>2257.4</ele><time>2017-08-25T10:57:33Z</time></trkpt>
<trkpt lat="46.18143" lon="7.46852"><ele>2256</ele><time>2017-08-25T10:57:42Z</time></trkpt>
<trkpt lat="46.18146" lon="7.46854"><ele>2256.4</ele><time>2017-08-25T10:57:45Z</time></trkpt>
<trkpt lat="46.18146" lon="7.46854"><ele>2256.4</ele><time>2017-08-25T10:57:51Z</time></trkpt>
<trkpt lat="46.18147" lon="7.46855"><ele>2256.2</ele><time>2017-08-25T10:58:01Z</time></trkpt>
<trkpt lat="46.18149" lon="7.46856"><ele>2256</ele><time>2017-08-25T10:58:05Z</time></trkpt>
<trkpt lat="46.18154" lon="7.46859"><ele>2256</ele><time>2017-08-25T10:58:08Z</time></trkpt>
<trkpt lat="46.18173" lon="7.46866"><ele>2256.6</ele><time>2017-08-25T10:58:20Z</time></trkpt>
<trkpt lat="46.18177" lon="7.46869"><ele>2255.8</ele><time>2017-08-25T10:58:22Z</time></trkpt>
<trkpt lat="46.1819" lon="7.46875"><ele>2255.4</ele><time>2017-08-25T10:58:26Z</time></trkpt>
<trkpt lat="46.18192" lon="7.46876"><ele>2255.4</ele><time>2017-08-25T10:58:27Z</time></trkpt>
<trkpt lat="46.18194" lon="7.46876"><ele>2255.2</ele><time>2017-08-25T10:58:28Z</time></trkpt>
<trkpt lat="46.18219" lon="7.46877"><ele>2253.2</ele><time>2017-08-25T10:58:44Z</time></trkpt>
<trkpt lat="46.18238" lon="7.46877"><ele>2254.2</ele><time>2017-08-25T10:58:57Z</time></trkpt>
<trkpt lat="46.18243" lon="7.4688"><ele>2255.4</ele><time>2017-08-25T10:59:01Z</time></trkpt>
<trkpt lat="46.18243" lon="7.4688"><ele>2255.4</ele><time>2017-08-25T10:59:02Z</time></trkpt>
<trkpt lat="46.18248" lon="7.4688"><ele>2255.6</ele><time>2017-08-25T10:59:06Z</time></trkpt>
<trkpt lat="46.18257" lon="7.46884"><ele>2256.8</ele><time>2017-08-25T10:59:15Z</time></trkpt>
<trkpt lat="46.1826" lon="7.46885"><ele>2257.2</ele><time>2017-08-25T10:59:45Z</time></trkpt>
<trkpt lat="46.1826" lon="7.46885"><ele>2257.6</ele><time>2017-08-25T10:59:56Z</time></trkpt>
<trkpt lat="46.1826" lon="7.46885"><ele>2257.4</ele><time>2017-08-25T11:00:07Z</time></trkpt>
<trkpt lat="46.1826" lon="7.46885"><ele>2257.6</ele><time>2017-08-25T11:00:12Z</time></trkpt>
<trkpt lat="46.18246" lon="7.46881"><ele>2257.4</ele><time>2017-08-25T11:00:38Z</time></trkpt>
<trkpt lat="46.18233" lon="7.46878"><ele>2256</ele><time>2017-08-25T11:00:44Z</time></trkpt>
<trkpt lat="46.18215" lon="7.46878"><ele>2254.4</ele><time>2017-08-25T11:00:51Z</time></trkpt>
<trkpt lat="46.18197" lon="7.46875"><ele>2253</ele><time>2017-08-25T11:01:00Z</time></trkpt>
<trkpt lat="46.18175" lon="7.46867"><ele>2251.8</ele><time>2017-08-25T11:01:13Z</time></trkpt>
<trkpt lat="46.18172" lon="7.46866"><ele>2252.4</ele><time>2017-08-25T11:01:16Z</time></trkpt>
<trkpt lat="46.18172" lon="7.46865"><ele>2252.4</ele><time>2017-08-25T11:01:19Z</time></trkpt>
<trkpt lat="46.18167" lon="7.46862"><ele>2253.2</ele><time>2017-08-25T11:01:31Z</time></trkpt>
<trkpt lat="46.18149" lon="7.46856"><ele>2253</ele><time>2017-08-25T11:01:40Z</time></trkpt>
<trkpt lat="46.18148" lon="7.46856"><ele>2253</ele><time>2017-08-25T11:01:41Z</time></trkpt>
<trkpt lat="46.18143" lon="7.46853"><ele>2252.6</ele><time>2017-08-25T11:02:01Z</time></trkpt>
<trkpt lat="46.18136" lon="7.46853"><ele>2252.8</ele><time>2017-08-25T11:02:06Z</time></trkpt>
<trkpt lat="46.18121" lon="7.46855"><ele>2254</ele><time>2017-08-25T11:02:59Z</time></trkpt>
<trkpt lat="46.18114" lon="7.46859"><ele>2254.4</ele><time>2017-08-25T11:03:13Z</time></trkpt>
<trkpt lat="46.18106" lon="7.46876"><ele>2257</ele><time>2017-08-25T11:03:54Z</time></trkpt>
<trkpt lat="46.18104" lon="7.46884"><ele>2258</ele><time>2017-08-25T11:04:08Z</time></trkpt>
<trkpt lat="46.18103" lon="7.46888"><ele>2258.8</ele><time>2017-08-25T11:04:16Z</time></trkpt>
<trkpt lat="46.18103" lon="7.46896"><ele>2260</ele><time>2017-08-25T11:04:31Z</time></trkpt>
<trkpt lat="46.1809" lon="7.46901"><ele>2264.2</ele><time>2017-08-25T11:05:15Z</time></trkpt>
<trkpt lat="46.18092" lon="7.46915"><ele>2268.8</ele><time>2017-08-25T11:05:54Z</time></trkpt>
<trkpt lat="46.18086" lon="7.46924"><ele>2272.6</ele><time>2017-08-25T11:06:23Z</time></trkpt>
<trkpt lat="46.18078" lon="7.46928"><ele>2275</ele><time>2017-08-25T11:06:47Z</time></trkpt>
<trkpt lat="46.18064" lon="7.46938"><ele>2285.8</ele><time>2017-08-25T11:07:46Z</time></trkpt>
<trkpt lat="46.18046" lon="7.46937"><ele>2293.6</ele><time>2017-08-25T11:08:32Z</time></trkpt>
<trkpt lat="46.18034" lon="7.46931"><ele>2296.2</ele><time>2017-08-25T11:08:59Z</time></trkpt>
<trkpt lat="46.18019" lon="7.46928"><ele>2299</ele><time>2017-08-25T11:09:37Z</time></trkpt>
<trkpt lat="46.18006" lon="7.46945"><ele>2304.2</ele><time>2017-08-25T11:10:19Z</time></trkpt>
<trkpt lat="46.18" lon="7.46954"><ele>2307.2</ele><time>2017-08-25T11:10:42Z</time></trkpt>
<trkpt lat="46.17996" lon="7.46962"><ele>2309.4</ele><time>2017-08-25T11:11:00Z</time></trkpt>
<trkpt lat="46.1799" lon="7.46988"><ele>2315.8</ele><time>2017-08-25T11:11:49Z</time></trkpt>
<trkpt lat="46.17987" lon="7.47011"><ele>2320.8</ele><time>2017-08-25T11:12:34Z</time></trkpt>
<trkpt lat="46.1799" lon="7.47018"><ele>2321.8</ele><time>2017-08-25T11:12:49Z</time></trkpt>
<trkpt lat="46.17993" lon="7.47042"><ele>2325.2</ele><time>2017-08-25T11:13:30Z</time></trkpt>
<trkpt lat="46.17989" lon="7.4705"><ele>2327.8</ele><time>2017-08-25T11:13:55Z</time></trkpt>
<trkpt lat="46.17983" lon="7.47041"><ele>2329</ele><time>2017-08-25T11:14:13Z</time></trkpt>
<trkpt lat="46.17976" lon="7.47025"><ele>2328.2</ele><time>2017-08-25T11:14:50Z</time></trkpt>
<trkpt lat="46.17974" lon="7.47023"><ele>2328</ele><time>2017-08-25T11:15:01Z</time></trkpt>
<trkpt lat="46.17974" lon="7.47024"><ele>2328</ele><time>2017-08-25T11:15:09Z</time></trkpt>
<trkpt lat="46.17975" lon="7.47024"><ele>2328.4</ele><time>2017-08-25T11:15:44Z</time></trkpt>
<trkpt lat="46.17974" lon="7.47024"><ele>2328.2</ele><time>2017-08-25T11:15:46Z</time></trkpt>
<trkpt lat="46.17974" lon="7.47024"><ele>2328.2</ele><time>2017-08-25T11:15:47Z</time></trkpt>
<trkpt lat="46.17974" lon="7.47024"><ele>2328</ele><time>2017-08-25T11:15:48Z</time></trkpt>
<trkpt lat="46.17978" lon="7.47025"><ele>2327.4</ele><time>2017-08-25T11:15:56Z</time></trkpt>
<trkpt lat="46.17975" lon="7.47022"><ele>2326.6</ele><time>2017-08-25T11:16:04Z</time></trkpt>
<trkpt lat="46.17974" lon="7.47022"><ele>2326.8</ele><time>2017-08-25T11:16:08Z</time></trkpt>
<trkpt lat="46.17973" lon="7.47023"><ele>2327</ele><time>2017-08-25T11:16:19Z</time></trkpt>
<trkpt lat="46.17973" lon="7.47024"><ele>2328</ele><time>2017-08-25T11:17:10Z</time></trkpt>
<trkpt lat="46.1797" lon="7.47039"><ele>2329.8</ele><time>2017-08-25T11:17:46Z</time></trkpt>
<trkpt lat="46.17971" lon="7.47043"><ele>2330.2</ele><time>2017-08-25T11:17:51Z</time></trkpt>
<trkpt lat="46.17971" lon="7.47044"><ele>2330.2</ele><time>2017-08-25T11:17:52Z</time></trkpt>
<trkpt lat="46.17971" lon="7.47045"><ele>2330.4</ele><time>2017-08-25T11:17:54Z</time></trkpt>
<trkpt lat="46.17972" lon="7.47072"><ele>2335.6</ele><time>2017-08-25T11:18:26Z</time></trkpt>
<trkpt lat="46.17975" lon="7.4708"><ele>2337.2</ele><time>2017-08-25T11:18:39Z</time></trkpt>
<trkpt lat="46.17976" lon="7.47082"><ele>2337.6</ele><time>2017-08-25T11:18:41Z</time></trkpt>
<trkpt lat="46.17977" lon="7.47085"><ele>2338.2</ele><time>2017-08-25T11:18:45Z</time></trkpt>
<trkpt lat="46.17979" lon="7.47108"><ele>2342.2</ele><time>2017-08-25T11:19:15Z</time></trkpt>
<trkpt lat="46.17979" lon="7.4711"><ele>2342.4</ele><time>2017-08-25T11:19:18Z</time></trkpt>
<trkpt lat="46.17981" lon="7.47116"><ele>2343.6</ele><time>2017-08-25T11:19:28Z</time></trkpt>
<trkpt lat="46.17982" lon="7.4712"><ele>2344.6</ele><time>2017-08-25T11:19:35Z</time></trkpt>
<trkpt lat="46.17983" lon="7.47128"><ele>2346.2</ele><time>2017-08-25T11:19:48Z</time></trkpt>
<trkpt lat="46.17985" lon="7.47135"><ele>2348.4</ele><time>2017-08-25T11:20:07Z</time></trkpt>
<trkpt lat="46.17988" lon="7.47143"><ele>2350</ele><time>2017-08-25T11:20:27Z</time></trkpt>
<trkpt lat="46.1799" lon="7.47151"><ele>2352.4</ele><time>2017-08-25T11:20:41Z</time></trkpt>
<trkpt lat="46.17991" lon="7.47162"><ele>2354.4</ele><time>2017-08-25T11:20:57Z</time></trkpt>
<trkpt lat="46.17995" lon="7.47175"><ele>2356.8</ele><time>2017-08-25T11:21:20Z</time></trkpt>
<trkpt lat="46.17996" lon="7.4718"><ele>2358</ele><time>2017-08-25T11:21:29Z</time></trkpt>
<trkpt lat="46.17995" lon="7.47186"><ele>2359.2</ele><time>2017-08-25T11:21:38Z</time></trkpt>
<trkpt lat="46.17996" lon="7.47188"><ele>2359.6</ele><time>2017-08-25T11:21:42Z</time></trkpt>
<trkpt lat="46.17997" lon="7.47192"><ele>2360.2</ele><time>2017-08-25T11:21:48Z</time></trkpt>
<trkpt lat="46.17997" lon="7.47194"><ele>2360.6</ele><time>2017-08-25T11:21:51Z</time></trkpt>
<trkpt lat="46.17999" lon="7.472"><ele>2361.4</ele><time>2017-08-25T11:22:01Z</time></trkpt>
<trkpt lat="46.18" lon="7.47201"><ele>2361.4</ele><time>2017-08-25T11:22:03Z</time></trkpt>
<trkpt lat="46.18" lon="7.47215"><ele>2363</ele><time>2017-08-25T11:22:23Z</time></trkpt>
<trkpt lat="46.18" lon="7.47222"><ele>2363.6</ele><time>2017-08-25T11:22:32Z</time></trkpt>
<trkpt lat="46.18" lon="7.47231"><ele>2364.6</ele><time>2017-08-25T11:22:42Z</time></trkpt>
<trkpt lat="46.18002" lon="7.47247"><ele>2367.2</ele><time>2017-08-25T11:23:01Z</time></trkpt>
<trkpt lat="46.18001" lon="7.47249"><ele>2367.4</ele><time>2017-08-25T11:23:06Z</time></trkpt>
<trkpt lat="46.18" lon="7.47255"><ele>2368.8</ele><time>2017-08-25T11:23:15Z</time></trkpt>
<trkpt lat="46.17998" lon="7.47264"><ele>2370.4</ele><time>2017-08-25T11:23:28Z</time></trkpt>
<trkpt lat="46.17995" lon="7.47284"><ele>2372.8</ele><time>2017-08-25T11:23:49Z</time></trkpt>
<trkpt lat="46.17993" lon="7.473"><ele>2374.6</ele><time>2017-08-25T11:24:06Z</time></trkpt>
<trkpt lat="46.17993" lon="7.47301"><ele>2374.8</ele><time>2017-08-25T11:24:07Z</time></trkpt>
<trkpt lat="46.17992" lon="7.47305"><ele>2375.6</ele><time>2017-08-25T11:24:13Z</time></trkpt>
<trkpt lat="46.17989" lon="7.47315"><ele>2377</ele><time>2017-08-25T11:24:25Z</time></trkpt>
<trkpt lat="46.17988" lon="7.47322"><ele>2378.2</ele><time>2017-08-25T11:24:35Z</time></trkpt>
<trkpt lat="46.17987" lon="7.47327"><ele>2379</ele><time>2017-08-25T11:24:43Z</time></trkpt>
<trkpt lat="46.17983" lon="7.47333"><ele>2379.8</ele><time>2017-08-25T11:24:56Z</time></trkpt>
<trkpt lat="46.17983" lon="7.47339"><ele>2380.6</ele><time>2017-08-25T11:25:05Z</time></trkpt>
<trkpt lat="46.17977" lon="7.47346"><ele>2382.2</ele><time>2017-08-25T11:25:19Z</time></trkpt>
<trkpt lat="46.17975" lon="7.47346"><ele>2382.6</ele><time>2017-08-25T11:25:22Z</time></trkpt>
<trkpt lat="46.17972" lon="7.47349"><ele>2383.8</ele><time>2017-08-25T11:25:33Z</time></trkpt>
<trkpt lat="46.17971" lon="7.4735"><ele>2384.2</ele><time>2017-08-25T11:25:36Z</time></trkpt>
<trkpt lat="46.17968" lon="7.47349"><ele>2385</ele><time>2017-08-25T11:25:43Z</time></trkpt>
<trkpt lat="46.17964" lon="7.47347"><ele>2386</ele><time>2017-08-25T11:26:17Z</time></trkpt>
<trkpt lat="46.17964" lon="7.47347"><ele>2386</ele><time>2017-08-25T11:26:25Z</time></trkpt>
<trkpt lat="46.17965" lon="7.47349"><ele>2386.2</ele><time>2017-08-25T11:26:29Z</time></trkpt>
<trkpt lat="46.17966" lon="7.47356"><ele>2388.4</ele><time>2017-08-25T11:26:36Z</time></trkpt>
<trkpt lat="46.17966" lon="7.47368"><ele>2390.2</ele><time>2017-08-25T11:26:55Z</time></trkpt>
<trkpt lat="46.17965" lon="7.47372"><ele>2390.8</ele><time>2017-08-25T11:27:01Z</time></trkpt>
<trkpt lat="46.17964" lon="7.47378"><ele>2391.4</ele><time>2017-08-25T11:27:10Z</time></trkpt>
<trkpt lat="46.17956" lon="7.47385"><ele>2394</ele><time>2017-08-25T11:27:34Z</time></trkpt>
<trkpt lat="46.17956" lon="7.47386"><ele>2394.6</ele><time>2017-08-25T11:27:38Z</time></trkpt>
<trkpt lat="46.17955" lon="7.47388"><ele>2394.8</ele><time>2017-08-25T11:27:42Z</time></trkpt>
<trkpt lat="46.17953" lon="7.47392"><ele>2396.6</ele><time>2017-08-25T11:27:52Z</time></trkpt>
<trkpt lat="46.17952" lon="7.47393"><ele>2397</ele><time>2017-08-25T11:27:55Z</time></trkpt>
<trkpt lat="46.17947" lon="7.47397"><ele>2398.8</ele><time>2017-08-25T11:28:12Z</time></trkpt>
<trkpt lat="46.17946" lon="7.47398"><ele>2398.2</ele><time>2017-08-25T11:28:24Z</time></trkpt>
<trkpt lat="46.17947" lon="7.47399"><ele>2398.4</ele><time>2017-08-25T11:28:32Z</time></trkpt>
<trkpt lat="46.17947" lon="7.47401"><ele>2398.8</ele><time>2017-08-25T11:28:35Z</time></trkpt>
<trkpt lat="46.17947" lon="7.47404"><ele>2399.4</ele><time>2017-08-25T11:28:41Z</time></trkpt>
<trkpt lat="46.17948" lon="7.47408"><ele>2400</ele><time>2017-08-25T11:28:50Z</time></trkpt>
<trkpt lat="46.17948" lon="7.47412"><ele>2400.6</ele><time>2017-08-25T11:28:59Z</time></trkpt>
<trkpt lat="46.1795" lon="7.47419"><ele>2402.2</ele><time>2017-08-25T11:29:11Z</time></trkpt>
<trkpt lat="46.17952" lon="7.47423"><ele>2403.8</ele><time>2017-08-25T11:29:19Z</time></trkpt>
<trkpt lat="46.17952" lon="7.47426"><ele>2405</ele><time>2017-08-25T11:29:24Z</time></trkpt>
<trkpt lat="46.17952" lon="7.47427"><ele>2405.4</ele><time>2017-08-25T11:29:26Z</time></trkpt>
<trkpt lat="46.17952" lon="7.47433"><ele>2406.2</ele><time>2017-08-25T11:29:34Z</time></trkpt>
<trkpt lat="46.17952" lon="7.47437"><ele>2407.2</ele><time>2017-08-25T11:29:42Z</time></trkpt>
<trkpt lat="46.17955" lon="7.4745"><ele>2410.4</ele><time>2017-08-25T11:30:05Z</time></trkpt>
<trkpt lat="46.17958" lon="7.47447"><ele>2411</ele><time>2017-08-25T11:30:12Z</time></trkpt>
<trkpt lat="46.17959" lon="7.47446"><ele>2411.6</ele><time>2017-08-25T11:30:15Z</time></trkpt>
<trkpt lat="46.17968" lon="7.47449"><ele>2415.2</ele><time>2017-08-25T11:30:39Z</time></trkpt>
<trkpt lat="46.17968" lon="7.47456"><ele>2417</ele><time>2017-08-25T11:30:57Z</time></trkpt>
<trkpt lat="46.1797" lon="7.47458"><ele>2419</ele><time>2017-08-25T11:31:07Z</time></trkpt>
<trkpt lat="46.17974" lon="7.47463"><ele>2421</ele><time>2017-08-25T11:31:20Z</time></trkpt>
<trkpt lat="46.17975" lon="7.47465"><ele>2421.6</ele><time>2017-08-25T11:31:25Z</time></trkpt>
<trkpt lat="46.17977" lon="7.47467"><ele>2423.4</ele><time>2017-08-25T11:31:31Z</time></trkpt>
<trkpt lat="46.17978" lon="7.47468"><ele>2423.6</ele><time>2017-08-25T11:31:34Z</time></trkpt>
<trkpt lat="46.17981" lon="7.47469"><ele>2424.8</ele><time>2017-08-25T11:31:41Z</time></trkpt>
<trkpt lat="46.17981" lon="7.47476"><ele>2425.8</ele><time>2017-08-25T11:31:56Z</time></trkpt>
<trkpt lat="46.17983" lon="7.47482"><ele>2428</ele><time>2017-08-25T11:32:13Z</time></trkpt>
<trkpt lat="46.17985" lon="7.47486"><ele>2429.4</ele><time>2017-08-25T11:32:20Z</time></trkpt>
<trkpt lat="46.17989" lon="7.47496"><ele>2430.8</ele><time>2017-08-25T11:32:32Z</time></trkpt>
<trkpt lat="46.17989" lon="7.47512"><ele>2433.2</ele><time>2017-08-25T11:32:54Z</time></trkpt>
<trkpt lat="46.17989" lon="7.47514"><ele>2433.4</ele><time>2017-08-25T11:32:58Z</time></trkpt>
<trkpt lat="46.17988" lon="7.4752"><ele>2434.6</ele><time>2017-08-25T11:33:08Z</time></trkpt>
<trkpt lat="46.17988" lon="7.47531"><ele>2435.8</ele><time>2017-08-25T11:33:26Z</time></trkpt>
<trkpt lat="46.17987" lon="7.47532"><ele>2435.6</ele><time>2017-08-25T11:33:34Z</time></trkpt>
<trkpt lat="46.17987" lon="7.47533"><ele>2435.6</ele><time>2017-08-25T11:33:35Z</time></trkpt>
<trkpt lat="46.17987" lon="7.47533"><ele>2435.6</ele><time>2017-08-25T11:33:36Z</time></trkpt>
<trkpt lat="46.17986" lon="7.47543"><ele>2435.8</ele><time>2017-08-25T11:33:54Z</time></trkpt>
<trkpt lat="46.17986" lon="7.47543"><ele>2435.8</ele><time>2017-08-25T11:33:55Z</time></trkpt>
<trkpt lat="46.17986" lon="7.47543"><ele>2435.8</ele><time>2017-08-25T11:33:56Z</time></trkpt>
<trkpt lat="46.17986" lon="7.47543"><ele>2435.8</ele><time>2017-08-25T11:33:57Z</time></trkpt>
<trkpt lat="46.17986" lon="7.47543"><ele>2435.6</ele><time>2017-08-25T11:33:58Z</time></trkpt>
<trkpt lat="46.17986" lon="7.47544"><ele>2435.6</ele><time>2017-08-25T11:33:59Z</time></trkpt>
<trkpt lat="46.17986" lon="7.47547"><ele>2435.8</ele><time>2017-08-25T11:34:02Z</time></trkpt>
<trkpt lat="46.17986" lon="7.47555"><ele>2436.6</ele><time>2017-08-25T11:34:10Z</time></trkpt>
<trkpt lat="46.17987" lon="7.47566"><ele>2437.4</ele><time>2017-08-25T11:35:08Z</time></trkpt>
<trkpt lat="46.17987" lon="7.47565"><ele>2437.6</ele><time>2017-08-25T11:35:11Z</time></trkpt>
<trkpt lat="46.17976" lon="7.47579"><ele>2436.2</ele><time>2017-08-25T11:35:27Z</time></trkpt>
<trkpt lat="46.17959" lon="7.47576"><ele>2438.8</ele><time>2017-08-25T11:36:07Z</time></trkpt>
<trkpt lat="46.17958" lon="7.47575"><ele>2439</ele><time>2017-08-25T11:36:10Z</time></trkpt>
<trkpt lat="46.1795" lon="7.47577"><ele>2439</ele><time>2017-08-25T11:36:29Z</time></trkpt>
<trkpt lat="46.17933" lon="7.47575"><ele>2437.6</ele><time>2017-08-25T11:36:50Z</time></trkpt>
<trkpt lat="46.17929" lon="7.47573"><ele>2437</ele><time>2017-08-25T11:36:58Z</time></trkpt>
<trkpt lat="46.17922" lon="7.47571"><ele>2437</ele><time>2017-08-25T11:37:19Z</time></trkpt>
<trkpt lat="46.17916" lon="7.47566"><ele>2437.2</ele><time>2017-08-25T11:37:30Z</time></trkpt>
<trkpt lat="46.17911" lon="7.47567"><ele>2437.2</ele><time>2017-08-25T11:37:37Z</time></trkpt>
<trkpt lat="46.17903" lon="7.47568"><ele>2438.8</ele><time>2017-08-25T11:38:03Z</time></trkpt>
<trkpt lat="46.17902" lon="7.47581"><ele>2441</ele><time>2017-08-25T11:38:23Z</time></trkpt>
<trkpt lat="46.17902" lon="7.47584"><ele>2442</ele><time>2017-08-25T11:38:50Z</time></trkpt>
<trkpt lat="46.17901" lon="7.4758"><ele>2442.6</ele><time>2017-08-25T11:39:07Z</time></trkpt>
<trkpt lat="46.17902" lon="7.47579"><ele>2442.8</ele><time>2017-08-25T11:39:10Z</time></trkpt>
<trkpt lat="46.17904" lon="7.47565"><ele>2444.6</ele><time>2017-08-25T11:39:46Z</time></trkpt>
<trkpt lat="46.17901" lon="7.47561"><ele>2445</ele><time>2017-08-25T11:39:51Z</time></trkpt>
<trkpt lat="46.17895" lon="7.47556"><ele>2445.4</ele><time>2017-08-25T11:40:01Z</time></trkpt>
<trkpt lat="46.17893" lon="7.47556"><ele>2445.6</ele><time>2017-08-25T11:40:03Z</time></trkpt>
<trkpt lat="46.17885" lon="7.47553"><ele>2446.4</ele><time>2017-08-25T11:40:16Z</time></trkpt>
<trkpt lat="46.17871" lon="7.47559"><ele>2451.6</ele><time>2017-08-25T11:41:10Z</time></trkpt>
<trkpt lat="46.17871" lon="7.47559"><ele>2451.8</ele><time>2017-08-25T11:41:13Z</time></trkpt>
<trkpt lat="46.17866" lon="7.47561"><ele>2453.4</ele><time>2017-08-25T11:41:28Z</time></trkpt>
<trkpt lat="46.17861" lon="7.47569"><ele>2460.8</ele><time>2017-08-25T11:42:04Z</time></trkpt>
<trkpt lat="46.17863" lon="7.47588"><ele>2464.6</ele><time>2017-08-25T11:42:30Z</time></trkpt>
<trkpt lat="46.17858" lon="7.47596"><ele>2467.4</ele><time>2017-08-25T11:42:42Z</time></trkpt>
<trkpt lat="46.17849" lon="7.47618"><ele>2475.6</ele><time>2017-08-25T11:43:13Z</time></trkpt>
<trkpt lat="46.17849" lon="7.47628"><ele>2476</ele><time>2017-08-25T11:43:27Z</time></trkpt>
<trkpt lat="46.17848" lon="7.47648"><ele>2481.8</ele><time>2017-08-25T11:44:04Z</time></trkpt>
<trkpt lat="46.17843" lon="7.47651"><ele>2481.8</ele><time>2017-08-25T11:44:11Z</time></trkpt>
<trkpt lat="46.17841" lon="7.47654"><ele>2482.2</ele><time>2017-08-25T11:44:36Z</time></trkpt>
<trkpt lat="46.17841" lon="7.47653"><ele>2481.2</ele><time>2017-08-25T11:44:55Z</time></trkpt>
<trkpt lat="46.1784" lon="7.47653"><ele>2481.2</ele><time>2017-08-25T11:44:56Z</time></trkpt>
<trkpt lat="46.1784" lon="7.47653"><ele>2481.2</ele><time>2017-08-25T11:44:57Z</time></trkpt>
<trkpt lat="46.1784" lon="7.47653"><ele>2481.2</ele><time>2017-08-25T11:45:05Z</time></trkpt>
<trkpt lat="46.1784" lon="7.47652"><ele>2481.2</ele><time>2017-08-25T11:45:09Z</time></trkpt>
<trkpt lat="46.17842" lon="7.47677"><ele>2483.4</ele><time>2017-08-25T11:45:43Z</time></trkpt>
<trkpt lat="46.17847" lon="7.47685"><ele>2484.2</ele><time>2017-08-25T11:45:55Z</time></trkpt>
<trkpt lat="46.17859" lon="7.47688"><ele>2485.2</ele><time>2017-08-25T11:46:13Z</time></trkpt>
<trkpt lat="46.17868" lon="7.47691"><ele>2487</ele><time>2017-08-25T11:46:29Z</time></trkpt>
<trkpt lat="46.1788" lon="7.47689"><ele>2488.2</ele><time>2017-08-25T11:46:46Z</time></trkpt>
<trkpt lat="46.17891" lon="7.4767"><ele>2487.6</ele><time>2017-08-25T11:47:12Z</time></trkpt>
<trkpt lat="46.17899" lon="7.47664"><ele>2486.4</ele><time>2017-08-25T11:47:26Z</time></trkpt>
<trkpt lat="46.17902" lon="7.47665"><ele>2485.8</ele><time>2017-08-25T11:47:36Z</time></trkpt>
<trkpt lat="46.17901" lon="7.47676"><ele>2488.8</ele><time>2017-08-25T11:48:14Z</time></trkpt>
<trkpt lat="46.17898" lon="7.47678"><ele>2489.8</ele><time>2017-08-25T11:48:31Z</time></trkpt>
<trkpt lat="46.17896" lon="7.47679"><ele>2489.6</ele><time>2017-08-25T11:48:40Z</time></trkpt>
<trkpt lat="46.17896" lon="7.4768"><ele>2489.8</ele><time>2017-08-25T11:48:52Z</time></trkpt>
<trkpt lat="46.17899" lon="7.47682"><ele>2489.2</ele><time>2017-08-25T11:49:07Z</time></trkpt>
<trkpt lat="46.17898" lon="7.47683"><ele>2488</ele><time>2017-08-25T11:49:18Z</time></trkpt>
<trkpt lat="46.17901" lon="7.47688"><ele>2488</ele><time>2017-08-25T11:50:41Z</time></trkpt>
<trkpt lat="46.17902" lon="7.47689"><ele>2487.8</ele><time>2017-08-25T11:51:09Z</time></trkpt>
<trkpt lat="46.17901" lon="7.47689"><ele>2487.8</ele><time>2017-08-25T11:51:10Z</time></trkpt>
<trkpt lat="46.17902" lon="7.47691"><ele>2487.4</ele><time>2017-08-25T11:51:31Z</time></trkpt>
<trkpt lat="46.17901" lon="7.47691"><ele>2487.2</ele><time>2017-08-25T11:51:34Z</time></trkpt>
<trkpt lat="46.17901" lon="7.47691"><ele>2487</ele><time>2017-08-25T11:51:37Z</time></trkpt>
<trkpt lat="46.17902" lon="7.4769"><ele>2487</ele><time>2017-08-25T11:51:41Z</time></trkpt>
<trkpt lat="46.17902" lon="7.4769"><ele>2487</ele><time>2017-08-25T11:51:50Z</time></trkpt>
<trkpt lat="46.17902" lon="7.4769"><ele>2487.2</ele><time>2017-08-25T11:51:53Z</time></trkpt>
<trkpt lat="46.17901" lon="7.4769"><ele>2487.2</ele><time>2017-08-25T11:52:02Z</time></trkpt>
<trkpt lat="46.17901" lon="7.47689"><ele>2487</ele><time>2017-08-25T11:52:12Z</time></trkpt>
<trkpt lat="46.17901" lon="7.47689"><ele>2487</ele><time>2017-08-25T11:52:17Z</time></trkpt>
<trkpt lat="46.17902" lon="7.47688"><ele>2487.2</ele><time>2017-08-25T11:52:30Z</time></trkpt>
<trkpt lat="46.17901" lon="7.47688"><ele>2487.2</ele><time>2017-08-25T11:52:38Z</time></trkpt>
<trkpt lat="46.17901" lon="7.47689"><ele>2487.2</ele><time>2017-08-25T11:52:46Z</time></trkpt>
<trkpt lat="46.17901" lon="7.47689"><ele>2487.2</ele><time>2017-08-25T11:52:48Z</time></trkpt>
<trkpt lat="46.17901" lon="7.4769"><ele>2487</ele><time>2017-08-25T11:52:50Z</time></trkpt>
<trkpt lat="46.17901" lon="7.47689"><ele>2486.8</ele><time>2017-08-25T11:53:16Z</time></trkpt>
<trkpt lat="46.17901" lon="7.47689"><ele>2486.8</ele><time>2017-08-25T11:53:19Z</time></trkpt>
<trkpt lat="46.17901" lon="7.47689"><ele>2486.8</ele><time>2017-08-25T11:53:20Z</time></trkpt>
<trkpt lat="46.17901" lon="7.47687"><ele>2486.6</ele><time>2017-08-25T11:53:47Z</time></trkpt>
<trkpt lat="46.17901" lon="7.47687"><ele>2486.6</ele><time>2017-08-25T11:53:49Z</time></trkpt>
<trkpt lat="46.17901" lon="7.47689"><ele>2486.6</ele><time>2017-08-25T11:54:05Z</time></trkpt>
<trkpt lat="46.17902" lon="7.4769"><ele>2483.2</ele><time>2017-08-25T11:54:15Z</time></trkpt>
<trkpt lat="46.17902" lon="7.4769"><ele>2483.6</ele><time>2017-08-25T11:54:21Z</time></trkpt>
<trkpt lat="46.17901" lon="7.47689"><ele>2484.8</ele><time>2017-08-25T11:54:42Z</time></trkpt>
<trkpt lat="46.17901" lon="7.47687"><ele>2484.6</ele><time>2017-08-25T11:54:44Z</time></trkpt>
<trkpt lat="46.17901" lon="7.47687"><ele>2484.8</ele><time>2017-08-25T11:54:46Z</time></trkpt>
<trkpt lat="46.17901" lon="7.47687"><ele>2485</ele><time>2017-08-25T11:54:54Z</time></trkpt>
<trkpt lat="46.17901" lon="7.47688"><ele>2485</ele><time>2017-08-25T11:54:59Z</time></trkpt>
<trkpt lat="46.17901" lon="7.47688"><ele>2485</ele><time>2017-08-25T11:55:00Z</time></trkpt>
<trkpt lat="46.17901" lon="7.47688"><ele>2484.8</ele><time>2017-08-25T11:55:01Z</time></trkpt>
<trkpt lat="46.179" lon="7.47687"><ele>2484.8</ele><time>2017-08-25T11:55:15Z</time></trkpt>
<trkpt lat="46.179" lon="7.47687"><ele>2484.8</ele><time>2017-08-25T11:55:18Z</time></trkpt>
<trkpt lat="46.179" lon="7.47687"><ele>2484.8</ele><time>2017-08-25T11:55:24Z</time></trkpt>
<trkpt lat="46.179" lon="7.47687"><ele>2485</ele><time>2017-08-25T11:55:35Z</time></trkpt>
<trkpt lat="46.179" lon="7.47687"><ele>2485.2</ele><time>2017-08-25T11:55:41Z</time></trkpt>
<trkpt lat="46.17901" lon="7.47686"><ele>2486.4</ele><time>2017-08-25T11:56:08Z</time></trkpt>
<trkpt lat="46.17901" lon="7.47686"><ele>2486.8</ele><time>2017-08-25T11:56:20Z</time></trkpt>
<trkpt lat="46.17901" lon="7.47686"><ele>2487</ele><time>2017-08-25T11:56:26Z</time></trkpt>
<trkpt lat="46.17901" lon="7.47685"><ele>2487</ele><time>2017-08-25T11:56:29Z</time></trkpt>
<trkpt lat="46.17901" lon="7.47685"><ele>2487</ele><time>2017-08-25T11:56:30Z</time></trkpt>
<trkpt lat="46.17901" lon="7.47685"><ele>2487.2</ele><time>2017-08-25T11:56:35Z</time></trkpt>
<trkpt lat="46.17901" lon="7.47685"><ele>2487.8</ele><time>2017-08-25T11:56:56Z</time></trkpt>
<trkpt lat="46.17901" lon="7.47685"><ele>2488</ele><time>2017-08-25T11:57:00Z</time></trkpt>
<trkpt lat="46.17901" lon="7.47685"><ele>2488.2</ele><time>2017-08-25T11:57:22Z</time></trkpt>
<trkpt lat="46.17901" lon="7.47686"><ele>2488.2</ele><time>2017-08-25T11:57:27Z</time></trkpt>
<trkpt lat="46.17902" lon="7.47688"><ele>2488.6</ele><time>2017-08-25T11:57:46Z</time></trkpt>
<trkpt lat="46.17902" lon="7.47689"><ele>2489</ele><time>2017-08-25T11:58:03Z</time></trkpt>
<trkpt lat="46.17902" lon="7.4769"><ele>2489.2</ele><time>2017-08-25T11:58:08Z</time></trkpt>
<trkpt lat="46.17902" lon="7.4769"><ele>2489.2</ele><time>2017-08-25T11:58:11Z</time></trkpt>
<trkpt lat="46.17902" lon="7.47689"><ele>2489.2</ele><time>2017-08-25T11:58:15Z</time></trkpt>
<trkpt lat="46.17902" lon="7.47688"><ele>2489.2</ele><time>2017-08-25T11:58:27Z</time></trkpt>
<trkpt lat="46.17902" lon="7.47688"><ele>2489.2</ele><time>2017-08-25T11:58:29Z</time></trkpt>
<trkpt lat="46.17902" lon="7.47687"><ele>2489.2</ele><time>2017-08-25T11:58:30Z</time></trkpt>
<trkpt lat="46.17901" lon="7.47686"><ele>2489.2</ele><time>2017-08-25T11:58:37Z</time></trkpt>
<trkpt lat="46.17902" lon="7.47688"><ele>2489.2</ele><time>2017-08-25T11:58:44Z</time></trkpt>
<trkpt lat="46.17902" lon="7.47689"><ele>2489.2</ele><time>2017-08-25T11:58:54Z</time></trkpt>
<trkpt lat="46.17902" lon="7.47688"><ele>2489.2</ele><time>2017-08-25T11:59:01Z</time></trkpt>
<trkpt lat="46.17903" lon="7.47688"><ele>2489.2</ele><time>2017-08-25T11:59:05Z</time></trkpt>
<trkpt lat="46.17903" lon="7.47689"><ele>2489.2</ele><time>2017-08-25T11:59:09Z</time></trkpt>
<trkpt lat="46.17903" lon="7.47689"><ele>2489.4</ele><time>2017-08-25T11:59:21Z</time></trkpt>
<trkpt lat="46.17903" lon="7.47689"><ele>2489.4</ele><time>2017-08-25T11:59:32Z</time></trkpt>
<trkpt lat="46.17903" lon="7.47689"><ele>2489.4</ele><time>2017-08-25T11:59:34Z</time></trkpt>
<trkpt lat="46.17903" lon="7.47689"><ele>2489.4</ele><time>2017-08-25T11:59:38Z</time></trkpt>
<trkpt lat="46.17903" lon="7.47688"><ele>2489.6</ele><time>2017-08-25T11:59:45Z</time></trkpt>
<trkpt lat="46.17903" lon="7.47688"><ele>2489.4</ele><time>2017-08-25T11:59:48Z</time></trkpt>
<trkpt lat="46.17903" lon="7.47688"><ele>2489.4</ele><time>2017-08-25T11:59:54Z</time></trkpt>
<trkpt lat="46.17903" lon="7.47688"><ele>2489.2</ele><time>2017-08-25T11:59:58Z</time></trkpt>
<trkpt lat="46.17903" lon="7.47688"><ele>2489</ele><time>2017-08-25T11:59:59Z</time></trkpt>
<trkpt lat="46.17902" lon="7.47687"><ele>2488.6</ele><time>2017-08-25T12:00:03Z</time></trkpt>
<trkpt lat="46.17902" lon="7.47687"><ele>2488.6</ele><time>2017-08-25T12:00:06Z</time></trkpt>
<trkpt lat="46.17901" lon="7.47688"><ele>2488.6</ele><time>2017-08-25T12:00:13Z</time></trkpt>
<trkpt lat="46.17902" lon="7.47689"><ele>2488.8</ele><time>2017-08-25T12:00:37Z</time></trkpt>
<trkpt lat="46.17902" lon="7.47689"><ele>2488.8</ele><time>2017-08-25T12:00:39Z</time></trkpt>
<trkpt lat="46.17902" lon="7.47689"><ele>2489</ele><time>2017-08-25T12:00:46Z</time></trkpt>
<trkpt lat="46.17903" lon="7.47689"><ele>2489</ele><time>2017-08-25T12:00:50Z</time></trkpt>
<trkpt lat="46.17902" lon="7.4769"><ele>2489</ele><time>2017-08-25T12:00:57Z</time></trkpt>
<trkpt lat="46.17902" lon="7.4769"><ele>2489</ele><time>2017-08-25T12:01:03Z</time></trkpt>
<trkpt lat="46.17902" lon="7.47689"><ele>2488.8</ele><time>2017-08-25T12:01:08Z</time></trkpt>
<trkpt lat="46.17902" lon="7.47688"><ele>2489</ele><time>2017-08-25T12:01:25Z</time></trkpt>
<trkpt lat="46.17902" lon="7.47688"><ele>2489</ele><time>2017-08-25T12:01:26Z</time></trkpt>
<trkpt lat="46.17902" lon="7.47689"><ele>2489.2</ele><time>2017-08-25T12:01:29Z</time></trkpt>
<trkpt lat="46.17902" lon="7.47689"><ele>2489.4</ele><time>2017-08-25T12:01:41Z</time></trkpt>
<trkpt lat="46.17902" lon="7.47689"><ele>2489.4</ele><time>2017-08-25T12:01:42Z</time></trkpt>
<trkpt lat="46.17902" lon="7.47689"><ele>2489.6</ele><time>2017-08-25T12:01:47Z</time></trkpt>
<trkpt lat="46.17902" lon="7.47689"><ele>2489.4</ele><time>2017-08-25T12:02:10Z</time></trkpt>
<trkpt lat="46.17902" lon="7.47689"><ele>2489.4</ele><time>2017-08-25T12:02:11Z</time></trkpt>
<trkpt lat="46.17902" lon="7.47689"><ele>2489.4</ele><time>2017-08-25T12:02:13Z</time></trkpt>
<trkpt lat="46.17902" lon="7.47689"><ele>2489.4</ele><time>2017-08-25T12:02:15Z</time></trkpt>
<trkpt lat="46.17902" lon="7.47689"><ele>2489.2</ele><time>2017-08-25T12:02:17Z</time></trkpt>
<trkpt lat="46.17902" lon="7.47689"><ele>2489.2</ele><time>2017-08-25T12:02:18Z</time></trkpt>
<trkpt lat="46.17902" lon="7.47689"><ele>2489.2</ele><time>2017-08-25T12:02:19Z</time></trkpt>
<trkpt lat="46.17902" lon="7.47688"><ele>2489</ele><time>2017-08-25T12:02:22Z</time></trkpt>
<trkpt lat="46.17901" lon="7.47688"><ele>2489</ele><time>2017-08-25T12:02:28Z</time></trkpt>
<trkpt lat="46.17901" lon="7.47688"><ele>2489</ele><time>2017-08-25T12:02:29Z</time></trkpt>
<trkpt lat="46.17901" lon="7.47688"><ele>2489</ele><time>2017-08-25T12:02:34Z</time></trkpt>
<trkpt lat="46.17901" lon="7.47687"><ele>2488.8</ele><time>2017-08-25T12:02:36Z</time></trkpt>
<trkpt lat="46.17901" lon="7.47687"><ele>2489</ele><time>2017-08-25T12:02:40Z</time></trkpt>
<trkpt lat="46.17901" lon="7.47687"><ele>2488.8</ele><time>2017-08-25T12:02:44Z</time></trkpt>
<trkpt lat="46.17901" lon="7.47687"><ele>2489</ele><time>2017-08-25T12:02:50Z</time></trkpt>
<trkpt lat="46.17901" lon="7.47686"><ele>2489</ele><time>2017-08-25T12:02:59Z</time></trkpt>
<trkpt lat="46.17901" lon="7.47686"><ele>2489</ele><time>2017-08-25T12:03:01Z</time></trkpt>
<trkpt lat="46.17902" lon="7.47686"><ele>2488.8</ele><time>2017-08-25T12:03:20Z</time></trkpt>
<trkpt lat="46.17902" lon="7.47686"><ele>2488.8</ele><time>2017-08-25T12:03:25Z</time></trkpt>
<trkpt lat="46.17902" lon="7.47686"><ele>2488.6</ele><time>2017-08-25T12:03:29Z</time></trkpt>
<trkpt lat="46.17902" lon="7.47686"><ele>2488.6</ele><time>2017-08-25T12:03:32Z</time></trkpt>
<trkpt lat="46.17902" lon="7.47686"><ele>2488.6</ele><time>2017-08-25T12:03:34Z</time></trkpt>
<trkpt lat="46.17903" lon="7.47686"><ele>2488.6</ele><time>2017-08-25T12:03:44Z</time></trkpt>
<trkpt lat="46.17903" lon="7.47687"><ele>2488.6</ele><time>2017-08-25T12:03:50Z</time></trkpt>
<trkpt lat="46.17903" lon="7.47687"><ele>2488.6</ele><time>2017-08-25T12:03:56Z</time></trkpt>
<trkpt lat="46.17902" lon="7.47689"><ele>2487.8</ele><time>2017-08-25T12:04:34Z</time></trkpt>
<trkpt lat="46.17902" lon="7.4769"><ele>2487.8</ele><time>2017-08-25T12:04:42Z</time></trkpt>
<trkpt lat="46.17901" lon="7.4769"><ele>2487.8</ele><time>2017-08-25T12:05:00Z</time></trkpt>
<trkpt lat="46.17901" lon="7.47689"><ele>2488</ele><time>2017-08-25T12:05:07Z</time></trkpt>
<trkpt lat="46.179" lon="7.47689"><ele>2488.2</ele><time>2017-08-25T12:05:17Z</time></trkpt>
<trkpt lat="46.179" lon="7.47689"><ele>2488.4</ele><time>2017-08-25T12:05:21Z</time></trkpt>
<trkpt lat="46.179" lon="7.47689"><ele>2488.4</ele><time>2017-08-25T12:05:23Z</time></trkpt>
<trkpt lat="46.17901" lon="7.47689"><ele>2488</ele><time>2017-08-25T12:05:32Z</time></trkpt>
<trkpt lat="46.17901" lon="7.47688"><ele>2488</ele><time>2017-08-25T12:05:42Z</time></trkpt>
<trkpt lat="46.17901" lon="7.47688"><ele>2488</ele><time>2017-08-25T12:05:44Z</time></trkpt>
<trkpt lat="46.179" lon="7.47692"><ele>2487.2</ele><time>2017-08-25T12:06:00Z</time></trkpt>
<trkpt lat="46.17899" lon="7.47693"><ele>2488</ele><time>2017-08-25T12:06:11Z</time></trkpt>
<trkpt lat="46.17899" lon="7.47693"><ele>2488</ele><time>2017-08-25T12:06:12Z</time></trkpt>
<trkpt lat="46.17899" lon="7.47693"><ele>2488.2</ele><time>2017-08-25T12:06:13Z</time></trkpt>
<trkpt lat="46.17899" lon="7.47693"><ele>2488.8</ele><time>2017-08-25T12:06:25Z</time></trkpt>
<trkpt lat="46.17899" lon="7.47693"><ele>2489</ele><time>2017-08-25T12:06:30Z</time></trkpt>
<trkpt lat="46.17899" lon="7.47693"><ele>2489.2</ele><time>2017-08-25T12:06:33Z</time></trkpt>
<trkpt lat="46.17899" lon="7.47693"><ele>2489.2</ele><time>2017-08-25T12:06:35Z</time></trkpt>
<trkpt lat="46.17899" lon="7.47693"><ele>2489.6</ele><time>2017-08-25T12:06:41Z</time></trkpt>
<trkpt lat="46.17899" lon="7.47693"><ele>2489.8</ele><time>2017-08-25T12:06:47Z</time></trkpt>
<trkpt lat="46.17899" lon="7.47693"><ele>2489.8</ele><time>2017-08-25T12:06:49Z</time></trkpt>
<trkpt lat="46.17899" lon="7.47693"><ele>2490</ele><time>2017-08-25T12:06:53Z</time></trkpt>
<trkpt lat="46.17899" lon="7.47693"><ele>2490.2</ele><time>2017-08-25T12:06:57Z</time></trkpt>
<trkpt lat="46.17899" lon="7.47693"><ele>2490.2</ele><time>2017-08-25T12:06:59Z</time></trkpt>
<trkpt lat="46.17899" lon="7.47693"><ele>2490.4</ele><time>2017-08-25T12:07:07Z</time></trkpt>
<trkpt lat="46.17899" lon="7.47693"><ele>2490.6</ele><time>2017-08-25T12:07:11Z</time></trkpt>
<trkpt lat="46.17899" lon="7.47694"><ele>2490.6</ele><time>2017-08-25T12:07:13Z</time></trkpt>
<trkpt lat="46.17899" lon="7.47694"><ele>2491</ele><time>2017-08-25T12:07:17Z</time></trkpt>
<trkpt lat="46.17899" lon="7.47694"><ele>2491.4</ele><time>2017-08-25T12:07:26Z</time></trkpt>
<trkpt lat="46.17899" lon="7.47693"><ele>2491.4</ele><time>2017-08-25T12:07:47Z</time></trkpt>
<trkpt lat="46.179" lon="7.47691"><ele>2489.8</ele><time>2017-08-25T12:07:57Z</time></trkpt>
<trkpt lat="46.17901" lon="7.4769"><ele>2489</ele><time>2017-08-25T12:08:08Z</time></trkpt>
<trkpt lat="46.17902" lon="7.47689"><ele>2487.8</ele><time>2017-08-25T12:08:12Z</time></trkpt>
<trkpt lat="46.17903" lon="7.47689"><ele>2488.8</ele><time>2017-08-25T12:08:15Z</time></trkpt>
<trkpt lat="46.17903" lon="7.4769"><ele>2488.2</ele><time>2017-08-25T12:08:28Z</time></trkpt>
<trkpt lat="46.17901" lon="7.4769"><ele>2488</ele><time>2017-08-25T12:08:33Z</time></trkpt>
<trkpt lat="46.17901" lon="7.4769"><ele>2488</ele><time>2017-08-25T12:08:40Z</time></trkpt>
<trkpt lat="46.17901" lon="7.47689"><ele>2488</ele><time>2017-08-25T12:08:44Z</time></trkpt>
<trkpt lat="46.179" lon="7.47688"><ele>2488</ele><time>2017-08-25T12:08:50Z</time></trkpt>
<trkpt lat="46.17901" lon="7.47688"><ele>2488.2</ele><time>2017-08-25T12:08:51Z</time></trkpt>
<trkpt lat="46.17901" lon="7.47688"><ele>2487.8</ele><time>2017-08-25T12:08:52Z</time></trkpt>
<trkpt lat="46.179" lon="7.47687"><ele>2487.6</ele><time>2017-08-25T12:08:58Z</time></trkpt>
<trkpt lat="46.179" lon="7.47687"><ele>2487.6</ele><time>2017-08-25T12:09:02Z</time></trkpt>
<trkpt lat="46.179" lon="7.47687"><ele>2487.6</ele><time>2017-08-25T12:09:03Z</time></trkpt>
<trkpt lat="46.179" lon="7.47687"><ele>2487.6</ele><time>2017-08-25T12:09:04Z</time></trkpt>
<trkpt lat="46.179" lon="7.47687"><ele>2487.4</ele><time>2017-08-25T12:09:08Z</time></trkpt>
<trkpt lat="46.179" lon="7.47687"><ele>2487.4</ele><time>2017-08-25T12:09:13Z</time></trkpt>
<trkpt lat="46.179" lon="7.47687"><ele>2487.6</ele><time>2017-08-25T12:09:21Z</time></trkpt>
<trkpt lat="46.17902" lon="7.47688"><ele>2487.2</ele><time>2017-08-25T12:09:27Z</time></trkpt>
<trkpt lat="46.17902" lon="7.47688"><ele>2487.2</ele><time>2017-08-25T12:09:30Z</time></trkpt>
<trkpt lat="46.17901" lon="7.47687"><ele>2487.2</ele><time>2017-08-25T12:09:50Z</time></trkpt>
<trkpt lat="46.17901" lon="7.47687"><ele>2487.2</ele><time>2017-08-25T12:09:54Z</time></trkpt>
<trkpt lat="46.17901" lon="7.47687"><ele>2487.4</ele><time>2017-08-25T12:09:59Z</time></trkpt>
<trkpt lat="46.17901" lon="7.47688"><ele>2488</ele><time>2017-08-25T12:10:12Z</time></trkpt>
<trkpt lat="46.17901" lon="7.47688"><ele>2488.6</ele><time>2017-08-25T12:10:26Z</time></trkpt>
<trkpt lat="46.179" lon="7.47688"><ele>2488.6</ele><time>2017-08-25T12:10:39Z</time></trkpt>
<trkpt lat="46.179" lon="7.47688"><ele>2488.8</ele><time>2017-08-25T12:10:45Z</time></trkpt>
<trkpt lat="46.17901" lon="7.47688"><ele>2488.6</ele><time>2017-08-25T12:10:51Z</time></trkpt>
<trkpt lat="46.17901" lon="7.47687"><ele>2488.2</ele><time>2017-08-25T12:11:02Z</time></trkpt>
<trkpt lat="46.17901" lon="7.47688"><ele>2487.6</ele><time>2017-08-25T12:11:13Z</time></trkpt>
<trkpt lat="46.17901" lon="7.47688"><ele>2487.4</ele><time>2017-08-25T12:11:20Z</time></trkpt>
<trkpt lat="46.17901" lon="7.47688"><ele>2487.4</ele><time>2017-08-25T12:11:21Z</time></trkpt>
<trkpt lat="46.17902" lon="7.47688"><ele>2487.4</ele><time>2017-08-25T12:11:30Z</time></trkpt>
<trkpt lat="46.17901" lon="7.47688"><ele>2487</ele><time>2017-08-25T12:11:47Z</time></trkpt>
<trkpt lat="46.179" lon="7.47688"><ele>2486.8</ele><time>2017-08-25T12:11:51Z</time></trkpt>
<trkpt lat="46.17901" lon="7.47688"><ele>2486.8</ele><time>2017-08-25T12:11:55Z</time></trkpt>
<trkpt lat="46.17901" lon="7.4769"><ele>2487</ele><time>2017-08-25T12:12:18Z</time></trkpt>
<trkpt lat="46.17904" lon="7.47692"><ele>2487.6</ele><time>2017-08-25T12:12:41Z</time></trkpt>
<trkpt lat="46.17909" lon="7.47695"><ele>2487.8</ele><time>2017-08-25T12:12:50Z</time></trkpt>
<trkpt lat="46.17916" lon="7.477"><ele>2488.4</ele><time>2017-08-25T12:13:06Z</time></trkpt>
<trkpt lat="46.17917" lon="7.47701"><ele>2488.6</ele><time>2017-08-25T12:13:09Z</time></trkpt>
<trkpt lat="46.17917" lon="7.47702"><ele>2488.8</ele><time>2017-08-25T12:13:11Z</time></trkpt>
<trkpt lat="46.17919" lon="7.47701"><ele>2488.8</ele><time>2017-08-25T12:13:15Z</time></trkpt>
<trkpt lat="46.17924" lon="7.47701"><ele>2489.4</ele><time>2017-08-25T12:13:26Z</time></trkpt>
<trkpt lat="46.17928" lon="7.47705"><ele>2490.4</ele><time>2017-08-25T12:13:43Z</time></trkpt>
<trkpt lat="46.17931" lon="7.47709"><ele>2491.4</ele><time>2017-08-25T12:13:55Z</time></trkpt>
<trkpt lat="46.17931" lon="7.47713"><ele>2491.6</ele><time>2017-08-25T12:14:02Z</time></trkpt>
<trkpt lat="46.1793" lon="7.47718"><ele>2493.2</ele><time>2017-08-25T12:14:12Z</time></trkpt>
<trkpt lat="46.17931" lon="7.47722"><ele>2494.8</ele><time>2017-08-25T12:14:27Z</time></trkpt>
<trkpt lat="46.17937" lon="7.47742"><ele>2502.8</ele><time>2017-08-25T12:15:15Z</time></trkpt>
<trkpt lat="46.17944" lon="7.47745"><ele>2505</ele><time>2017-08-25T12:15:26Z</time></trkpt>
<trkpt lat="46.17947" lon="7.47751"><ele>2506.4</ele><time>2017-08-25T12:15:34Z</time></trkpt>
<trkpt lat="46.17948" lon="7.47752"><ele>2506.6</ele><time>2017-08-25T12:15:36Z</time></trkpt>
<trkpt lat="46.17953" lon="7.47759"><ele>2508</ele><time>2017-08-25T12:15:45Z</time></trkpt>
<trkpt lat="46.17958" lon="7.47775"><ele>2509.6</ele><time>2017-08-25T12:16:03Z</time></trkpt>
<trkpt lat="46.1796" lon="7.4778"><ele>2510</ele><time>2017-08-25T12:16:09Z</time></trkpt>
<trkpt lat="46.17962" lon="7.47783"><ele>2510.2</ele><time>2017-08-25T12:16:12Z</time></trkpt>
<trkpt lat="46.17966" lon="7.47792"><ele>2511.2</ele><time>2017-08-25T12:16:21Z</time></trkpt>
<trkpt lat="46.17966" lon="7.47793"><ele>2511.2</ele><time>2017-08-25T12:16:22Z</time></trkpt>
<trkpt lat="46.17969" lon="7.47798"><ele>2512.4</ele><time>2017-08-25T12:16:29Z</time></trkpt>
<trkpt lat="46.17971" lon="7.47802"><ele>2513.2</ele><time>2017-08-25T12:16:34Z</time></trkpt>
<trkpt lat="46.17973" lon="7.47805"><ele>2513.8</ele><time>2017-08-25T12:16:40Z</time></trkpt>
<trkpt lat="46.17973" lon="7.47806"><ele>2514</ele><time>2017-08-25T12:16:43Z</time></trkpt>
<trkpt lat="46.17976" lon="7.478"><ele>2513.2</ele><time>2017-08-25T12:16:53Z</time></trkpt>
<trkpt lat="46.17978" lon="7.47796"><ele>2513.4</ele><time>2017-08-25T12:17:11Z</time></trkpt>
<trkpt lat="46.17978" lon="7.47795"><ele>2513.4</ele><time>2017-08-25T12:17:37Z</time></trkpt>
<trkpt lat="46.17978" lon="7.47799"><ele>2513</ele><time>2017-08-25T12:17:41Z</time></trkpt>
<trkpt lat="46.17976" lon="7.47804"><ele>2512.8</ele><time>2017-08-25T12:17:44Z</time></trkpt>
<trkpt lat="46.1798" lon="7.47816"><ele>2513.2</ele><time>2017-08-25T12:17:52Z</time></trkpt>
<trkpt lat="46.17981" lon="7.47818"><ele>2513</ele><time>2017-08-25T12:17:54Z</time></trkpt>
<trkpt lat="46.17987" lon="7.47827"><ele>2513.2</ele><time>2017-08-25T12:18:03Z</time></trkpt>
<trkpt lat="46.17989" lon="7.47831"><ele>2513</ele><time>2017-08-25T12:18:07Z</time></trkpt>
<trkpt lat="46.17991" lon="7.47833"><ele>2513</ele><time>2017-08-25T12:18:10Z</time></trkpt>
<trkpt lat="46.17995" lon="7.47835"><ele>2513</ele><time>2017-08-25T12:18:16Z</time></trkpt>
<trkpt lat="46.18005" lon="7.47841"><ele>2513.2</ele><time>2017-08-25T12:18:31Z</time></trkpt>
<trkpt lat="46.18007" lon="7.47843"><ele>2513.2</ele><time>2017-08-25T12:18:36Z</time></trkpt>
<trkpt lat="46.18012" lon="7.47844"><ele>2513.4</ele><time>2017-08-25T12:18:43Z</time></trkpt>
<trkpt lat="46.18014" lon="7.47844"><ele>2513.2</ele><time>2017-08-25T12:18:45Z</time></trkpt>
<trkpt lat="46.18022" lon="7.47849"><ele>2514.2</ele><time>2017-08-25T12:18:58Z</time></trkpt>
<trkpt lat="46.18023" lon="7.47851"><ele>2514.2</ele><time>2017-08-25T12:19:00Z</time></trkpt>
<trkpt lat="46.18024" lon="7.47856"><ele>2514.8</ele><time>2017-08-25T12:19:10Z</time></trkpt>
<trkpt lat="46.18023" lon="7.47856"><ele>2515</ele><time>2017-08-25T12:19:19Z</time></trkpt>
<trkpt lat="46.18025" lon="7.4786"><ele>2515</ele><time>2017-08-25T12:19:27Z</time></trkpt>
<trkpt lat="46.18036" lon="7.47868"><ele>2513.2</ele><time>2017-08-25T12:19:42Z</time></trkpt>
<trkpt lat="46.18043" lon="7.47869"><ele>2512</ele><time>2017-08-25T12:19:48Z</time></trkpt>
<trkpt lat="46.18051" lon="7.47877"><ele>2511.2</ele><time>2017-08-25T12:19:57Z</time></trkpt>
<trkpt lat="46.18053" lon="7.47878"><ele>2510.8</ele><time>2017-08-25T12:19:59Z</time></trkpt>
<trkpt lat="46.18053" lon="7.47879"><ele>2510.8</ele><time>2017-08-25T12:20:00Z</time></trkpt>
<trkpt lat="46.18054" lon="7.4788"><ele>2510.8</ele><time>2017-08-25T12:20:02Z</time></trkpt>
<trkpt lat="46.18054" lon="7.47881"><ele>2510.4</ele><time>2017-08-25T12:20:07Z</time></trkpt>
<trkpt lat="46.18053" lon="7.47882"><ele>2510</ele><time>2017-08-25T12:20:19Z</time></trkpt>
<trkpt lat="46.18053" lon="7.47882"><ele>2510</ele><time>2017-08-25T12:20:20Z</time></trkpt>
<trkpt lat="46.18054" lon="7.47883"><ele>2510</ele><time>2017-08-25T12:20:28Z</time></trkpt>
<trkpt lat="46.18054" lon="7.47883"><ele>2509.8</ele><time>2017-08-25T12:20:33Z</time></trkpt>
<trkpt lat="46.18054" lon="7.47883"><ele>2510</ele><time>2017-08-25T12:20:34Z</time></trkpt>
<trkpt lat="46.18054" lon="7.47883"><ele>2509.8</ele><time>2017-08-25T12:20:36Z</time></trkpt>
<trkpt lat="46.18053" lon="7.47882"><ele>2509.8</ele><time>2017-08-25T12:21:04Z</time></trkpt>
<trkpt lat="46.18053" lon="7.47882"><ele>2509.6</ele><time>2017-08-25T12:21:09Z</time></trkpt>
<trkpt lat="46.18053" lon="7.47881"><ele>2509.2</ele><time>2017-08-25T12:21:26Z</time></trkpt>
<trkpt lat="46.18053" lon="7.47881"><ele>2509.2</ele><time>2017-08-25T12:21:27Z</time></trkpt>
<trkpt lat="46.18053" lon="7.47881"><ele>2509</ele><time>2017-08-25T12:21:36Z</time></trkpt>
<trkpt lat="46.18053" lon="7.47883"><ele>2508.8</ele><time>2017-08-25T12:22:01Z</time></trkpt>
<trkpt lat="46.18053" lon="7.47881"><ele>2508.8</ele><time>2017-08-25T12:22:20Z</time></trkpt>
<trkpt lat="46.18053" lon="7.47881"><ele>2508.8</ele><time>2017-08-25T12:22:23Z</time></trkpt>
<trkpt lat="46.18052" lon="7.47881"><ele>2508.6</ele><time>2017-08-25T12:22:28Z</time></trkpt>
<trkpt lat="46.18052" lon="7.47881"><ele>2508.6</ele><time>2017-08-25T12:22:47Z</time></trkpt>
<trkpt lat="46.18052" lon="7.47883"><ele>2508.6</ele><time>2017-08-25T12:22:58Z</time></trkpt>
<trkpt lat="46.18052" lon="7.47883"><ele>2508.8</ele><time>2017-08-25T12:23:01Z</time></trkpt>
<trkpt lat="46.18054" lon="7.47882"><ele>2508.6</ele><time>2017-08-25T12:23:30Z</time></trkpt>
<trkpt lat="46.18054" lon="7.47882"><ele>2508.4</ele><time>2017-08-25T12:23:34Z</time></trkpt>
<trkpt lat="46.18053" lon="7.47882"><ele>2508.4</ele><time>2017-08-25T12:23:37Z</time></trkpt>
<trkpt lat="46.18053" lon="7.47882"><ele>2508.2</ele><time>2017-08-25T12:23:44Z</time></trkpt>
<trkpt lat="46.18053" lon="7.47882"><ele>2508.2</ele><time>2017-08-25T12:23:48Z</time></trkpt>
<trkpt lat="46.18053" lon="7.47881"><ele>2507.8</ele><time>2017-08-25T12:24:10Z</time></trkpt>
<trkpt lat="46.18053" lon="7.47881"><ele>2508.2</ele><time>2017-08-25T12:24:24Z</time></trkpt>
<trkpt lat="46.18053" lon="7.47881"><ele>2508.2</ele><time>2017-08-25T12:24:41Z</time></trkpt>
<trkpt lat="46.18053" lon="7.47881"><ele>2508.4</ele><time>2017-08-25T12:24:56Z</time></trkpt>
<trkpt lat="46.18053" lon="7.47881"><ele>2508.4</ele><time>2017-08-25T12:24:58Z</time></trkpt>
<trkpt lat="46.18053" lon="7.47881"><ele>2508.4</ele><time>2017-08-25T12:25:01Z</time></trkpt>
<trkpt lat="46.18052" lon="7.47882"><ele>2507.2</ele><time>2017-08-25T12:25:45Z</time></trkpt>
<trkpt lat="46.18052" lon="7.47882"><ele>2507</ele><time>2017-08-25T12:25:48Z</time></trkpt>
<trkpt lat="46.18051" lon="7.47883"><ele>2506</ele><time>2017-08-25T12:26:16Z</time></trkpt>
<trkpt lat="46.18051" lon="7.47883"><ele>2506.4</ele><time>2017-08-25T12:26:20Z</time></trkpt>
<trkpt lat="46.18051" lon="7.47883"><ele>2506.4</ele><time>2017-08-25T12:26:22Z</time></trkpt>
<trkpt lat="46.18051" lon="7.47884"><ele>2505.8</ele><time>2017-08-25T12:26:36Z</time></trkpt>
<trkpt lat="46.18051" lon="7.47884"><ele>2505.6</ele><time>2017-08-25T12:26:43Z</time></trkpt>
<trkpt lat="46.18051" lon="7.47884"><ele>2505.6</ele><time>2017-08-25T12:26:45Z</time></trkpt>
<trkpt lat="46.18051" lon="7.47883"><ele>2505.8</ele><time>2017-08-25T12:26:56Z</time></trkpt>
<trkpt lat="46.18053" lon="7.47883"><ele>2505.6</ele><time>2017-08-25T12:27:21Z</time></trkpt>
<trkpt lat="46.18053" lon="7.47883"><ele>2505.8</ele><time>2017-08-25T12:27:29Z</time></trkpt>
<trkpt lat="46.18054" lon="7.47881"><ele>2505.4</ele><time>2017-08-25T12:27:43Z</time></trkpt>
<trkpt lat="46.18052" lon="7.47879"><ele>2505.4</ele><time>2017-08-25T12:27:51Z</time></trkpt>
<trkpt lat="46.18053" lon="7.47874"><ele>2504.8</ele><time>2017-08-25T12:27:56Z</time></trkpt>
<trkpt lat="46.18056" lon="7.47869"><ele>2503.8</ele><time>2017-08-25T12:27:58Z</time></trkpt>
<trkpt lat="46.18059" lon="7.47865"><ele>2502.8</ele><time>2017-08-25T12:28:00Z</time></trkpt>
<trkpt lat="46.1806" lon="7.47862"><ele>2502.4</ele><time>2017-08-25T12:28:01Z</time></trkpt>
<trkpt lat="46.18062" lon="7.47857"><ele>2501.6</ele><time>2017-08-25T12:28:03Z</time></trkpt>
<trkpt lat="46.18067" lon="7.47853"><ele>2500.4</ele><time>2017-08-25T12:28:06Z</time></trkpt>
<trkpt lat="46.18071" lon="7.4785"><ele>2499.2</ele><time>2017-08-25T12:28:08Z</time></trkpt>
<trkpt lat="46.18077" lon="7.47842"><ele>2497.8</ele><time>2017-08-25T12:28:14Z</time></trkpt>
<trkpt lat="46.18084" lon="7.47835"><ele>2495.4</ele><time>2017-08-25T12:28:25Z</time></trkpt>
<trkpt lat="46.18092" lon="7.47826"><ele>2493.6</ele><time>2017-08-25T12:28:34Z</time></trkpt>
<trkpt lat="46.18092" lon="7.47826"><ele>2493.6</ele><time>2017-08-25T12:28:35Z</time></trkpt>
<trkpt lat="46.18093" lon="7.47827"><ele>2493.6</ele><time>2017-08-25T12:28:36Z</time></trkpt>
<trkpt lat="46.1809" lon="7.47854"><ele>2488.8</ele><time>2017-08-25T12:28:54Z</time></trkpt>
<trkpt lat="46.18087" lon="7.47881"><ele>2486.6</ele><time>2017-08-25T12:29:08Z</time></trkpt>
<trkpt lat="46.18087" lon="7.47898"><ele>2484.4</ele><time>2017-08-25T12:29:14Z</time></trkpt>
<trkpt lat="46.18088" lon="7.47911"><ele>2483.4</ele><time>2017-08-25T12:29:21Z</time></trkpt>
<trkpt lat="46.18088" lon="7.47912"><ele>2483.4</ele><time>2017-08-25T12:29:22Z</time></trkpt>
<trkpt lat="46.18089" lon="7.47918"><ele>2483</ele><time>2017-08-25T12:29:33Z</time></trkpt>
<trkpt lat="46.18089" lon="7.47922"><ele>2482</ele><time>2017-08-25T12:29:38Z</time></trkpt>
<trkpt lat="46.18092" lon="7.47926"><ele>2480.4</ele><time>2017-08-25T12:29:44Z</time></trkpt>
<trkpt lat="46.18093" lon="7.4793"><ele>2479.6</ele><time>2017-08-25T12:29:48Z</time></trkpt>
<trkpt lat="46.18094" lon="7.47938"><ele>2478.4</ele><time>2017-08-25T12:29:54Z</time></trkpt>
<trkpt lat="46.18097" lon="7.47945"><ele>2477</ele><time>2017-08-25T12:30:00Z</time></trkpt>
<trkpt lat="46.18103" lon="7.4795"><ele>2475</ele><time>2017-08-25T12:30:08Z</time></trkpt>
<trkpt lat="46.18107" lon="7.47957"><ele>2473</ele><time>2017-08-25T12:30:16Z</time></trkpt>
<trkpt lat="46.18111" lon="7.47966"><ele>2470.6</ele><time>2017-08-25T12:30:25Z</time></trkpt>
<trkpt lat="46.18113" lon="7.47971"><ele>2470</ele><time>2017-08-25T12:30:42Z</time></trkpt>
<trkpt lat="46.18112" lon="7.47971"><ele>2470.2</ele><time>2017-08-25T12:30:43Z</time></trkpt>
<trkpt lat="46.18112" lon="7.47971"><ele>2470.2</ele><time>2017-08-25T12:30:44Z</time></trkpt>
<trkpt lat="46.18112" lon="7.47971"><ele>2470.2</ele><time>2017-08-25T12:30:45Z</time></trkpt>
<trkpt lat="46.18112" lon="7.4797"><ele>2470.2</ele><time>2017-08-25T12:30:49Z</time></trkpt>
<trkpt lat="46.18112" lon="7.47971"><ele>2470.2</ele><time>2017-08-25T12:30:51Z</time></trkpt>
<trkpt lat="46.18112" lon="7.47971"><ele>2469.4</ele><time>2017-08-25T12:31:03Z</time></trkpt>
<trkpt lat="46.18113" lon="7.47971"><ele>2469.4</ele><time>2017-08-25T12:31:08Z</time></trkpt>
<trkpt lat="46.18113" lon="7.47971"><ele>2469.4</ele><time>2017-08-25T12:31:11Z</time></trkpt>
<trkpt lat="46.18113" lon="7.47971"><ele>2469</ele><time>2017-08-25T12:31:16Z</time></trkpt>
<trkpt lat="46.18113" lon="7.47971"><ele>2468.8</ele><time>2017-08-25T12:31:21Z</time></trkpt>
<trkpt lat="46.18113" lon="7.47973"><ele>2468.4</ele><time>2017-08-25T12:31:31Z</time></trkpt>
<trkpt lat="46.18118" lon="7.47983"><ele>2467.2</ele><time>2017-08-25T12:31:39Z</time></trkpt>
<trkpt lat="46.18122" lon="7.47991"><ele>2464.2</ele><time>2017-08-25T12:31:49Z</time></trkpt>
<trkpt lat="46.18121" lon="7.47989"><ele>2462.8</ele><time>2017-08-25T12:31:54Z</time></trkpt>
<trkpt lat="46.18124" lon="7.47979"><ele>2461.4</ele><time>2017-08-25T12:32:01Z</time></trkpt>
<trkpt lat="46.18127" lon="7.47979"><ele>2459</ele><time>2017-08-25T12:32:09Z</time></trkpt>
<trkpt lat="46.18128" lon="7.4798"><ele>2458.6</ele><time>2017-08-25T12:32:10Z</time></trkpt>
<trkpt lat="46.18132" lon="7.47985"><ele>2456.4</ele><time>2017-08-25T12:32:15Z</time></trkpt>
<trkpt lat="46.18134" lon="7.47981"><ele>2455.2</ele><time>2017-08-25T12:32:19Z</time></trkpt>
<trkpt lat="46.18134" lon="7.4798"><ele>2454.8</ele><time>2017-08-25T12:32:20Z</time></trkpt>
<trkpt lat="46.18136" lon="7.47978"><ele>2454</ele><time>2017-08-25T12:32:23Z</time></trkpt>
<trkpt lat="46.18138" lon="7.47968"><ele>2452.4</ele><time>2017-08-25T12:32:29Z</time></trkpt>
<trkpt lat="46.18139" lon="7.47967"><ele>2452</ele><time>2017-08-25T12:32:30Z</time></trkpt>
<trkpt lat="46.18143" lon="7.47958"><ele>2450.8</ele><time>2017-08-25T12:32:38Z</time></trkpt>
<trkpt lat="46.18144" lon="7.47956"><ele>2450.2</ele><time>2017-08-25T12:32:40Z</time></trkpt>
<trkpt lat="46.18149" lon="7.47951"><ele>2448</ele><time>2017-08-25T12:32:48Z</time></trkpt>
<trkpt lat="46.18155" lon="7.47931"><ele>2445.8</ele><time>2017-08-25T12:33:00Z</time></trkpt>
<trkpt lat="46.18159" lon="7.47943"><ele>2444.2</ele><time>2017-08-25T12:33:13Z</time></trkpt>
<trkpt lat="46.18159" lon="7.47943"><ele>2444</ele><time>2017-08-25T12:33:16Z</time></trkpt>
<trkpt lat="46.18161" lon="7.47951"><ele>2441.8</ele><time>2017-08-25T12:33:22Z</time></trkpt>
<trkpt lat="46.18158" lon="7.47957"><ele>2440.8</ele><time>2017-08-25T12:33:26Z</time></trkpt>
<trkpt lat="46.18158" lon="7.47958"><ele>2440.8</ele><time>2017-08-25T12:33:27Z</time></trkpt>
<trkpt lat="46.18158" lon="7.47961"><ele>2440.6</ele><time>2017-08-25T12:33:31Z</time></trkpt>
<trkpt lat="46.18158" lon="7.47962"><ele>2440.4</ele><time>2017-08-25T12:33:32Z</time></trkpt>
<trkpt lat="46.18159" lon="7.47983"><ele>2437.4</ele><time>2017-08-25T12:33:43Z</time></trkpt>
<trkpt lat="46.18159" lon="7.47987"><ele>2436.8</ele><time>2017-08-25T12:33:45Z</time></trkpt>
<trkpt lat="46.1816" lon="7.4799"><ele>2436.6</ele><time>2017-08-25T12:33:58Z</time></trkpt>
<trkpt lat="46.1816" lon="7.48003"><ele>2433.8</ele><time>2017-08-25T12:34:17Z</time></trkpt>
<trkpt lat="46.18161" lon="7.48011"><ele>2432.2</ele><time>2017-08-25T12:34:23Z</time></trkpt>
<trkpt lat="46.18161" lon="7.48011"><ele>2432.2</ele><time>2017-08-25T12:34:24Z</time></trkpt>
<trkpt lat="46.18161" lon="7.48012"><ele>2432</ele><time>2017-08-25T12:34:29Z</time></trkpt>
<trkpt lat="46.18176" lon="7.48029"><ele>2431.6</ele><time>2017-08-25T12:34:40Z</time></trkpt>
<trkpt lat="46.18188" lon="7.48035"><ele>2430.2</ele><time>2017-08-25T12:34:44Z</time></trkpt>
<trkpt lat="46.18207" lon="7.48044"><ele>2427.4</ele><time>2017-08-25T12:34:48Z</time></trkpt>
<trkpt lat="46.18228" lon="7.48053"><ele>2423.2</ele><time>2017-08-25T12:34:51Z</time></trkpt>
<trkpt lat="46.18247" lon="7.48061"><ele>2419.6</ele><time>2017-08-25T12:34:54Z</time></trkpt>
<trkpt lat="46.18251" lon="7.48064"><ele>2418.8</ele><time>2017-08-25T12:34:55Z</time></trkpt>
<trkpt lat="46.18257" lon="7.48068"><ele>2418.2</ele><time>2017-08-25T12:34:57Z</time></trkpt>
<trkpt lat="46.18258" lon="7.48069"><ele>2418.6</ele><time>2017-08-25T12:34:58Z</time></trkpt>
<trkpt lat="46.18261" lon="7.48074"><ele>2415.8</ele><time>2017-08-25T12:35:03Z</time></trkpt>
<trkpt lat="46.18265" lon="7.48075"><ele>2413.8</ele><time>2017-08-25T12:35:12Z</time></trkpt>
<trkpt lat="46.18282" lon="7.48062"><ele>2411.8</ele><time>2017-08-25T12:35:19Z</time></trkpt>
<trkpt lat="46.18293" lon="7.48054"><ele>2411.4</ele><time>2017-08-25T12:35:24Z</time></trkpt>
<trkpt lat="46.1831" lon="7.48044"><ele>2411</ele><time>2017-08-25T12:35:34Z</time></trkpt>
<trkpt lat="46.18321" lon="7.48039"><ele>2409</ele><time>2017-08-25T12:35:40Z</time></trkpt>
<trkpt lat="46.18341" lon="7.48036"><ele>2406.2</ele><time>2017-08-25T12:35:47Z</time></trkpt>
<trkpt lat="46.18343" lon="7.48035"><ele>2406</ele><time>2017-08-25T12:35:48Z</time></trkpt>
<trkpt lat="46.18347" lon="7.48037"><ele>2406</ele><time>2017-08-25T12:35:53Z</time></trkpt>
<trkpt lat="46.18366" lon="7.48039"><ele>2404.4</ele><time>2017-08-25T12:36:00Z</time></trkpt>
<trkpt lat="46.18373" lon="7.48035"><ele>2403.6</ele><time>2017-08-25T12:36:06Z</time></trkpt>
<trkpt lat="46.18372" lon="7.48034"><ele>2403</ele><time>2017-08-25T12:36:13Z</time></trkpt>
<trkpt lat="46.18387" lon="7.4802"><ele>2399.2</ele><time>2017-08-25T12:36:42Z</time></trkpt>
<trkpt lat="46.18407" lon="7.48016"><ele>2393.4</ele><time>2017-08-25T12:36:50Z</time></trkpt>
<trkpt lat="46.18424" lon="7.48014"><ele>2389</ele><time>2017-08-25T12:37:00Z</time></trkpt>
<trkpt lat="46.18424" lon="7.48014"><ele>2389</ele><time>2017-08-25T12:37:01Z</time></trkpt>
<trkpt lat="46.18431" lon="7.48008"><ele>2385.6</ele><time>2017-08-25T12:37:13Z</time></trkpt>
<trkpt lat="46.18443" lon="7.48005"><ele>2381</ele><time>2017-08-25T12:37:33Z</time></trkpt>
<trkpt lat="46.18456" lon="7.47989"><ele>2376</ele><time>2017-08-25T12:37:49Z</time></trkpt>
<trkpt lat="46.18458" lon="7.47986"><ele>2375</ele><time>2017-08-25T12:37:52Z</time></trkpt>
<trkpt lat="46.18459" lon="7.47985"><ele>2374.6</ele><time>2017-08-25T12:37:53Z</time></trkpt>
<trkpt lat="46.18474" lon="7.47971"><ele>2371.2</ele><time>2017-08-25T12:38:09Z</time></trkpt>
<trkpt lat="46.18486" lon="7.47969"><ele>2369.2</ele><time>2017-08-25T12:38:15Z</time></trkpt>
<trkpt lat="46.18494" lon="7.47973"><ele>2367.8</ele><time>2017-08-25T12:38:19Z</time></trkpt>
<trkpt lat="46.18496" lon="7.47974"><ele>2368</ele><time>2017-08-25T12:38:20Z</time></trkpt>
<trkpt lat="46.18498" lon="7.47976"><ele>2367.4</ele><time>2017-08-25T12:38:22Z</time></trkpt>
<trkpt lat="46.18504" lon="7.47979"><ele>2367</ele><time>2017-08-25T12:38:30Z</time></trkpt>
<trkpt lat="46.18511" lon="7.47985"><ele>2366.4</ele><time>2017-08-25T12:38:44Z</time></trkpt>
<trkpt lat="46.18514" lon="7.47986"><ele>2366.4</ele><time>2017-08-25T12:38:51Z</time></trkpt>
<trkpt lat="46.18524" lon="7.47991"><ele>2364.2</ele><time>2017-08-25T12:39:04Z</time></trkpt>
<trkpt lat="46.18526" lon="7.47992"><ele>2363.2</ele><time>2017-08-25T12:39:07Z</time></trkpt>
<trkpt lat="46.18543" lon="7.48001"><ele>2359</ele><time>2017-08-25T12:39:27Z</time></trkpt>
<trkpt lat="46.18552" lon="7.48001"><ele>2354</ele><time>2017-08-25T12:39:43Z</time></trkpt>
<trkpt lat="46.18562" lon="7.48001"><ele>2349</ele><time>2017-08-25T12:40:01Z</time></trkpt>
<trkpt lat="46.18564" lon="7.48005"><ele>2347.6</ele><time>2017-08-25T12:40:07Z</time></trkpt>
<trkpt lat="46.18572" lon="7.48007"><ele>2344.6</ele><time>2017-08-25T12:40:16Z</time></trkpt>
<trkpt lat="46.18585" lon="7.47998"><ele>2341.4</ele><time>2017-08-25T12:40:34Z</time></trkpt>
<trkpt lat="46.18599" lon="7.47989"><ele>2338.2</ele><time>2017-08-25T12:40:39Z</time></trkpt>
<trkpt lat="46.1861" lon="7.47982"><ele>2335.8</ele><time>2017-08-25T12:40:42Z</time></trkpt>
<trkpt lat="46.18626" lon="7.47964"><ele>2332</ele><time>2017-08-25T12:40:46Z</time></trkpt>
<trkpt lat="46.18634" lon="7.47956"><ele>2330</ele><time>2017-08-25T12:40:48Z</time></trkpt>
<trkpt lat="46.18641" lon="7.47949"><ele>2328.6</ele><time>2017-08-25T12:40:50Z</time></trkpt>
<trkpt lat="46.18649" lon="7.47949"><ele>2327</ele><time>2017-08-25T12:40:54Z</time></trkpt>
<trkpt lat="46.18654" lon="7.4795"><ele>2326</ele><time>2017-08-25T12:40:58Z</time></trkpt>
<trkpt lat="46.18658" lon="7.47963"><ele>2323.6</ele><time>2017-08-25T12:41:10Z</time></trkpt>
<trkpt lat="46.18669" lon="7.47975"><ele>2321.4</ele><time>2017-08-25T12:41:22Z</time></trkpt>
<trkpt lat="46.18676" lon="7.47983"><ele>2320.6</ele><time>2017-08-25T12:41:25Z</time></trkpt>
<trkpt lat="46.18678" lon="7.47985"><ele>2320.6</ele><time>2017-08-25T12:41:26Z</time></trkpt>
<trkpt lat="46.18679" lon="7.47987"><ele>2320</ele><time>2017-08-25T12:41:27Z</time></trkpt>
<trkpt lat="46.1868" lon="7.47989"><ele>2319.4</ele><time>2017-08-25T12:41:28Z</time></trkpt>
<trkpt lat="46.18689" lon="7.47995"><ele>2317</ele><time>2017-08-25T12:41:35Z</time></trkpt>
<trkpt lat="46.18689" lon="7.47995"><ele>2316.8</ele><time>2017-08-25T12:41:36Z</time></trkpt>
<trkpt lat="46.18693" lon="7.47997"><ele>2317.8</ele><time>2017-08-25T12:41:45Z</time></trkpt>
<trkpt lat="46.18697" lon="7.47998"><ele>2317.4</ele><time>2017-08-25T12:41:51Z</time></trkpt>
<trkpt lat="46.18706" lon="7.47997"><ele>2316.8</ele><time>2017-08-25T12:41:55Z</time></trkpt>
<trkpt lat="46.18709" lon="7.47997"><ele>2316.4</ele><time>2017-08-25T12:41:57Z</time></trkpt>
<trkpt lat="46.18713" lon="7.47998"><ele>2315.2</ele><time>2017-08-25T12:42:01Z</time></trkpt>
<trkpt lat="46.18733" lon="7.48001"><ele>2308.8</ele><time>2017-08-25T12:42:10Z</time></trkpt>
<trkpt lat="46.18737" lon="7.48001"><ele>2307.8</ele><time>2017-08-25T12:42:12Z</time></trkpt>
<trkpt lat="46.18738" lon="7.48001"><ele>2307.6</ele><time>2017-08-25T12:42:13Z</time></trkpt>
<trkpt lat="46.18738" lon="7.48001"><ele>2308</ele><time>2017-08-25T12:42:14Z</time></trkpt>
<trkpt lat="46.18739" lon="7.48002"><ele>2308.4</ele><time>2017-08-25T12:42:16Z</time></trkpt>
<trkpt lat="46.18739" lon="7.48002"><ele>2307.8</ele><time>2017-08-25T12:42:17Z</time></trkpt>
<trkpt lat="46.18757" lon="7.48006"><ele>2307.4</ele><time>2017-08-25T12:42:30Z</time></trkpt>
<trkpt lat="46.18767" lon="7.48013"><ele>2306.6</ele><time>2017-08-25T12:42:39Z</time></trkpt>
<trkpt lat="46.18773" lon="7.48023"><ele>2304.2</ele><time>2017-08-25T12:42:48Z</time></trkpt>
<trkpt lat="46.18776" lon="7.4803"><ele>2303.6</ele><time>2017-08-25T12:42:53Z</time></trkpt>
<trkpt lat="46.18781" lon="7.48038"><ele>2303</ele><time>2017-08-25T12:42:59Z</time></trkpt>
<trkpt lat="46.18784" lon="7.48042"><ele>2301.4</ele><time>2017-08-25T12:43:09Z</time></trkpt>
<trkpt lat="46.1879" lon="7.48049"><ele>2300.2</ele><time>2017-08-25T12:43:17Z</time></trkpt>
<trkpt lat="46.18793" lon="7.48042"><ele>2299.6</ele><time>2017-08-25T12:43:25Z</time></trkpt>
<trkpt lat="46.18795" lon="7.48041"><ele>2299.2</ele><time>2017-08-25T12:43:27Z</time></trkpt>
<trkpt lat="46.18795" lon="7.48041"><ele>2299</ele><time>2017-08-25T12:43:28Z</time></trkpt>
<trkpt lat="46.18809" lon="7.48024"><ele>2297.6</ele><time>2017-08-25T12:43:38Z</time></trkpt>
<trkpt lat="46.18821" lon="7.48016"><ele>2296</ele><time>2017-08-25T12:43:44Z</time></trkpt>
<trkpt lat="46.18827" lon="7.4801"><ele>2296.8</ele><time>2017-08-25T12:43:49Z</time></trkpt>
<trkpt lat="46.18828" lon="7.48009"><ele>2297</ele><time>2017-08-25T12:43:50Z</time></trkpt>
<trkpt lat="46.18829" lon="7.48008"><ele>2297.2</ele><time>2017-08-25T12:43:51Z</time></trkpt>
<trkpt lat="46.18829" lon="7.48008"><ele>2297.2</ele><time>2017-08-25T12:43:52Z</time></trkpt>
<trkpt lat="46.18829" lon="7.48007"><ele>2297.4</ele><time>2017-08-25T12:43:56Z</time></trkpt>
<trkpt lat="46.18838" lon="7.47996"><ele>2297.4</ele><time>2017-08-25T12:44:21Z</time></trkpt>
<trkpt lat="46.1884" lon="7.47994"><ele>2297.2</ele><time>2017-08-25T12:44:23Z</time></trkpt>
<trkpt lat="46.18842" lon="7.47991"><ele>2297.2</ele><time>2017-08-25T12:44:26Z</time></trkpt>
<trkpt lat="46.18843" lon="7.4799"><ele>2297.2</ele><time>2017-08-25T12:44:28Z</time></trkpt>
<trkpt lat="46.18846" lon="7.47988"><ele>2297.2</ele><time>2017-08-25T12:44:33Z</time></trkpt>
<trkpt lat="46.18851" lon="7.47982"><ele>2296.8</ele><time>2017-08-25T12:44:41Z</time></trkpt>
<trkpt lat="46.18855" lon="7.47977"><ele>2296.4</ele><time>2017-08-25T12:44:46Z</time></trkpt>
<trkpt lat="46.18856" lon="7.47977"><ele>2296.4</ele><time>2017-08-25T12:44:47Z</time></trkpt>
<trkpt lat="46.18856" lon="7.47977"><ele>2296.2</ele><time>2017-08-25T12:44:48Z</time></trkpt>
<trkpt lat="46.18861" lon="7.47972"><ele>2295.8</ele><time>2017-08-25T12:44:54Z</time></trkpt>
<trkpt lat="46.1888" lon="7.47966"><ele>2294.4</ele><time>2017-08-25T12:45:03Z</time></trkpt>
<trkpt lat="46.18889" lon="7.47971"><ele>2291.8</ele><time>2017-08-25T12:45:07Z</time></trkpt>
<trkpt lat="46.18902" lon="7.4797"><ele>2290.6</ele><time>2017-08-25T12:45:12Z</time></trkpt>
<trkpt lat="46.18909" lon="7.47969"><ele>2290</ele><time>2017-08-25T12:45:15Z</time></trkpt>
<trkpt lat="46.18918" lon="7.47966"><ele>2288</ele><time>2017-08-25T12:45:19Z</time></trkpt>
<trkpt lat="46.18922" lon="7.47964"><ele>2288</ele><time>2017-08-25T12:45:21Z</time></trkpt>
<trkpt lat="46.18935" lon="7.47964"><ele>2287</ele><time>2017-08-25T12:45:25Z</time></trkpt>
<trkpt lat="46.18938" lon="7.47965"><ele>2286.6</ele><time>2017-08-25T12:45:26Z</time></trkpt>
<trkpt lat="46.18941" lon="7.47967"><ele>2286.4</ele><time>2017-08-25T12:45:27Z</time></trkpt>
<trkpt lat="46.18942" lon="7.47967"><ele>2286.2</ele><time>2017-08-25T12:45:28Z</time></trkpt>
<trkpt lat="46.18943" lon="7.47967"><ele>2286</ele><time>2017-08-25T12:45:29Z</time></trkpt>
<trkpt lat="46.18943" lon="7.47967"><ele>2286.2</ele><time>2017-08-25T12:45:30Z</time></trkpt>
<trkpt lat="46.18944" lon="7.47966"><ele>2286.4</ele><time>2017-08-25T12:45:37Z</time></trkpt>
<trkpt lat="46.18948" lon="7.47963"><ele>2286.4</ele><time>2017-08-25T12:45:47Z</time></trkpt>
<trkpt lat="46.18953" lon="7.47959"><ele>2286.2</ele><time>2017-08-25T12:45:57Z</time></trkpt>
<trkpt lat="46.18953" lon="7.47959"><ele>2285.8</ele><time>2017-08-25T12:46:11Z</time></trkpt>
<trkpt lat="46.18954" lon="7.47953"><ele>2285.4</ele><time>2017-08-25T12:46:21Z</time></trkpt>
<trkpt lat="46.18965" lon="7.47947"><ele>2285.2</ele><time>2017-08-25T12:46:35Z</time></trkpt>
<trkpt lat="46.18971" lon="7.4794"><ele>2284.4</ele><time>2017-08-25T12:46:37Z</time></trkpt>
<trkpt lat="46.18984" lon="7.47916"><ele>2282.4</ele><time>2017-08-25T12:46:41Z</time></trkpt>
<trkpt lat="46.18994" lon="7.47896"><ele>2281.6</ele><time>2017-08-25T12:46:44Z</time></trkpt>
<trkpt lat="46.18997" lon="7.4789"><ele>2281</ele><time>2017-08-25T12:46:45Z</time></trkpt>
<trkpt lat="46.19" lon="7.47883"><ele>2280.4</ele><time>2017-08-25T12:46:46Z</time></trkpt>
<trkpt lat="46.19013" lon="7.4786"><ele>2278.2</ele><time>2017-08-25T12:46:50Z</time></trkpt>
<trkpt lat="46.19028" lon="7.47836"><ele>2276</ele><time>2017-08-25T12:46:54Z</time></trkpt>
<trkpt lat="46.19041" lon="7.47813"><ele>2274.4</ele><time>2017-08-25T12:46:58Z</time></trkpt>
<trkpt lat="46.19055" lon="7.47809"><ele>2272.8</ele><time>2017-08-25T12:47:02Z</time></trkpt>
<trkpt lat="46.19068" lon="7.47814"><ele>2271.2</ele><time>2017-08-25T12:47:06Z</time></trkpt>
<trkpt lat="46.19074" lon="7.47818"><ele>2270.2</ele><time>2017-08-25T12:47:08Z</time></trkpt>
<trkpt lat="46.19094" lon="7.47832"><ele>2266.6</ele><time>2017-08-25T12:47:13Z</time></trkpt>
<trkpt lat="46.19107" lon="7.47844"><ele>2264</ele><time>2017-08-25T12:47:16Z</time></trkpt>
<trkpt lat="46.19128" lon="7.47861"><ele>2260</ele><time>2017-08-25T12:47:20Z</time></trkpt>
<trkpt lat="46.19147" lon="7.47863"><ele>2256.2</ele><time>2017-08-25T12:47:23Z</time></trkpt>
<trkpt lat="46.19152" lon="7.47861"><ele>2255.4</ele><time>2017-08-25T12:47:24Z</time></trkpt>
<trkpt lat="46.19157" lon="7.47861"><ele>2254.4</ele><time>2017-08-25T12:47:25Z</time></trkpt>
<trkpt lat="46.19177" lon="7.47869"><ele>2250.2</ele><time>2017-08-25T12:47:29Z</time></trkpt>
<trkpt lat="46.19195" lon="7.47877"><ele>2247</ele><time>2017-08-25T12:47:32Z</time></trkpt>
<trkpt lat="46.19212" lon="7.47884"><ele>2243.6</ele><time>2017-08-25T12:47:35Z</time></trkpt>
<trkpt lat="46.19233" lon="7.47879"><ele>2239.8</ele><time>2017-08-25T12:47:39Z</time></trkpt>
<trkpt lat="46.19237" lon="7.47878"><ele>2238.8</ele><time>2017-08-25T12:47:40Z</time></trkpt>
<trkpt lat="46.19254" lon="7.47893"><ele>2235.4</ele><time>2017-08-25T12:47:45Z</time></trkpt>
<trkpt lat="46.19261" lon="7.47901"><ele>2234.2</ele><time>2017-08-25T12:47:47Z</time></trkpt>
<trkpt lat="46.19279" lon="7.47907"><ele>2231</ele><time>2017-08-25T12:47:51Z</time></trkpt>
<trkpt lat="46.19289" lon="7.47906"><ele>2229.2</ele><time>2017-08-25T12:47:53Z</time></trkpt>
<trkpt lat="46.19309" lon="7.47892"><ele>2224.6</ele><time>2017-08-25T12:47:57Z</time></trkpt>
<trkpt lat="46.19318" lon="7.47886"><ele>2222.8</ele><time>2017-08-25T12:47:59Z</time></trkpt>
<trkpt lat="46.19328" lon="7.47879"><ele>2221</ele><time>2017-08-25T12:48:01Z</time></trkpt>
<trkpt lat="46.19342" lon="7.47868"><ele>2218.6</ele><time>2017-08-25T12:48:04Z</time></trkpt>
<trkpt lat="46.19356" lon="7.47864"><ele>2216</ele><time>2017-08-25T12:48:07Z</time></trkpt>
<trkpt lat="46.19373" lon="7.47843"><ele>2212.8</ele><time>2017-08-25T12:48:11Z</time></trkpt>
<trkpt lat="46.19393" lon="7.47828"><ele>2209.4</ele><time>2017-08-25T12:48:15Z</time></trkpt>
<trkpt lat="46.19399" lon="7.47825"><ele>2208.4</ele><time>2017-08-25T12:48:16Z</time></trkpt>
<trkpt lat="46.19404" lon="7.47821"><ele>2207.6</ele><time>2017-08-25T12:48:17Z</time></trkpt>
<trkpt lat="46.19408" lon="7.47818"><ele>2207.2</ele><time>2017-08-25T12:48:18Z</time></trkpt>
<trkpt lat="46.19424" lon="7.47804"><ele>2204.6</ele><time>2017-08-25T12:48:23Z</time></trkpt>
<trkpt lat="46.19439" lon="7.47788"><ele>2201.8</ele><time>2017-08-25T12:48:27Z</time></trkpt>
<trkpt lat="46.19449" lon="7.47775"><ele>2200</ele><time>2017-08-25T12:48:31Z</time></trkpt>
<trkpt lat="46.19457" lon="7.47768"><ele>2198.4</ele><time>2017-08-25T12:48:34Z</time></trkpt>
<trkpt lat="46.1946" lon="7.47765"><ele>2197.8</ele><time>2017-08-25T12:48:35Z</time></trkpt>
<trkpt lat="46.19472" lon="7.47741"><ele>2195</ele><time>2017-08-25T12:48:41Z</time></trkpt>
<trkpt lat="46.19476" lon="7.47737"><ele>2194.4</ele><time>2017-08-25T12:48:43Z</time></trkpt>
<trkpt lat="46.19479" lon="7.47736"><ele>2194.2</ele><time>2017-08-25T12:48:44Z</time></trkpt>
<trkpt lat="46.19481" lon="7.47737"><ele>2194</ele><time>2017-08-25T12:48:45Z</time></trkpt>
<trkpt lat="46.1949" lon="7.47749"><ele>2192.8</ele><time>2017-08-25T12:48:59Z</time></trkpt>
<trkpt lat="46.19507" lon="7.47756"><ele>2192.2</ele><time>2017-08-25T12:49:12Z</time></trkpt>
<trkpt lat="46.19512" lon="7.47756"><ele>2191</ele><time>2017-08-25T12:49:13Z</time></trkpt>
<trkpt lat="46.19531" lon="7.47749"><ele>2187.8</ele><time>2017-08-25T12:49:17Z</time></trkpt>
<trkpt lat="46.19547" lon="7.47748"><ele>2186.2</ele><time>2017-08-25T12:49:20Z</time></trkpt>
<trkpt lat="46.1956" lon="7.47747"><ele>2184.8</ele><time>2017-08-25T12:49:22Z</time></trkpt>
<trkpt lat="46.19577" lon="7.47739"><ele>2182.4</ele><time>2017-08-25T12:49:25Z</time></trkpt>
<trkpt lat="46.19583" lon="7.47735"><ele>2181.4</ele><time>2017-08-25T12:49:26Z</time></trkpt>
<trkpt lat="46.19592" lon="7.47725"><ele>2180</ele><time>2017-08-25T12:49:28Z</time></trkpt>
<trkpt lat="46.19608" lon="7.47708"><ele>2177.2</ele><time>2017-08-25T12:49:32Z</time></trkpt>
<trkpt lat="46.19612" lon="7.47705"><ele>2176.8</ele><time>2017-08-25T12:49:33Z</time></trkpt>
<trkpt lat="46.1962" lon="7.47692"><ele>2173.8</ele><time>2017-08-25T12:49:40Z</time></trkpt>
<trkpt lat="46.1961" lon="7.47694"><ele>2172.8</ele><time>2017-08-25T12:49:43Z</time></trkpt>
<trkpt lat="46.19602" lon="7.47697"><ele>2172</ele><time>2017-08-25T12:49:45Z</time></trkpt>
<trkpt lat="46.19592" lon="7.47699"><ele>2171.6</ele><time>2017-08-25T12:49:47Z</time></trkpt>
<trkpt lat="46.19579" lon="7.47698"><ele>2170.8</ele><time>2017-08-25T12:49:50Z</time></trkpt>
<trkpt lat="46.1956" lon="7.47684"><ele>2169.2</ele><time>2017-08-25T12:49:55Z</time></trkpt>
<trkpt lat="46.19548" lon="7.47678"><ele>2169</ele><time>2017-08-25T12:49:58Z</time></trkpt>
<trkpt lat="46.1953" lon="7.47673"><ele>2169.8</ele><time>2017-08-25T12:50:03Z</time></trkpt>
<trkpt lat="46.19514" lon="7.47669"><ele>2170.6</ele><time>2017-08-25T12:50:08Z</time></trkpt>
<trkpt lat="46.19499" lon="7.47661"><ele>2171</ele><time>2017-08-25T12:50:13Z</time></trkpt>
<trkpt lat="46.19493" lon="7.4766"><ele>2171.4</ele><time>2017-08-25T12:50:15Z</time></trkpt>
<trkpt lat="46.19474" lon="7.47662"><ele>2172.2</ele><time>2017-08-25T12:50:22Z</time></trkpt>
<trkpt lat="46.19467" lon="7.4767"><ele>2171.8</ele><time>2017-08-25T12:50:26Z</time></trkpt>
<trkpt lat="46.19463" lon="7.47674"><ele>2171.4</ele><time>2017-08-25T12:50:28Z</time></trkpt>
<trkpt lat="46.19444" lon="7.47694"><ele>2170.4</ele><time>2017-08-25T12:50:36Z</time></trkpt>
<trkpt lat="46.19422" lon="7.47704"><ele>2168.2</ele><time>2017-08-25T12:50:41Z</time></trkpt>
<trkpt lat="46.19411" lon="7.47707"><ele>2167.2</ele><time>2017-08-25T12:50:43Z</time></trkpt>
<trkpt lat="46.19393" lon="7.47703"><ele>2165.8</ele><time>2017-08-25T12:50:46Z</time></trkpt>
<trkpt lat="46.19387" lon="7.47701"><ele>2165.4</ele><time>2017-08-25T12:50:47Z</time></trkpt>
<trkpt lat="46.19369" lon="7.47703"><ele>2163.8</ele><time>2017-08-25T12:50:50Z</time></trkpt>
<trkpt lat="46.19363" lon="7.47705"><ele>2163.2</ele><time>2017-08-25T12:50:51Z</time></trkpt>
<trkpt lat="46.1935" lon="7.47705"><ele>2162</ele><time>2017-08-25T12:50:53Z</time></trkpt>
<trkpt lat="46.19336" lon="7.47688"><ele>2159.6</ele><time>2017-08-25T12:50:56Z</time></trkpt>
<trkpt lat="46.19319" lon="7.47673"><ele>2157.4</ele><time>2017-08-25T12:50:59Z</time></trkpt>
<trkpt lat="46.19302" lon="7.47654"><ele>2155</ele><time>2017-08-25T12:51:02Z</time></trkpt>
<trkpt lat="46.1929" lon="7.47624"><ele>2152.2</ele><time>2017-08-25T12:51:05Z</time></trkpt>
<trkpt lat="46.19287" lon="7.47615"><ele>2151.6</ele><time>2017-08-25T12:51:06Z</time></trkpt>
<trkpt lat="46.19278" lon="7.47598"><ele>2150.4</ele><time>2017-08-25T12:51:08Z</time></trkpt>
<trkpt lat="46.19261" lon="7.47584"><ele>2148.6</ele><time>2017-08-25T12:51:11Z</time></trkpt>
<trkpt lat="46.1924" lon="7.47571"><ele>2146.8</ele><time>2017-08-25T12:51:14Z</time></trkpt>
<trkpt lat="46.19229" lon="7.47555"><ele>2145.4</ele><time>2017-08-25T12:51:16Z</time></trkpt>
<trkpt lat="46.19226" lon="7.47546"><ele>2144.8</ele><time>2017-08-25T12:51:17Z</time></trkpt>
<trkpt lat="46.19215" lon="7.4752"><ele>2143</ele><time>2017-08-25T12:51:20Z</time></trkpt>
<trkpt lat="46.19211" lon="7.47512"><ele>2142</ele><time>2017-08-25T12:51:21Z</time></trkpt>
<trkpt lat="46.19196" lon="7.47493"><ele>2139.8</ele><time>2017-08-25T12:51:24Z</time></trkpt>
<trkpt lat="46.19183" lon="7.47481"><ele>2138.4</ele><time>2017-08-25T12:51:26Z</time></trkpt>
<trkpt lat="46.19163" lon="7.47464"><ele>2136</ele><time>2017-08-25T12:51:29Z</time></trkpt>
<trkpt lat="46.19148" lon="7.47455"><ele>2134.4</ele><time>2017-08-25T12:51:31Z</time></trkpt>
<trkpt lat="46.19131" lon="7.47437"><ele>2132.4</ele><time>2017-08-25T12:51:34Z</time></trkpt>
<trkpt lat="46.19114" lon="7.4742"><ele>2131</ele><time>2017-08-25T12:51:37Z</time></trkpt>
<trkpt lat="46.19095" lon="7.47406"><ele>2129.4</ele><time>2017-08-25T12:51:40Z</time></trkpt>
<trkpt lat="46.19075" lon="7.47397"><ele>2127.8</ele><time>2017-08-25T12:51:43Z</time></trkpt>
<trkpt lat="46.19069" lon="7.47395"><ele>2127.2</ele><time>2017-08-25T12:51:44Z</time></trkpt>
<trkpt lat="46.19058" lon="7.47396"><ele>2127</ele><time>2017-08-25T12:51:46Z</time></trkpt>
<trkpt lat="46.19047" lon="7.47403"><ele>2126.4</ele><time>2017-08-25T12:51:48Z</time></trkpt>
<trkpt lat="46.19041" lon="7.47407"><ele>2126</ele><time>2017-08-25T12:51:49Z</time></trkpt>
<trkpt lat="46.19021" lon="7.47415"><ele>2124</ele><time>2017-08-25T12:51:52Z</time></trkpt>
<trkpt lat="46.19014" lon="7.47418"><ele>2123.4</ele><time>2017-08-25T12:51:53Z</time></trkpt>
<trkpt lat="46.18994" lon="7.47434"><ele>2121.4</ele><time>2017-08-25T12:51:56Z</time></trkpt>
<trkpt lat="46.18988" lon="7.4744"><ele>2121</ele><time>2017-08-25T12:51:57Z</time></trkpt>
<trkpt lat="46.18977" lon="7.47442"><ele>2119.8</ele><time>2017-08-25T12:51:59Z</time></trkpt>
<trkpt lat="46.18981" lon="7.47417"><ele>2116.8</ele><time>2017-08-25T12:52:04Z</time></trkpt>
<trkpt lat="46.18999" lon="7.47406"><ele>2114.8</ele><time>2017-08-25T12:52:07Z</time></trkpt>
<trkpt lat="46.19011" lon="7.47393"><ele>2112.8</ele><time>2017-08-25T12:52:09Z</time></trkpt>
<trkpt lat="46.19029" lon="7.47372"><ele>2109.8</ele><time>2017-08-25T12:52:12Z</time></trkpt>
<trkpt lat="46.19039" lon="7.47356"><ele>2108</ele><time>2017-08-25T12:52:14Z</time></trkpt>
<trkpt lat="46.19049" lon="7.47333"><ele>2105.8</ele><time>2017-08-25T12:52:17Z</time></trkpt>
<trkpt lat="46.19067" lon="7.47323"><ele>2102.6</ele><time>2017-08-25T12:52:21Z</time></trkpt>
<trkpt lat="46.19073" lon="7.47324"><ele>2102</ele><time>2017-08-25T12:52:22Z</time></trkpt>
<trkpt lat="46.19086" lon="7.47324"><ele>2100.4</ele><time>2017-08-25T12:52:24Z</time></trkpt>
<trkpt lat="46.19105" lon="7.47328"><ele>2097.4</ele><time>2017-08-25T12:52:27Z</time></trkpt>
<trkpt lat="46.19117" lon="7.47329"><ele>2095.8</ele><time>2017-08-25T12:52:29Z</time></trkpt>
<trkpt lat="46.19123" lon="7.47329"><ele>2095.2</ele><time>2017-08-25T12:52:30Z</time></trkpt>
<trkpt lat="46.19134" lon="7.47331"><ele>2093.8</ele><time>2017-08-25T12:52:32Z</time></trkpt>
<trkpt lat="46.19152" lon="7.4734"><ele>2090.6</ele><time>2017-08-25T12:52:35Z</time></trkpt>
<trkpt lat="46.19172" lon="7.47345"><ele>2087.6</ele><time>2017-08-25T12:52:38Z</time></trkpt>
<trkpt lat="46.19193" lon="7.4735"><ele>2084.8</ele><time>2017-08-25T12:52:41Z</time></trkpt>
<trkpt lat="46.19206" lon="7.47354"><ele>2082.8</ele><time>2017-08-25T12:52:43Z</time></trkpt>
<trkpt lat="46.19227" lon="7.47362"><ele>2079.8</ele><time>2017-08-25T12:52:46Z</time></trkpt>
<trkpt lat="46.1925" lon="7.47371"><ele>2076.4</ele><time>2017-08-25T12:52:49Z</time></trkpt>
<trkpt lat="46.1927" lon="7.47384"><ele>2073.2</ele><time>2017-08-25T12:52:52Z</time></trkpt>
<trkpt lat="46.19282" lon="7.47395"><ele>2070.8</ele><time>2017-08-25T12:52:54Z</time></trkpt>
<trkpt lat="46.19301" lon="7.4741"><ele>2068</ele><time>2017-08-25T12:52:57Z</time></trkpt>
<trkpt lat="46.19323" lon="7.47412"><ele>2065</ele><time>2017-08-25T12:53:00Z</time></trkpt>
<trkpt lat="46.1933" lon="7.47412"><ele>2063.4</ele><time>2017-08-25T12:53:01Z</time></trkpt>
<trkpt lat="46.19353" lon="7.47411"><ele>2060.8</ele><time>2017-08-25T12:53:04Z</time></trkpt>
<trkpt lat="46.19373" lon="7.47413"><ele>2058.6</ele><time>2017-08-25T12:53:07Z</time></trkpt>
<trkpt lat="46.19379" lon="7.47413"><ele>2058.4</ele><time>2017-08-25T12:53:08Z</time></trkpt>
<trkpt lat="46.19391" lon="7.47411"><ele>2057.8</ele><time>2017-08-25T12:53:10Z</time></trkpt>
<trkpt lat="46.19413" lon="7.47418"><ele>2054.4</ele><time>2017-08-25T12:53:14Z</time></trkpt>
<trkpt lat="46.19418" lon="7.47416"><ele>2054</ele><time>2017-08-25T12:53:15Z</time></trkpt>
<trkpt lat="46.19435" lon="7.474"><ele>2051.6</ele><time>2017-08-25T12:53:18Z</time></trkpt>
<trkpt lat="46.1944" lon="7.47394"><ele>2050.2</ele><time>2017-08-25T12:53:19Z</time></trkpt>
<trkpt lat="46.19451" lon="7.47379"><ele>2048</ele><time>2017-08-25T12:53:21Z</time></trkpt>
<trkpt lat="46.19462" lon="7.47356"><ele>2045</ele><time>2017-08-25T12:53:24Z</time></trkpt>
<trkpt lat="46.19466" lon="7.4735"><ele>2044</ele><time>2017-08-25T12:53:25Z</time></trkpt>
<trkpt lat="46.19484" lon="7.47328"><ele>2042</ele><time>2017-08-25T12:53:29Z</time></trkpt>
<trkpt lat="46.19494" lon="7.47319"><ele>2039.8</ele><time>2017-08-25T12:53:31Z</time></trkpt>
<trkpt lat="46.19504" lon="7.47311"><ele>2037.8</ele><time>2017-08-25T12:53:33Z</time></trkpt>
<trkpt lat="46.19513" lon="7.473"><ele>2036.2</ele><time>2017-08-25T12:53:35Z</time></trkpt>
<trkpt lat="46.19517" lon="7.47295"><ele>2035.2</ele><time>2017-08-25T12:53:36Z</time></trkpt>
<trkpt lat="46.1953" lon="7.47277"><ele>2032.4</ele><time>2017-08-25T12:53:40Z</time></trkpt>
<trkpt lat="46.19542" lon="7.47258"><ele>2029.4</ele><time>2017-08-25T12:53:45Z</time></trkpt>
<trkpt lat="46.19544" lon="7.47255"><ele>2029</ele><time>2017-08-25T12:53:46Z</time></trkpt>
<trkpt lat="46.19545" lon="7.47252"><ele>2030</ele><time>2017-08-25T12:53:57Z</time></trkpt>
<trkpt lat="46.19544" lon="7.47251"><ele>2030.2</ele><time>2017-08-25T12:54:05Z</time></trkpt>
<trkpt lat="46.19546" lon="7.47251"><ele>2030.2</ele><time>2017-08-25T12:54:09Z</time></trkpt>
<trkpt lat="46.19569" lon="7.47254"><ele>2028.2</ele><time>2017-08-25T12:54:15Z</time></trkpt>
<trkpt lat="46.19586" lon="7.4725"><ele>2026.4</ele><time>2017-08-25T12:54:18Z</time></trkpt>
<trkpt lat="46.19592" lon="7.47251"><ele>2026</ele><time>2017-08-25T12:54:19Z</time></trkpt>
<trkpt lat="46.19616" lon="7.47254"><ele>2023</ele><time>2017-08-25T12:54:23Z</time></trkpt>
<trkpt lat="46.19637" lon="7.47257"><ele>2020.2</ele><time>2017-08-25T12:54:26Z</time></trkpt>
<trkpt lat="46.19659" lon="7.47263"><ele>2017</ele><time>2017-08-25T12:54:30Z</time></trkpt>
<trkpt lat="46.19669" lon="7.4727"><ele>2015.4</ele><time>2017-08-25T12:54:32Z</time></trkpt>
<trkpt lat="46.19682" lon="7.47291"><ele>2012</ele><time>2017-08-25T12:54:35Z</time></trkpt>
<trkpt lat="46.19685" lon="7.47298"><ele>2010.6</ele><time>2017-08-25T12:54:36Z</time></trkpt>
<trkpt lat="46.19688" lon="7.47304"><ele>2009.8</ele><time>2017-08-25T12:54:37Z</time></trkpt>
<trkpt lat="46.19706" lon="7.47298"><ele>2006</ele><time>2017-08-25T12:54:41Z</time></trkpt>
<trkpt lat="46.19714" lon="7.47273"><ele>2002.4</ele><time>2017-08-25T12:54:45Z</time></trkpt>
<trkpt lat="46.19721" lon="7.47245"><ele>1999.6</ele><time>2017-08-25T12:54:50Z</time></trkpt>
<trkpt lat="46.19724" lon="7.47239"><ele>1998.6</ele><time>2017-08-25T12:54:51Z</time></trkpt>
<trkpt lat="46.19728" lon="7.47234"><ele>1998.2</ele><time>2017-08-25T12:54:52Z</time></trkpt>
<trkpt lat="46.19747" lon="7.47223"><ele>1995.8</ele><time>2017-08-25T12:54:56Z</time></trkpt>
<trkpt lat="46.19768" lon="7.47217"><ele>1992.8</ele><time>2017-08-25T12:55:00Z</time></trkpt>
<trkpt lat="46.19789" lon="7.47205"><ele>1990.2</ele><time>2017-08-25T12:55:04Z</time></trkpt>
<trkpt lat="46.19794" lon="7.472"><ele>1989.6</ele><time>2017-08-25T12:55:05Z</time></trkpt>
<trkpt lat="46.1981" lon="7.47184"><ele>1986.8</ele><time>2017-08-25T12:55:08Z</time></trkpt>
<trkpt lat="46.1982" lon="7.47164"><ele>1984.2</ele><time>2017-08-25T12:55:11Z</time></trkpt>
<trkpt lat="46.19839" lon="7.47149"><ele>1981.2</ele><time>2017-08-25T12:55:15Z</time></trkpt>
<trkpt lat="46.19844" lon="7.47147"><ele>1980.6</ele><time>2017-08-25T12:55:16Z</time></trkpt>
<trkpt lat="46.19866" lon="7.47151"><ele>1977</ele><time>2017-08-25T12:55:20Z</time></trkpt>
<trkpt lat="46.19878" lon="7.47154"><ele>1975.6</ele><time>2017-08-25T12:55:22Z</time></trkpt>
<trkpt lat="46.19897" lon="7.47144"><ele>1973.6</ele><time>2017-08-25T12:55:25Z</time></trkpt>
<trkpt lat="46.19912" lon="7.47118"><ele>1971.6</ele><time>2017-08-25T12:55:28Z</time></trkpt>
<trkpt lat="46.19929" lon="7.47095"><ele>1969.6</ele><time>2017-08-25T12:55:31Z</time></trkpt>
<trkpt lat="46.19941" lon="7.4708"><ele>1968.4</ele><time>2017-08-25T12:55:33Z</time></trkpt>
<trkpt lat="46.19953" lon="7.47064"><ele>1967</ele><time>2017-08-25T12:55:35Z</time></trkpt>
<trkpt lat="46.19965" lon="7.47033"><ele>1965.2</ele><time>2017-08-25T12:55:38Z</time></trkpt>
<trkpt lat="46.19967" lon="7.47011"><ele>1963.6</ele><time>2017-08-25T12:55:40Z</time></trkpt>
<trkpt lat="46.19967" lon="7.47002"><ele>1962.6</ele><time>2017-08-25T12:55:41Z</time></trkpt>
<trkpt lat="46.19969" lon="7.46986"><ele>1961.6</ele><time>2017-08-25T12:55:43Z</time></trkpt>
<trkpt lat="46.19984" lon="7.46961"><ele>1958.8</ele><time>2017-08-25T12:55:47Z</time></trkpt>
<trkpt lat="46.19989" lon="7.46954"><ele>1957.8</ele><time>2017-08-25T12:55:48Z</time></trkpt>
<trkpt lat="46.20007" lon="7.46929"><ele>1955</ele><time>2017-08-25T12:55:51Z</time></trkpt>
<trkpt lat="46.20013" lon="7.46922"><ele>1954</ele><time>2017-08-25T12:55:52Z</time></trkpt>
<trkpt lat="46.20025" lon="7.46909"><ele>1952.2</ele><time>2017-08-25T12:55:54Z</time></trkpt>
<trkpt lat="46.20033" lon="7.46883"><ele>1950</ele><time>2017-08-25T12:55:57Z</time></trkpt>
<trkpt lat="46.20037" lon="7.46855"><ele>1947.6</ele><time>2017-08-25T12:56:00Z</time></trkpt>
<trkpt lat="46.20043" lon="7.46838"><ele>1946</ele><time>2017-08-25T12:56:02Z</time></trkpt>
<trkpt lat="46.20054" lon="7.4681"><ele>1944</ele><time>2017-08-25T12:56:05Z</time></trkpt>
<trkpt lat="46.20065" lon="7.46782"><ele>1942.2</ele><time>2017-08-25T12:56:08Z</time></trkpt>
<trkpt lat="46.20065" lon="7.46749"><ele>1940</ele><time>2017-08-25T12:56:11Z</time></trkpt>
<trkpt lat="46.20065" lon="7.4674"><ele>1939.2</ele><time>2017-08-25T12:56:12Z</time></trkpt>
<trkpt lat="46.20068" lon="7.46712"><ele>1936.8</ele><time>2017-08-25T12:56:15Z</time></trkpt>
<trkpt lat="46.20071" lon="7.46701"><ele>1936.2</ele><time>2017-08-25T12:56:16Z</time></trkpt>
<trkpt lat="46.20081" lon="7.46668"><ele>1934.4</ele><time>2017-08-25T12:56:19Z</time></trkpt>
<trkpt lat="46.20082" lon="7.46657"><ele>1933.2</ele><time>2017-08-25T12:56:20Z</time></trkpt>
<trkpt lat="46.20079" lon="7.46634"><ele>1931.2</ele><time>2017-08-25T12:56:22Z</time></trkpt>
<trkpt lat="46.20072" lon="7.46601"><ele>1927.4</ele><time>2017-08-25T12:56:25Z</time></trkpt>
<trkpt lat="46.20067" lon="7.46572"><ele>1924.2</ele><time>2017-08-25T12:56:28Z</time></trkpt>
<trkpt lat="46.20066" lon="7.46554"><ele>1922.6</ele><time>2017-08-25T12:56:30Z</time></trkpt>
<trkpt lat="46.20071" lon="7.46524"><ele>1919.8</ele><time>2017-08-25T12:56:34Z</time></trkpt>
<trkpt lat="46.20072" lon="7.46516"><ele>1918.6</ele><time>2017-08-25T12:56:35Z</time></trkpt>
<trkpt lat="46.20071" lon="7.4649"><ele>1916</ele><time>2017-08-25T12:56:38Z</time></trkpt>
<trkpt lat="46.20071" lon="7.4646"><ele>1912.6</ele><time>2017-08-25T12:56:41Z</time></trkpt>
<trkpt lat="46.20073" lon="7.46429"><ele>1910</ele><time>2017-08-25T12:56:44Z</time></trkpt>
<trkpt lat="46.20073" lon="7.46412"><ele>1908.8</ele><time>2017-08-25T12:56:46Z</time></trkpt>
<trkpt lat="46.20074" lon="7.46405"><ele>1908.2</ele><time>2017-08-25T12:56:47Z</time></trkpt>
<trkpt lat="46.20087" lon="7.46388"><ele>1906.6</ele><time>2017-08-25T12:56:51Z</time></trkpt>
<trkpt lat="46.20102" lon="7.46373"><ele>1907.6</ele><time>2017-08-25T12:56:58Z</time></trkpt>
<trkpt lat="46.20104" lon="7.46372"><ele>1907.6</ele><time>2017-08-25T12:56:59Z</time></trkpt>
<trkpt lat="46.20107" lon="7.46369"><ele>1907.8</ele><time>2017-08-25T12:57:02Z</time></trkpt>
<trkpt lat="46.20111" lon="7.46365"><ele>1908</ele><time>2017-08-25T12:57:05Z</time></trkpt>
<trkpt lat="46.20113" lon="7.46353"><ele>1910.4</ele><time>2017-08-25T12:57:11Z</time></trkpt>
<trkpt lat="46.20113" lon="7.46349"><ele>1911.4</ele><time>2017-08-25T12:57:13Z</time></trkpt>
<trkpt lat="46.20115" lon="7.46344"><ele>1912.6</ele><time>2017-08-25T12:57:16Z</time></trkpt>
<trkpt lat="46.20117" lon="7.46336"><ele>1915</ele><time>2017-08-25T12:57:23Z</time></trkpt>
<trkpt lat="46.20119" lon="7.46332"><ele>1915.6</ele><time>2017-08-25T12:57:26Z</time></trkpt>
<trkpt lat="46.2012" lon="7.46325"><ele>1916.4</ele><time>2017-08-25T12:57:31Z</time></trkpt>
<trkpt lat="46.20125" lon="7.46309"><ele>1918.2</ele><time>2017-08-25T12:57:42Z</time></trkpt>
<trkpt lat="46.20127" lon="7.46306"><ele>1918.4</ele><time>2017-08-25T12:57:45Z</time></trkpt>
<trkpt lat="46.20129" lon="7.463"><ele>1919.6</ele><time>2017-08-25T12:57:49Z</time></trkpt>
<trkpt lat="46.20134" lon="7.46294"><ele>1920.8</ele><time>2017-08-25T12:57:55Z</time></trkpt>
<trkpt lat="46.20135" lon="7.46292"><ele>1921.4</ele><time>2017-08-25T12:57:57Z</time></trkpt>
<trkpt lat="46.20137" lon="7.46291"><ele>1921.8</ele><time>2017-08-25T12:57:59Z</time></trkpt>
<trkpt lat="46.20138" lon="7.46287"><ele>1922.2</ele><time>2017-08-25T12:58:02Z</time></trkpt>
<trkpt lat="46.20142" lon="7.46275"><ele>1923.6</ele><time>2017-08-25T12:58:12Z</time></trkpt>
<trkpt lat="46.20143" lon="7.46273"><ele>1923.8</ele><time>2017-08-25T12:58:14Z</time></trkpt>
<trkpt lat="46.2015" lon="7.46262"><ele>1924.4</ele><time>2017-08-25T12:58:25Z</time></trkpt>
<trkpt lat="46.20153" lon="7.46259"><ele>1924.4</ele><time>2017-08-25T12:58:28Z</time></trkpt>
<trkpt lat="46.20155" lon="7.46253"><ele>1924.4</ele><time>2017-08-25T12:58:33Z</time></trkpt>
<trkpt lat="46.20162" lon="7.46238"><ele>1925.2</ele><time>2017-08-25T12:58:45Z</time></trkpt>
<trkpt lat="46.20163" lon="7.46235"><ele>1925.4</ele><time>2017-08-25T12:58:47Z</time></trkpt>
<trkpt lat="46.20165" lon="7.46228"><ele>1925.6</ele><time>2017-08-25T12:58:54Z</time></trkpt>
<trkpt lat="46.20173" lon="7.46203"><ele>1927.2</ele><time>2017-08-25T12:59:12Z</time></trkpt>
<trkpt lat="46.20176" lon="7.4619"><ele>1927.2</ele><time>2017-08-25T12:59:22Z</time></trkpt>
<trkpt lat="46.20178" lon="7.46163"><ele>1928.4</ele><time>2017-08-25T12:59:40Z</time></trkpt>
<trkpt lat="46.20178" lon="7.46153"><ele>1929</ele><time>2017-08-25T12:59:46Z</time></trkpt>
<trkpt lat="46.20187" lon="7.46129"><ele>1930.2</ele><time>2017-08-25T13:00:02Z</time></trkpt>
<trkpt lat="46.20188" lon="7.46127"><ele>1930.2</ele><time>2017-08-25T13:00:03Z</time></trkpt>
<trkpt lat="46.20195" lon="7.46118"><ele>1931.4</ele><time>2017-08-25T13:00:12Z</time></trkpt>
<trkpt lat="46.20206" lon="7.4609"><ele>1935.4</ele><time>2017-08-25T13:00:33Z</time></trkpt>
<trkpt lat="46.20217" lon="7.46069"><ele>1937.8</ele><time>2017-08-25T13:00:46Z</time></trkpt>
<trkpt lat="46.20223" lon="7.46049"><ele>1940.2</ele><time>2017-08-25T13:00:56Z</time></trkpt>
<trkpt lat="46.20231" lon="7.46026"><ele>1942.8</ele><time>2017-08-25T13:01:09Z</time></trkpt>
<trkpt lat="46.20232" lon="7.46025"><ele>1942.8</ele><time>2017-08-25T13:01:10Z</time></trkpt>
<trkpt lat="46.20237" lon="7.46011"><ele>1944.6</ele><time>2017-08-25T13:01:22Z</time></trkpt>
<trkpt lat="46.20246" lon="7.45989"><ele>1947.8</ele><time>2017-08-25T13:01:40Z</time></trkpt>
<trkpt lat="46.20253" lon="7.45976"><ele>1949.8</ele><time>2017-08-25T13:01:50Z</time></trkpt>
<trkpt lat="46.20261" lon="7.45963"><ele>1951.8</ele><time>2017-08-25T13:01:59Z</time></trkpt>
<trkpt lat="46.20274" lon="7.45943"><ele>1955</ele><time>2017-08-25T13:02:14Z</time></trkpt>
<trkpt lat="46.20279" lon="7.45934"><ele>1955.6</ele><time>2017-08-25T13:02:20Z</time></trkpt>
<trkpt lat="46.20296" lon="7.45924"><ele>1958.4</ele><time>2017-08-25T13:02:35Z</time></trkpt>
<trkpt lat="46.20316" lon="7.45909"><ele>1963.6</ele><time>2017-08-25T13:02:54Z</time></trkpt>
<trkpt lat="46.20331" lon="7.45892"><ele>1967.2</ele><time>2017-08-25T13:03:10Z</time></trkpt>
<trkpt lat="46.20342" lon="7.4588"><ele>1969.8</ele><time>2017-08-25T13:03:22Z</time></trkpt>
<trkpt lat="46.20346" lon="7.45876"><ele>1970.2</ele><time>2017-08-25T13:03:26Z</time></trkpt>
<trkpt lat="46.20357" lon="7.45869"><ele>1970.6</ele><time>2017-08-25T13:03:36Z</time></trkpt>
<trkpt lat="46.2037" lon="7.45841"><ele>1971</ele><time>2017-08-25T13:03:55Z</time></trkpt>
<trkpt lat="46.20373" lon="7.45825"><ele>1971.6</ele><time>2017-08-25T13:04:05Z</time></trkpt>
<trkpt lat="46.20374" lon="7.45819"><ele>1972</ele><time>2017-08-25T13:04:09Z</time></trkpt>
<trkpt lat="46.2038" lon="7.45792"><ele>1973.8</ele><time>2017-08-25T13:04:22Z</time></trkpt>
<trkpt lat="46.20388" lon="7.45767"><ele>1975.8</ele><time>2017-08-25T13:04:34Z</time></trkpt>
<trkpt lat="46.20404" lon="7.45753"><ele>1978.2</ele><time>2017-08-25T13:04:45Z</time></trkpt>
<trkpt lat="46.20422" lon="7.45745"><ele>1982</ele><time>2017-08-25T13:04:54Z</time></trkpt>
<trkpt lat="46.2043" lon="7.45739"><ele>1983.4</ele><time>2017-08-25T13:04:58Z</time></trkpt>
<trkpt lat="46.20452" lon="7.4573"><ele>1985</ele><time>2017-08-25T13:05:10Z</time></trkpt>
<trkpt lat="46.2047" lon="7.45724"><ele>1984.4</ele><time>2017-08-25T13:05:20Z</time></trkpt>
<trkpt lat="46.20488" lon="7.45713"><ele>1984.4</ele><time>2017-08-25T13:05:30Z</time></trkpt>
<trkpt lat="46.20506" lon="7.457"><ele>1982.4</ele><time>2017-08-25T13:05:36Z</time></trkpt>
<trkpt lat="46.20528" lon="7.45698"><ele>1980.4</ele><time>2017-08-25T13:05:41Z</time></trkpt>
<trkpt lat="46.20546" lon="7.45697"><ele>1980.4</ele><time>2017-08-25T13:05:45Z</time></trkpt>
<trkpt lat="46.20564" lon="7.45693"><ele>1981.2</ele><time>2017-08-25T13:05:49Z</time></trkpt>
<trkpt lat="46.20582" lon="7.45687"><ele>1982</ele><time>2017-08-25T13:05:53Z</time></trkpt>
<trkpt lat="46.206" lon="7.45678"><ele>1981.8</ele><time>2017-08-25T13:05:57Z</time></trkpt>
<trkpt lat="46.20619" lon="7.45675"><ele>1982</ele><time>2017-08-25T13:06:01Z</time></trkpt>
<trkpt lat="46.20641" lon="7.45671"><ele>1982</ele><time>2017-08-25T13:06:05Z</time></trkpt>
<trkpt lat="46.20652" lon="7.45666"><ele>1982.4</ele><time>2017-08-25T13:06:07Z</time></trkpt>
<trkpt lat="46.20673" lon="7.45656"><ele>1981.6</ele><time>2017-08-25T13:06:11Z</time></trkpt>
<trkpt lat="46.20695" lon="7.45653"><ele>1981.6</ele><time>2017-08-25T13:06:15Z</time></trkpt>
<trkpt lat="46.207" lon="7.45651"><ele>1982</ele><time>2017-08-25T13:06:16Z</time></trkpt>
<trkpt lat="46.20722" lon="7.45638"><ele>1982.2</ele><time>2017-08-25T13:06:20Z</time></trkpt>
<trkpt lat="46.20734" lon="7.45632"><ele>1982.4</ele><time>2017-08-25T13:06:22Z</time></trkpt>
<trkpt lat="46.20752" lon="7.45631"><ele>1981</ele><time>2017-08-25T13:06:25Z</time></trkpt>
<trkpt lat="46.2077" lon="7.45632"><ele>1980.6</ele><time>2017-08-25T13:06:28Z</time></trkpt>
<trkpt lat="46.20782" lon="7.45631"><ele>1980.4</ele><time>2017-08-25T13:06:30Z</time></trkpt>
<trkpt lat="46.20804" lon="7.45625"><ele>1979</ele><time>2017-08-25T13:06:34Z</time></trkpt>
<trkpt lat="46.20815" lon="7.45624"><ele>1979.2</ele><time>2017-08-25T13:06:36Z</time></trkpt>
<trkpt lat="46.20831" lon="7.45622"><ele>1978</ele><time>2017-08-25T13:06:39Z</time></trkpt>
<trkpt lat="46.20836" lon="7.4562"><ele>1977.2</ele><time>2017-08-25T13:06:40Z</time></trkpt>
<trkpt lat="46.20858" lon="7.45612"><ele>1975.6</ele><time>2017-08-25T13:06:44Z</time></trkpt>
<trkpt lat="46.20869" lon="7.45609"><ele>1974.4</ele><time>2017-08-25T13:06:46Z</time></trkpt>
<trkpt lat="46.20887" lon="7.4561"><ele>1971.8</ele><time>2017-08-25T13:06:49Z</time></trkpt>
<trkpt lat="46.2091" lon="7.45602"><ele>1969</ele><time>2017-08-25T13:06:53Z</time></trkpt>
<trkpt lat="46.20933" lon="7.45596"><ele>1968</ele><time>2017-08-25T13:06:57Z</time></trkpt>
<trkpt lat="46.20956" lon="7.45592"><ele>1965.6</ele><time>2017-08-25T13:07:01Z</time></trkpt>
<trkpt lat="46.20967" lon="7.45589"><ele>1964.6</ele><time>2017-08-25T13:07:03Z</time></trkpt>
<trkpt lat="46.20989" lon="7.45584"><ele>1963.2</ele><time>2017-08-25T13:07:07Z</time></trkpt>
<trkpt lat="46.21" lon="7.45582"><ele>1962</ele><time>2017-08-25T13:07:09Z</time></trkpt>
<trkpt lat="46.21022" lon="7.45572"><ele>1960</ele><time>2017-08-25T13:07:13Z</time></trkpt>
<trkpt lat="46.21043" lon="7.4556"><ele>1959.2</ele><time>2017-08-25T13:07:17Z</time></trkpt>
<trkpt lat="46.21063" lon="7.45555"><ele>1958.6</ele><time>2017-08-25T13:07:21Z</time></trkpt>
<trkpt lat="46.21084" lon="7.45552"><ele>1957.2</ele><time>2017-08-25T13:07:25Z</time></trkpt>
<trkpt lat="46.211" lon="7.45543"><ele>1956.4</ele><time>2017-08-25T13:07:28Z</time></trkpt>
<trkpt lat="46.21119" lon="7.4554"><ele>1954.8</ele><time>2017-08-25T13:07:31Z</time></trkpt>
<trkpt lat="46.21139" lon="7.45539"><ele>1954.2</ele><time>2017-08-25T13:07:34Z</time></trkpt>
<trkpt lat="46.21158" lon="7.45548"><ele>1953.2</ele><time>2017-08-25T13:07:37Z</time></trkpt>
<trkpt lat="46.21175" lon="7.45557"><ele>1952.4</ele><time>2017-08-25T13:07:40Z</time></trkpt>
<trkpt lat="46.21192" lon="7.45562"><ele>1951.8</ele><time>2017-08-25T13:07:43Z</time></trkpt>
<trkpt lat="46.21198" lon="7.45562"><ele>1951.8</ele><time>2017-08-25T13:07:44Z</time></trkpt>
<trkpt lat="46.21203" lon="7.45561"><ele>1951.8</ele><time>2017-08-25T13:07:45Z</time></trkpt>
<trkpt lat="46.21209" lon="7.4556"><ele>1951.8</ele><time>2017-08-25T13:07:46Z</time></trkpt>
<trkpt lat="46.2122" lon="7.45556"><ele>1952</ele><time>2017-08-25T13:07:48Z</time></trkpt>
<trkpt lat="46.21236" lon="7.45548"><ele>1952</ele><time>2017-08-25T13:07:51Z</time></trkpt>
<trkpt lat="46.21246" lon="7.45542"><ele>1952</ele><time>2017-08-25T13:07:53Z</time></trkpt>
<trkpt lat="46.21263" lon="7.45534"><ele>1952.4</ele><time>2017-08-25T13:07:56Z</time></trkpt>
<trkpt lat="46.21283" lon="7.45532"><ele>1952.8</ele><time>2017-08-25T13:07:59Z</time></trkpt>
<trkpt lat="46.21296" lon="7.45528"><ele>1953</ele><time>2017-08-25T13:08:01Z</time></trkpt>
<trkpt lat="46.21308" lon="7.45522"><ele>1954</ele><time>2017-08-25T13:08:03Z</time></trkpt>
<trkpt lat="46.21328" lon="7.45505"><ele>1952.8</ele><time>2017-08-25T13:08:07Z</time></trkpt>
<trkpt lat="46.21333" lon="7.45501"><ele>1952.4</ele><time>2017-08-25T13:08:08Z</time></trkpt>
<trkpt lat="46.21345" lon="7.45495"><ele>1951.4</ele><time>2017-08-25T13:08:10Z</time></trkpt>
<trkpt lat="46.21361" lon="7.45493"><ele>1950.8</ele><time>2017-08-25T13:08:13Z</time></trkpt>
<trkpt lat="46.21375" lon="7.45494"><ele>1951.6</ele><time>2017-08-25T13:08:16Z</time></trkpt>
<trkpt lat="46.21385" lon="7.45493"><ele>1952.2</ele><time>2017-08-25T13:08:18Z</time></trkpt>
<trkpt lat="46.21404" lon="7.45482"><ele>1951.4</ele><time>2017-08-25T13:08:22Z</time></trkpt>
<trkpt lat="46.21415" lon="7.45478"><ele>1950.6</ele><time>2017-08-25T13:08:24Z</time></trkpt>
<trkpt lat="46.21436" lon="7.45479"><ele>1949.6</ele><time>2017-08-25T13:08:28Z</time></trkpt>
<trkpt lat="46.21446" lon="7.45482"><ele>1950</ele><time>2017-08-25T13:08:30Z</time></trkpt>
<trkpt lat="46.21459" lon="7.45495"><ele>1947.8</ele><time>2017-08-25T13:08:33Z</time></trkpt>
<trkpt lat="46.21463" lon="7.45499"><ele>1947.8</ele><time>2017-08-25T13:08:34Z</time></trkpt>
<trkpt lat="46.21482" lon="7.45512"><ele>1945.6</ele><time>2017-08-25T13:08:38Z</time></trkpt>
<trkpt lat="46.21487" lon="7.45516"><ele>1944.6</ele><time>2017-08-25T13:08:39Z</time></trkpt>
<trkpt lat="46.21505" lon="7.45532"><ele>1942.4</ele><time>2017-08-25T13:08:43Z</time></trkpt>
<trkpt lat="46.21522" lon="7.45545"><ele>1940.6</ele><time>2017-08-25T13:08:47Z</time></trkpt>
<trkpt lat="46.21541" lon="7.45551"><ele>1940.2</ele><time>2017-08-25T13:08:51Z</time></trkpt>
<trkpt lat="46.21551" lon="7.45549"><ele>1940.2</ele><time>2017-08-25T13:08:53Z</time></trkpt>
<trkpt lat="46.21556" lon="7.45547"><ele>1940.8</ele><time>2017-08-25T13:08:54Z</time></trkpt>
<trkpt lat="46.21573" lon="7.45531"><ele>1941.8</ele><time>2017-08-25T13:08:58Z</time></trkpt>
<trkpt lat="46.216" lon="7.45529"><ele>1940.2</ele><time>2017-08-25T13:09:05Z</time></trkpt>
<trkpt lat="46.21604" lon="7.4553"><ele>1939.6</ele><time>2017-08-25T13:09:06Z</time></trkpt>
<trkpt lat="46.21615" lon="7.45536"><ele>1938.8</ele><time>2017-08-25T13:09:09Z</time></trkpt>
<trkpt lat="46.21626" lon="7.45522"><ele>1935.6</ele><time>2017-08-25T13:09:15Z</time></trkpt>
<trkpt lat="46.21607" lon="7.45512"><ele>1934</ele><time>2017-08-25T13:09:19Z</time></trkpt>
<trkpt lat="46.21588" lon="7.45507"><ele>1932.2</ele><time>2017-08-25T13:09:22Z</time></trkpt>
<trkpt lat="46.21582" lon="7.45508"><ele>1931.6</ele><time>2017-08-25T13:09:23Z</time></trkpt>
<trkpt lat="46.21569" lon="7.45512"><ele>1930.2</ele><time>2017-08-25T13:09:25Z</time></trkpt>
<trkpt lat="46.21554" lon="7.4551"><ele>1928</ele><time>2017-08-25T13:09:27Z</time></trkpt>
<trkpt lat="46.21547" lon="7.45505"><ele>1926.8</ele><time>2017-08-25T13:09:28Z</time></trkpt>
<trkpt lat="46.21536" lon="7.4549"><ele>1925.6</ele><time>2017-08-25T13:09:30Z</time></trkpt>
<trkpt lat="46.21525" lon="7.45474"><ele>1924.2</ele><time>2017-08-25T13:09:32Z</time></trkpt>
<trkpt lat="46.21508" lon="7.45451"><ele>1922</ele><time>2017-08-25T13:09:35Z</time></trkpt>
<trkpt lat="46.21502" lon="7.45444"><ele>1921.8</ele><time>2017-08-25T13:09:36Z</time></trkpt>
<trkpt lat="46.2148" lon="7.45431"><ele>1919.8</ele><time>2017-08-25T13:09:39Z</time></trkpt>
<trkpt lat="46.21472" lon="7.45427"><ele>1919.2</ele><time>2017-08-25T13:09:40Z</time></trkpt>
<trkpt lat="46.21446" lon="7.45421"><ele>1917.6</ele><time>2017-08-25T13:09:43Z</time></trkpt>
<trkpt lat="46.21427" lon="7.45419"><ele>1916</ele><time>2017-08-25T13:09:45Z</time></trkpt>
<trkpt lat="46.21418" lon="7.45417"><ele>1915.8</ele><time>2017-08-25T13:09:46Z</time></trkpt>
<trkpt lat="46.21393" lon="7.45409"><ele>1914.2</ele><time>2017-08-25T13:09:49Z</time></trkpt>
<trkpt lat="46.21385" lon="7.45408"><ele>1913.6</ele><time>2017-08-25T13:09:50Z</time></trkpt>
<trkpt lat="46.21365" lon="7.45418"><ele>1912.2</ele><time>2017-08-25T13:09:53Z</time></trkpt>
<trkpt lat="46.21358" lon="7.45425"><ele>1912</ele><time>2017-08-25T13:09:54Z</time></trkpt>
<trkpt lat="46.2135" lon="7.4543"><ele>1911.4</ele><time>2017-08-25T13:09:55Z</time></trkpt>
<trkpt lat="46.21324" lon="7.45433"><ele>1909.6</ele><time>2017-08-25T13:09:58Z</time></trkpt>
<trkpt lat="46.21315" lon="7.45434"><ele>1909.4</ele><time>2017-08-25T13:09:59Z</time></trkpt>
<trkpt lat="46.2129" lon="7.45445"><ele>1907.4</ele><time>2017-08-25T13:10:02Z</time></trkpt>
<trkpt lat="46.21266" lon="7.45453"><ele>1905.6</ele><time>2017-08-25T13:10:05Z</time></trkpt>
<trkpt lat="46.21245" lon="7.4544"><ele>1904</ele><time>2017-08-25T13:10:08Z</time></trkpt>
<trkpt lat="46.21225" lon="7.45427"><ele>1902.4</ele><time>2017-08-25T13:10:11Z</time></trkpt>
<trkpt lat="46.21202" lon="7.45427"><ele>1900</ele><time>2017-08-25T13:10:14Z</time></trkpt>
<trkpt lat="46.21193" lon="7.45428"><ele>1899.6</ele><time>2017-08-25T13:10:15Z</time></trkpt>
<trkpt lat="46.21168" lon="7.45421"><ele>1899.8</ele><time>2017-08-25T13:10:18Z</time></trkpt>
<trkpt lat="46.21141" lon="7.45415"><ele>1898.2</ele><time>2017-08-25T13:10:21Z</time></trkpt>
<trkpt lat="46.21124" lon="7.45408"><ele>1897</ele><time>2017-08-25T13:10:23Z</time></trkpt>
<trkpt lat="46.21107" lon="7.45403"><ele>1895.2</ele><time>2017-08-25T13:10:25Z</time></trkpt>
<trkpt lat="46.2108" lon="7.45406"><ele>1893.8</ele><time>2017-08-25T13:10:28Z</time></trkpt>
<trkpt lat="46.21062" lon="7.4541"><ele>1892.8</ele><time>2017-08-25T13:10:30Z</time></trkpt>
<trkpt lat="46.21044" lon="7.45413"><ele>1891.6</ele><time>2017-08-25T13:10:32Z</time></trkpt>
<trkpt lat="46.21026" lon="7.45417"><ele>1890.2</ele><time>2017-08-25T13:10:34Z</time></trkpt>
<trkpt lat="46.21006" lon="7.4542"><ele>1888.8</ele><time>2017-08-25T13:10:36Z</time></trkpt>
<trkpt lat="46.20988" lon="7.45418"><ele>1886.4</ele><time>2017-08-25T13:10:38Z</time></trkpt>
<trkpt lat="46.20966" lon="7.45398"><ele>1884.8</ele><time>2017-08-25T13:10:41Z</time></trkpt>
<trkpt lat="46.20944" lon="7.45383"><ele>1882.6</ele><time>2017-08-25T13:10:44Z</time></trkpt>
<trkpt lat="46.20921" lon="7.45386"><ele>1880.6</ele><time>2017-08-25T13:10:47Z</time></trkpt>
<trkpt lat="46.20913" lon="7.4539"><ele>1879.8</ele><time>2017-08-25T13:10:48Z</time></trkpt>
<trkpt lat="46.20898" lon="7.454"><ele>1878.4</ele><time>2017-08-25T13:10:50Z</time></trkpt>
<trkpt lat="46.20881" lon="7.45409"><ele>1877.2</ele><time>2017-08-25T13:10:52Z</time></trkpt>
<trkpt lat="46.20863" lon="7.45408"><ele>1875.8</ele><time>2017-08-25T13:10:54Z</time></trkpt>
<trkpt lat="46.20853" lon="7.45405"><ele>1875.4</ele><time>2017-08-25T13:10:55Z</time></trkpt>
<trkpt lat="46.20827" lon="7.45407"><ele>1872.6</ele><time>2017-08-25T13:10:58Z</time></trkpt>
<trkpt lat="46.20802" lon="7.45405"><ele>1870.2</ele><time>2017-08-25T13:11:01Z</time></trkpt>
<trkpt lat="46.20791" lon="7.45376"><ele>1867.6</ele><time>2017-08-25T13:11:04Z</time></trkpt>
<trkpt lat="46.20778" lon="7.45351"><ele>1865</ele><time>2017-08-25T13:11:07Z</time></trkpt>
<trkpt lat="46.20755" lon="7.45343"><ele>1861.8</ele><time>2017-08-25T13:11:10Z</time></trkpt>
<trkpt lat="46.20738" lon="7.4534"><ele>1860.6</ele><time>2017-08-25T13:11:12Z</time></trkpt>
<trkpt lat="46.20712" lon="7.45331"><ele>1859</ele><time>2017-08-25T13:11:15Z</time></trkpt>
<trkpt lat="46.20704" lon="7.45325"><ele>1858.4</ele><time>2017-08-25T13:11:16Z</time></trkpt>
<trkpt lat="46.20687" lon="7.45315"><ele>1857.6</ele><time>2017-08-25T13:11:18Z</time></trkpt>
<trkpt lat="46.20669" lon="7.4531"><ele>1856.4</ele><time>2017-08-25T13:11:20Z</time></trkpt>
<trkpt lat="46.20659" lon="7.45309"><ele>1855.8</ele><time>2017-08-25T13:11:21Z</time></trkpt>
<trkpt lat="46.20639" lon="7.45306"><ele>1854.6</ele><time>2017-08-25T13:11:23Z</time></trkpt>
<trkpt lat="46.20629" lon="7.45306"><ele>1854</ele><time>2017-08-25T13:11:24Z</time></trkpt>
<trkpt lat="46.2061" lon="7.4531"><ele>1852.6</ele><time>2017-08-25T13:11:26Z</time></trkpt>
<trkpt lat="46.206" lon="7.45312"><ele>1851.6</ele><time>2017-08-25T13:11:27Z</time></trkpt>
<trkpt lat="46.2058" lon="7.45312"><ele>1850</ele><time>2017-08-25T13:11:29Z</time></trkpt>
<trkpt lat="46.2056" lon="7.4531"><ele>1848.6</ele><time>2017-08-25T13:11:31Z</time></trkpt>
<trkpt lat="46.20539" lon="7.45307"><ele>1847.6</ele><time>2017-08-25T13:11:33Z</time></trkpt>
<trkpt lat="46.2052" lon="7.45307"><ele>1846.4</ele><time>2017-08-25T13:11:35Z</time></trkpt>
<trkpt lat="46.205" lon="7.45308"><ele>1844.8</ele><time>2017-08-25T13:11:37Z</time></trkpt>
<trkpt lat="46.20482" lon="7.45312"><ele>1844.2</ele><time>2017-08-25T13:11:39Z</time></trkpt>
<trkpt lat="46.20457" lon="7.45303"><ele>1842</ele><time>2017-08-25T13:11:42Z</time></trkpt>
<trkpt lat="46.20445" lon="7.45284"><ele>1840.8</ele><time>2017-08-25T13:11:44Z</time></trkpt>
<trkpt lat="46.20433" lon="7.45265"><ele>1839.6</ele><time>2017-08-25T13:11:46Z</time></trkpt>
<trkpt lat="46.20419" lon="7.45247"><ele>1838.6</ele><time>2017-08-25T13:11:48Z</time></trkpt>
<trkpt lat="46.20407" lon="7.45229"><ele>1837.8</ele><time>2017-08-25T13:11:50Z</time></trkpt>
<trkpt lat="46.20387" lon="7.45217"><ele>1835.6</ele><time>2017-08-25T13:11:53Z</time></trkpt>
<trkpt lat="46.20368" lon="7.45217"><ele>1834.6</ele><time>2017-08-25T13:11:56Z</time></trkpt>
<trkpt lat="46.20366" lon="7.45193"><ele>1833</ele><time>2017-08-25T13:12:00Z</time></trkpt>
<trkpt lat="46.20386" lon="7.45189"><ele>1830.6</ele><time>2017-08-25T13:12:04Z</time></trkpt>
<trkpt lat="46.204" lon="7.45187"><ele>1830.4</ele><time>2017-08-25T13:12:06Z</time></trkpt>
<trkpt lat="46.20424" lon="7.45182"><ele>1831.8</ele><time>2017-08-25T13:12:09Z</time></trkpt>
<trkpt lat="46.2045" lon="7.45177"><ele>1831.2</ele><time>2017-08-25T13:12:12Z</time></trkpt>
<trkpt lat="46.20475" lon="7.45173"><ele>1830.2</ele><time>2017-08-25T13:12:15Z</time></trkpt>
<trkpt lat="46.20497" lon="7.45172"><ele>1829.2</ele><time>2017-08-25T13:12:18Z</time></trkpt>
<trkpt lat="46.20503" lon="7.45174"><ele>1828.6</ele><time>2017-08-25T13:12:19Z</time></trkpt>
<trkpt lat="46.20517" lon="7.45179"><ele>1827.2</ele><time>2017-08-25T13:12:22Z</time></trkpt>
<trkpt lat="46.20536" lon="7.45183"><ele>1826.4</ele><time>2017-08-25T13:12:26Z</time></trkpt>
<trkpt lat="46.20554" lon="7.45182"><ele>1825.8</ele><time>2017-08-25T13:12:29Z</time></trkpt>
<trkpt lat="46.20561" lon="7.45184"><ele>1824.8</ele><time>2017-08-25T13:12:30Z</time></trkpt>
<trkpt lat="46.20581" lon="7.45188"><ele>1822.8</ele><time>2017-08-25T13:12:33Z</time></trkpt>
<trkpt lat="46.20596" lon="7.4519"><ele>1822</ele><time>2017-08-25T13:12:35Z</time></trkpt>
<trkpt lat="46.20604" lon="7.45189"><ele>1822</ele><time>2017-08-25T13:12:36Z</time></trkpt>
<trkpt lat="46.20611" lon="7.45187"><ele>1821.8</ele><time>2017-08-25T13:12:37Z</time></trkpt>
<trkpt lat="46.20636" lon="7.45178"><ele>1820</ele><time>2017-08-25T13:12:40Z</time></trkpt>
<trkpt lat="46.2066" lon="7.45163"><ele>1818</ele><time>2017-08-25T13:12:43Z</time></trkpt>
<trkpt lat="46.20685" lon="7.45151"><ele>1815.2</ele><time>2017-08-25T13:12:46Z</time></trkpt>
<trkpt lat="46.20712" lon="7.45147"><ele>1812</ele><time>2017-08-25T13:12:49Z</time></trkpt>
<trkpt lat="46.20731" lon="7.45143"><ele>1810.4</ele><time>2017-08-25T13:12:51Z</time></trkpt>
<trkpt lat="46.20751" lon="7.45141"><ele>1808.8</ele><time>2017-08-25T13:12:53Z</time></trkpt>
<trkpt lat="46.20761" lon="7.45141"><ele>1808</ele><time>2017-08-25T13:12:54Z</time></trkpt>
<trkpt lat="46.20772" lon="7.4514"><ele>1807.2</ele><time>2017-08-25T13:12:55Z</time></trkpt>
<trkpt lat="46.20793" lon="7.45141"><ele>1805.2</ele><time>2017-08-25T13:12:57Z</time></trkpt>
<trkpt lat="46.20815" lon="7.45144"><ele>1802.2</ele><time>2017-08-25T13:12:59Z</time></trkpt>
<trkpt lat="46.20837" lon="7.45147"><ele>1800</ele><time>2017-08-25T13:13:01Z</time></trkpt>
<trkpt lat="46.20848" lon="7.45146"><ele>1799</ele><time>2017-08-25T13:13:02Z</time></trkpt>
<trkpt lat="46.2087" lon="7.45145"><ele>1796.8</ele><time>2017-08-25T13:13:04Z</time></trkpt>
<trkpt lat="46.20881" lon="7.45144"><ele>1795.8</ele><time>2017-08-25T13:13:05Z</time></trkpt>
<trkpt lat="46.20903" lon="7.45142"><ele>1794.2</ele><time>2017-08-25T13:13:07Z</time></trkpt>
<trkpt lat="46.20926" lon="7.45139"><ele>1792.8</ele><time>2017-08-25T13:13:09Z</time></trkpt>
<trkpt lat="46.20949" lon="7.45136"><ele>1791.2</ele><time>2017-08-25T13:13:11Z</time></trkpt>
<trkpt lat="46.20971" lon="7.45132"><ele>1789.2</ele><time>2017-08-25T13:13:13Z</time></trkpt>
<trkpt lat="46.20994" lon="7.45126"><ele>1787.8</ele><time>2017-08-25T13:13:15Z</time></trkpt>
<trkpt lat="46.21017" lon="7.45117"><ele>1786.4</ele><time>2017-08-25T13:13:17Z</time></trkpt>
<trkpt lat="46.2104" lon="7.45105"><ele>1784.2</ele><time>2017-08-25T13:13:19Z</time></trkpt>
<trkpt lat="46.21061" lon="7.45089"><ele>1781.8</ele><time>2017-08-25T13:13:21Z</time></trkpt>
<trkpt lat="46.21081" lon="7.45072"><ele>1780.4</ele><time>2017-08-25T13:13:23Z</time></trkpt>
<trkpt lat="46.211" lon="7.45058"><ele>1778.8</ele><time>2017-08-25T13:13:25Z</time></trkpt>
<trkpt lat="46.2112" lon="7.45045"><ele>1776.6</ele><time>2017-08-25T13:13:27Z</time></trkpt>
<trkpt lat="46.21139" lon="7.45028"><ele>1774.6</ele><time>2017-08-25T13:13:29Z</time></trkpt>
<trkpt lat="46.21157" lon="7.45013"><ele>1772.6</ele><time>2017-08-25T13:13:31Z</time></trkpt>
<trkpt lat="46.21175" lon="7.45001"><ele>1771</ele><time>2017-08-25T13:13:33Z</time></trkpt>
<trkpt lat="46.21193" lon="7.44991"><ele>1768.8</ele><time>2017-08-25T13:13:35Z</time></trkpt>
<trkpt lat="46.21212" lon="7.44979"><ele>1767.4</ele><time>2017-08-25T13:13:37Z</time></trkpt>
<trkpt lat="46.2122" lon="7.44973"><ele>1766.6</ele><time>2017-08-25T13:13:38Z</time></trkpt>
<trkpt lat="46.21229" lon="7.44967"><ele>1765.6</ele><time>2017-08-25T13:13:39Z</time></trkpt>
<trkpt lat="46.21237" lon="7.44961"><ele>1764.8</ele><time>2017-08-25T13:13:40Z</time></trkpt>
<trkpt lat="46.21251" lon="7.44945"><ele>1763.2</ele><time>2017-08-25T13:13:42Z</time></trkpt>
<trkpt lat="46.21264" lon="7.44927"><ele>1761.8</ele><time>2017-08-25T13:13:44Z</time></trkpt>
<trkpt lat="46.21278" lon="7.44911"><ele>1760</ele><time>2017-08-25T13:13:46Z</time></trkpt>
<trkpt lat="46.21298" lon="7.44889"><ele>1757.6</ele><time>2017-08-25T13:13:49Z</time></trkpt>
<trkpt lat="46.21315" lon="7.44864"><ele>1754.4</ele><time>2017-08-25T13:13:52Z</time></trkpt>
<trkpt lat="46.21326" lon="7.44837"><ele>1751.2</ele><time>2017-08-25T13:13:55Z</time></trkpt>
<trkpt lat="46.21329" lon="7.44828"><ele>1750.2</ele><time>2017-08-25T13:13:56Z</time></trkpt>
<trkpt lat="46.21333" lon="7.4482"><ele>1749.6</ele><time>2017-08-25T13:13:57Z</time></trkpt>
<trkpt lat="46.21339" lon="7.44812"><ele>1748.8</ele><time>2017-08-25T13:13:58Z</time></trkpt>
<trkpt lat="46.21345" lon="7.44805"><ele>1748.2</ele><time>2017-08-25T13:13:59Z</time></trkpt>
<trkpt lat="46.21359" lon="7.44794"><ele>1747</ele><time>2017-08-25T13:14:01Z</time></trkpt>
<trkpt lat="46.21381" lon="7.44772"><ele>1744.8</ele><time>2017-08-25T13:14:04Z</time></trkpt>
<trkpt lat="46.21395" lon="7.44754"><ele>1743.6</ele><time>2017-08-25T13:14:06Z</time></trkpt>
<trkpt lat="46.2141" lon="7.44735"><ele>1742</ele><time>2017-08-25T13:14:08Z</time></trkpt>
<trkpt lat="46.21426" lon="7.44716"><ele>1740.4</ele><time>2017-08-25T13:14:10Z</time></trkpt>
<trkpt lat="46.21434" lon="7.44706"><ele>1739.6</ele><time>2017-08-25T13:14:11Z</time></trkpt>
<trkpt lat="46.21451" lon="7.44685"><ele>1736.2</ele><time>2017-08-25T13:14:13Z</time></trkpt>
<trkpt lat="46.21467" lon="7.44661"><ele>1732.4</ele><time>2017-08-25T13:14:15Z</time></trkpt>
<trkpt lat="46.21479" lon="7.44632"><ele>1728.2</ele><time>2017-08-25T13:14:17Z</time></trkpt>
<trkpt lat="46.21487" lon="7.446"><ele>1724.2</ele><time>2017-08-25T13:14:19Z</time></trkpt>
<trkpt lat="46.21495" lon="7.44568"><ele>1720.6</ele><time>2017-08-25T13:14:21Z</time></trkpt>
<trkpt lat="46.21505" lon="7.44535"><ele>1717.8</ele><time>2017-08-25T13:14:23Z</time></trkpt>
<trkpt lat="46.21516" lon="7.44502"><ele>1715.4</ele><time>2017-08-25T13:14:25Z</time></trkpt>
<trkpt lat="46.21524" lon="7.44467"><ele>1713.2</ele><time>2017-08-25T13:14:27Z</time></trkpt>
<trkpt lat="46.21529" lon="7.4443"><ele>1710.8</ele><time>2017-08-25T13:14:29Z</time></trkpt>
<trkpt lat="46.21535" lon="7.44392"><ele>1707.6</ele><time>2017-08-25T13:14:31Z</time></trkpt>
<trkpt lat="46.2154" lon="7.44359"><ele>1705.2</ele><time>2017-08-25T13:14:33Z</time></trkpt>
<trkpt lat="46.21546" lon="7.44331"><ele>1703.4</ele><time>2017-08-25T13:14:35Z</time></trkpt>
<trkpt lat="46.21557" lon="7.44312"><ele>1701.2</ele><time>2017-08-25T13:14:37Z</time></trkpt>
<trkpt lat="46.21574" lon="7.44301"><ele>1699.6</ele><time>2017-08-25T13:14:39Z</time></trkpt>
<trkpt lat="46.21597" lon="7.44294"><ele>1697.2</ele><time>2017-08-25T13:14:42Z</time></trkpt>
<trkpt lat="46.21591" lon="7.44272"><ele>1696</ele><time>2017-08-25T13:14:46Z</time></trkpt>
<trkpt lat="46.21569" lon="7.44278"><ele>1694</ele><time>2017-08-25T13:14:49Z</time></trkpt>
<trkpt lat="46.21552" lon="7.44287"><ele>1692.4</ele><time>2017-08-25T13:14:51Z</time></trkpt>
<trkpt lat="46.21537" lon="7.44302"><ele>1690.4</ele><time>2017-08-25T13:14:53Z</time></trkpt>
<trkpt lat="46.21523" lon="7.44323"><ele>1688.8</ele><time>2017-08-25T13:14:55Z</time></trkpt>
<trkpt lat="46.21512" lon="7.4435"><ele>1687</ele><time>2017-08-25T13:14:57Z</time></trkpt>
<trkpt lat="46.21506" lon="7.44363"><ele>1686.2</ele><time>2017-08-25T13:14:58Z</time></trkpt>
<trkpt lat="46.21486" lon="7.44382"><ele>1684</ele><time>2017-08-25T13:15:00Z</time></trkpt>
<trkpt lat="46.21462" lon="7.44389"><ele>1682.4</ele><time>2017-08-25T13:15:02Z</time></trkpt>
<trkpt lat="46.21451" lon="7.44394"><ele>1681.4</ele><time>2017-08-25T13:15:03Z</time></trkpt>
<trkpt lat="46.21431" lon="7.4441"><ele>1679.6</ele><time>2017-08-25T13:15:05Z</time></trkpt>
<trkpt lat="46.21417" lon="7.44436"><ele>1677.8</ele><time>2017-08-25T13:15:07Z</time></trkpt>
<trkpt lat="46.21406" lon="7.44467"><ele>1676.2</ele><time>2017-08-25T13:15:09Z</time></trkpt>
<trkpt lat="46.21392" lon="7.44497"><ele>1674.4</ele><time>2017-08-25T13:15:11Z</time></trkpt>
<trkpt lat="46.21374" lon="7.44521"><ele>1672.6</ele><time>2017-08-25T13:15:13Z</time></trkpt>
<trkpt lat="46.21351" lon="7.44535"><ele>1671.2</ele><time>2017-08-25T13:15:15Z</time></trkpt>
<trkpt lat="46.21325" lon="7.44535"><ele>1669.6</ele><time>2017-08-25T13:15:17Z</time></trkpt>
<trkpt lat="46.21299" lon="7.44535"><ele>1667.8</ele><time>2017-08-25T13:15:19Z</time></trkpt>
<trkpt lat="46.21276" lon="7.44539"><ele>1665.4</ele><time>2017-08-25T13:15:21Z</time></trkpt>
<trkpt lat="46.21253" lon="7.44544"><ele>1663</ele><time>2017-08-25T13:15:23Z</time></trkpt>
<trkpt lat="46.2123" lon="7.44541"><ele>1661.2</ele><time>2017-08-25T13:15:25Z</time></trkpt>
<trkpt lat="46.21207" lon="7.44528"><ele>1659.4</ele><time>2017-08-25T13:15:27Z</time></trkpt>
<trkpt lat="46.21184" lon="7.44518"><ele>1657</ele><time>2017-08-25T13:15:29Z</time></trkpt>
<trkpt lat="46.21161" lon="7.44515"><ele>1655</ele><time>2017-08-25T13:15:31Z</time></trkpt>
<trkpt lat="46.21138" lon="7.44517"><ele>1652.4</ele><time>2017-08-25T13:15:33Z</time></trkpt>
<trkpt lat="46.21115" lon="7.44523"><ele>1650.2</ele><time>2017-08-25T13:15:35Z</time></trkpt>
<trkpt lat="46.21092" lon="7.44529"><ele>1648</ele><time>2017-08-25T13:15:37Z</time></trkpt>
<trkpt lat="46.21082" lon="7.44535"><ele>1646</ele><time>2017-08-25T13:15:38Z</time></trkpt>
<trkpt lat="46.21061" lon="7.44547"><ele>1643.4</ele><time>2017-08-25T13:15:40Z</time></trkpt>
<trkpt lat="46.21041" lon="7.44561"><ele>1640.2</ele><time>2017-08-25T13:15:42Z</time></trkpt>
<trkpt lat="46.21031" lon="7.44566"><ele>1639</ele><time>2017-08-25T13:15:43Z</time></trkpt>
<trkpt lat="46.21011" lon="7.44575"><ele>1637</ele><time>2017-08-25T13:15:45Z</time></trkpt>
<trkpt lat="46.20991" lon="7.44584"><ele>1635</ele><time>2017-08-25T13:15:47Z</time></trkpt>
<trkpt lat="46.2097" lon="7.44593"><ele>1633</ele><time>2017-08-25T13:15:49Z</time></trkpt>
<trkpt lat="46.20951" lon="7.44605"><ele>1631.2</ele><time>2017-08-25T13:15:51Z</time></trkpt>
<trkpt lat="46.20932" lon="7.44614"><ele>1628.8</ele><time>2017-08-25T13:15:53Z</time></trkpt>
<trkpt lat="46.20912" lon="7.44612"><ele>1626.4</ele><time>2017-08-25T13:15:55Z</time></trkpt>
<trkpt lat="46.20892" lon="7.446"><ele>1624.2</ele><time>2017-08-25T13:15:57Z</time></trkpt>
<trkpt lat="46.20872" lon="7.44586"><ele>1621.6</ele><time>2017-08-25T13:15:59Z</time></trkpt>
<trkpt lat="46.20852" lon="7.44571"><ele>1619.2</ele><time>2017-08-25T13:16:01Z</time></trkpt>
<trkpt lat="46.20832" lon="7.44556"><ele>1616.6</ele><time>2017-08-25T13:16:03Z</time></trkpt>
<trkpt lat="46.20812" lon="7.44541"><ele>1614.2</ele><time>2017-08-25T13:16:05Z</time></trkpt>
<trkpt lat="46.20793" lon="7.44527"><ele>1612.4</ele><time>2017-08-25T13:16:07Z</time></trkpt>
<trkpt lat="46.20773" lon="7.44515"><ele>1610.4</ele><time>2017-08-25T13:16:09Z</time></trkpt>
<trkpt lat="46.20755" lon="7.445"><ele>1609</ele><time>2017-08-25T13:16:11Z</time></trkpt>
<trkpt lat="46.20738" lon="7.44481"><ele>1607.6</ele><time>2017-08-25T13:16:13Z</time></trkpt>
<trkpt lat="46.20723" lon="7.44457"><ele>1605.4</ele><time>2017-08-25T13:16:15Z</time></trkpt>
<trkpt lat="46.20712" lon="7.4443"><ele>1603.6</ele><time>2017-08-25T13:16:17Z</time></trkpt>
<trkpt lat="46.20696" lon="7.44405"><ele>1601.4</ele><time>2017-08-25T13:16:19Z</time></trkpt>
<trkpt lat="46.20678" lon="7.44383"><ele>1598.8</ele><time>2017-08-25T13:16:21Z</time></trkpt>
<trkpt lat="46.20668" lon="7.44373"><ele>1597.2</ele><time>2017-08-25T13:16:22Z</time></trkpt>
<trkpt lat="46.20646" lon="7.44356"><ele>1594</ele><time>2017-08-25T13:16:24Z</time></trkpt>
<trkpt lat="46.20625" lon="7.44341"><ele>1590.8</ele><time>2017-08-25T13:16:26Z</time></trkpt>
<trkpt lat="46.20615" lon="7.44332"><ele>1589</ele><time>2017-08-25T13:16:27Z</time></trkpt>
<trkpt lat="46.206" lon="7.44308"><ele>1587.4</ele><time>2017-08-25T13:16:29Z</time></trkpt>
<trkpt lat="46.20587" lon="7.44282"><ele>1585.4</ele><time>2017-08-25T13:16:31Z</time></trkpt>
<trkpt lat="46.20582" lon="7.44267"><ele>1584.6</ele><time>2017-08-25T13:16:32Z</time></trkpt>
<trkpt lat="46.20576" lon="7.44238"><ele>1582.4</ele><time>2017-08-25T13:16:34Z</time></trkpt>
<trkpt lat="46.20574" lon="7.4421"><ele>1580.2</ele><time>2017-08-25T13:16:36Z</time></trkpt>
<trkpt lat="46.20573" lon="7.44196"><ele>1578.8</ele><time>2017-08-25T13:16:37Z</time></trkpt>
<trkpt lat="46.2057" lon="7.44169"><ele>1575.6</ele><time>2017-08-25T13:16:39Z</time></trkpt>
<trkpt lat="46.20564" lon="7.44141"><ele>1573.2</ele><time>2017-08-25T13:16:41Z</time></trkpt>
<trkpt lat="46.20555" lon="7.44113"><ele>1570.8</ele><time>2017-08-25T13:16:43Z</time></trkpt>
<trkpt lat="46.20542" lon="7.44087"><ele>1568.8</ele><time>2017-08-25T13:16:45Z</time></trkpt>
<trkpt lat="46.20523" lon="7.44066"><ele>1566</ele><time>2017-08-25T13:16:47Z</time></trkpt>
<trkpt lat="46.20503" lon="7.44046"><ele>1563.8</ele><time>2017-08-25T13:16:49Z</time></trkpt>
<trkpt lat="46.20482" lon="7.44025"><ele>1561.8</ele><time>2017-08-25T13:16:51Z</time></trkpt>
<trkpt lat="46.20462" lon="7.44003"><ele>1559.8</ele><time>2017-08-25T13:16:53Z</time></trkpt>
<trkpt lat="46.20446" lon="7.43987"><ele>1558.2</ele><time>2017-08-25T13:16:55Z</time></trkpt>
<trkpt lat="46.20436" lon="7.43974"><ele>1557.4</ele><time>2017-08-25T13:16:57Z</time></trkpt>
<trkpt lat="46.20448" lon="7.43959"><ele>1553</ele><time>2017-08-25T13:17:02Z</time></trkpt>
<trkpt lat="46.20469" lon="7.43973"><ele>1552.6</ele><time>2017-08-25T13:17:05Z</time></trkpt>
<trkpt lat="46.20484" lon="7.4398"><ele>1552.2</ele><time>2017-08-25T13:17:07Z</time></trkpt>
<trkpt lat="46.20506" lon="7.4399"><ele>1550.8</ele><time>2017-08-25T13:17:10Z</time></trkpt>
<trkpt lat="46.20526" lon="7.44004"><ele>1548.6</ele><time>2017-08-25T13:17:13Z</time></trkpt>
<trkpt lat="46.20545" lon="7.44017"><ele>1547.2</ele><time>2017-08-25T13:17:16Z</time></trkpt>
<trkpt lat="46.20564" lon="7.4403"><ele>1545.6</ele><time>2017-08-25T13:17:20Z</time></trkpt>
<trkpt lat="46.20569" lon="7.44033"><ele>1545.8</ele><time>2017-08-25T13:17:22Z</time></trkpt>
<trkpt lat="46.20573" lon="7.44025"><ele>1544.8</ele><time>2017-08-25T13:17:27Z</time></trkpt>
<trkpt lat="46.20572" lon="7.44021"><ele>1544.2</ele><time>2017-08-25T13:17:28Z</time></trkpt>
<trkpt lat="46.20567" lon="7.44008"><ele>1541.8</ele><time>2017-08-25T13:17:31Z</time></trkpt>
<trkpt lat="46.20564" lon="7.43997"><ele>1539.8</ele><time>2017-08-25T13:17:33Z</time></trkpt>
<trkpt lat="46.20558" lon="7.43983"><ele>1536.4</ele><time>2017-08-25T13:17:37Z</time></trkpt>
<trkpt lat="46.20572" lon="7.43966"><ele>1529.4</ele><time>2017-08-25T13:17:45Z</time></trkpt>
<trkpt lat="46.20574" lon="7.43964"><ele>1528.2</ele><time>2017-08-25T13:17:46Z</time></trkpt>
<trkpt lat="46.20577" lon="7.43962"><ele>1527.4</ele><time>2017-08-25T13:17:47Z</time></trkpt>
<trkpt lat="46.20597" lon="7.43957"><ele>1522.6</ele><time>2017-08-25T13:17:54Z</time></trkpt>
<trkpt lat="46.20612" lon="7.43954"><ele>1519.8</ele><time>2017-08-25T13:17:59Z</time></trkpt>
<trkpt lat="46.20616" lon="7.43953"><ele>1518.8</ele><time>2017-08-25T13:18:02Z</time></trkpt>
<trkpt lat="46.20616" lon="7.43952"><ele>1520.8</ele><time>2017-08-25T13:18:08Z</time></trkpt>
<trkpt lat="46.20614" lon="7.43953"><ele>1520.6</ele><time>2017-08-25T13:18:14Z</time></trkpt>
<trkpt lat="46.20613" lon="7.43953"><ele>1520.4</ele><time>2017-08-25T13:18:18Z</time></trkpt>
<trkpt lat="46.20615" lon="7.43954"><ele>1520.2</ele><time>2017-08-25T13:18:25Z</time></trkpt>
<trkpt lat="46.20624" lon="7.43955"><ele>1519.4</ele><time>2017-08-25T13:18:44Z</time></trkpt>
<trkpt lat="46.20637" lon="7.43956"><ele>1517.4</ele><time>2017-08-25T13:18:50Z</time></trkpt>
<trkpt lat="46.20655" lon="7.43966"><ele>1511.2</ele><time>2017-08-25T13:18:58Z</time></trkpt>
<trkpt lat="46.20668" lon="7.43973"><ele>1505.2</ele><time>2017-08-25T13:19:05Z</time></trkpt>
<trkpt lat="46.20667" lon="7.43968"><ele>1498.2</ele><time>2017-08-25T13:19:23Z</time></trkpt>
<trkpt lat="46.20667" lon="7.43967"><ele>1498.4</ele><time>2017-08-25T13:19:25Z</time></trkpt>
<trkpt lat="46.20667" lon="7.43967"><ele>1498.6</ele><time>2017-08-25T13:19:26Z</time></trkpt>
<trkpt lat="46.20671" lon="7.43967"><ele>1499.6</ele><time>2017-08-25T13:19:31Z</time></trkpt>
<trkpt lat="46.20672" lon="7.43967"><ele>1499.4</ele><time>2017-08-25T13:19:33Z</time></trkpt>
<trkpt lat="46.20671" lon="7.43965"><ele>1499.6</ele><time>2017-08-25T13:19:39Z</time></trkpt>
</trkseg></trk></gpx>